[[{"header":{"parameterUnit":"m.s-1","parameterCategory":1,"la1":30.6,"la2":29.2853,"lo1":-89.7004,"lo2":-87.6739,"dy":0.0162,"dx":0.0183,"nx":112,"ny":82,"refTime":"2024-04-29T12:00:00:Z","depth":0,"parameterNumber":2,"parameterNumberName":"U-component_of_WINDS"},"data":[0.0,0.0,0.0,0.0,0.0,0.0,0.0,0.0,0.0,0.0,0.0,0.0,0.0,0.0,0.0,0.0,0.0,0.0,0.0,0.0,0.0,0.0,0.0,0.0,0.0,0.0,0.0,0.0,0.0,0.0,0.0,0.0,0.0,0.0,0.0,0.0,0.0,0.0,0.0,0.0,0.0,0.0,0.0,0.0,0.0,0.0,0.0,0.0,0.0,0.0,0.0,0.0,0.0,0.0,0.0,0.0,0.0,0.0,0.0,0.0,0.0,0.0,0.0,0.0,0.0,0.0,0.0,0.0,0.0,0.0,0.0,0.0,0.0,0.0,0.0,0.0,0.0,0.0,0.0,0.0,0.0,0.0,0.0,0.0,0.0,0.0,0.0,0.0,0.0,0.0,-2.7996,-3.2035,-4.0556,-4.6722,-4.8623,-4.8823,-4.5173,-3.6649,0.0,0.0,0.0,0.0,0.0,0.0,0.0,0.0,0.0,0.0,0.0,0.0,0.0,0.0,0.0,0.0,0.0,0.0,0.0,0.0,0.0,0.0,0.0,0.0,0.0,0.0,0.0,0.0,0.0,0.0,0.0,0.0,0.0,0.0,0.0,0.0,0.0,0.0,0.0,0.0,0.0,0.0,0.0,0.0,0.0,0.0,0.0,0.0,0.0,0.0,0.0,0.0,0.0,0.0,0.0,0.0,0.0,0.0,0.0,0.0,0.0,0.0,0.0,0.0,0.0,0.0,0.0,0.0,0.0,0.0,0.0,0.0,0.0,0.0,0.0,0.0,0.0,0.0,0.0,0.0,0.0,0.0,0.0,0.0,0.0,0.0,0.0,0.0,0.0,0.0,0.0,0.0,0.0,0.0,0.0,0.0,0.0,0.0,0.0,0.0,0.0,0.0,0.0,0.0,-2.969,-3.855,-4.2518,-4.4659,-4.5007,-4.4414,-4.1361,-3.5111,0.0,0.0,0.0,0.0,0.0,0.0,0.0,0.0,0.0,0.0,0.0,0.0,0.0,0.0,0.0,0.0,0.0,0.0,0.0,0.0,0.0,0.0,0.0,0.0,0.0,0.0,0.0,0.0,0.0,0.0,0.0,0.0,0.0,0.0,0.0,0.0,0.0,0.0,0.0,0.0,0.0,0.0,0.0,0.0,0.0,0.0,0.0,0.0,0.0,0.0,0.0,0.0,0.0,0.0,0.0,0.0,0.0,0.0,0.0,0.0,0.0,0.0,0.0,0.0,0.0,0.0,0.0,0.0,0.0,0.0,0.0,0.0,0.0,0.0,0.0,0.0,0.0,0.0,0.0,0.0,0.0,0.0,0.0,0.0,0.0,0.0,0.0,0.0,0.0,0.0,0.0,0.0,0.0,0.0,0.0,0.0,0.0,0.0,0.0,0.0,0.0,0.0,0.0,-2.7463,-3.2094,-4.072,-4.2507,-4.3421,-4.4148,-4.2801,-3.9966,-3.5287,-3.3294,0.0,0.0,0.0,0.0,0.0,0.0,0.0,0.0,0.0,0.0,0.0,0.0,0.0,0.0,0.0,0.0,0.0,0.0,0.0,0.0,0.0,0.0,0.0,0.0,0.0,0.0,0.0,0.0,0.0,0.0,0.0,0.0,0.0,0.0,0.0,0.0,0.0,0.0,0.0,0.0,0.0,0.0,0.0,0.0,0.0,0.0,0.0,0.0,0.0,0.0,0.0,0.0,0.0,0.0,0.0,0.0,0.0,0.0,0.0,0.0,0.0,0.0,0.0,0.0,0.0,0.0,0.0,0.0,0.0,0.0,0.0,0.0,0.0,0.0,0.0,0.0,0.0,0.0,0.0,0.0,0.0,0.0,0.0,0.0,0.0,0.0,0.0,0.0,0.0,0.0,0.0,0.0,0.0,0.0,0.0,0.0,0.0,0.0,0.0,0.0,0.0,0.0,-3.1272,-3.42,-4.0556,-4.1501,-4.2102,-4.3167,-4.1059,-3.8173,-3.4547,-3.0606,0.0,0.0,0.0,0.0,0.0,0.0,0.0,0.0,0.0,0.0,0.0,0.0,0.0,0.0,0.0,0.0,0.0,0.0,0.0,0.0,0.0,0.0,0.0,0.0,0.0,0.0,0.0,0.0,0.0,0.0,0.0,0.0,0.0,0.0,0.0,0.0,0.0,0.0,0.0,0.0,0.0,0.0,0.0,0.0,0.0,0.0,0.0,0.0,0.0,0.0,0.0,0.0,0.0,0.0,0.0,0.0,0.0,0.0,0.0,0.0,0.0,0.0,0.0,0.0,0.0,0.0,0.0,0.0,0.0,0.0,0.0,0.0,0.0,0.0,0.0,0.0,0.0,0.0,0.0,0.0,0.0,0.0,0.0,0.0,0.0,0.0,0.0,0.0,0.0,0.0,0.0,0.0,0.0,0.0,0.0,0.0,0.0,0.0,0.0,0.0,0.0,0.0,-3.147,-3.5448,-3.8032,-3.9446,-4.0306,-4.0357,-3.7661,-3.4503,-3.1049,-2.7601,0.0,0.0,0.0,0.0,0.0,0.0,0.0,0.0,0.0,0.0,0.0,0.0,0.0,0.0,0.0,0.0,0.0,0.0,0.0,0.0,0.0,0.0,0.0,0.0,0.0,0.0,0.0,0.0,0.0,0.0,0.0,0.0,0.0,0.0,0.0,0.0,0.0,0.0,0.0,0.0,0.0,0.0,0.0,0.0,0.0,0.0,0.0,0.0,0.0,0.0,0.0,0.0,0.0,0.0,0.0,0.0,0.0,0.0,0.0,0.0,0.0,0.0,0.0,0.0,0.0,0.0,0.0,0.0,0.0,0.0,0.0,0.0,0.0,0.0,0.0,0.0,0.0,0.0,0.0,0.0,0.0,0.0,0.0,0.0,0.0,0.0,0.0,0.0,0.0,0.0,0.0,0.0,0.0,0.0,0.0,0.0,0.0,0.0,0.0,0.0,0.0,0.0,-2.9864,-3.3026,-3.6875,-3.8496,-3.9201,-3.8683,-3.676,-3.4145,-3.0709,0.0,0.0,0.0,0.0,0.0,0.0,0.0,0.0,0.0,0.0,0.0,0.0,0.0,0.0,0.0,0.0,0.0,0.0,0.0,0.0,0.0,0.0,0.0,0.0,0.0,0.0,0.0,0.0,0.0,0.0,0.0,0.0,0.0,0.0,0.0,0.0,0.0,0.0,0.0,0.0,0.0,0.0,0.0,0.0,0.0,0.0,0.0,0.0,0.0,0.0,0.0,0.0,0.0,0.0,0.0,0.0,0.0,0.0,0.0,0.0,0.0,0.0,0.0,0.0,0.0,0.0,0.0,0.0,0.0,0.0,0.0,0.0,0.0,0.0,0.0,0.0,0.0,0.0,0.0,0.0,0.0,0.0,0.0,0.0,0.0,0.0,0.0,0.0,0.0,0.0,0.0,0.0,0.0,0.0,0.0,0.0,0.0,0.0,0.0,0.0,0.0,0.0,-2.6549,-2.8995,-3.1726,-3.5435,-3.7268,-3.7943,-3.7241,-3.4985,-3.2481,-2.9793,0.0,0.0,0.0,0.0,0.0,0.0,0.0,0.0,0.0,0.0,0.0,0.0,0.0,0.0,0.0,0.0,0.0,0.0,0.0,0.0,0.0,0.0,0.0,0.0,0.0,0.0,0.0,0.0,0.0,0.0,0.0,0.0,0.0,0.0,0.0,0.0,0.0,0.0,0.0,0.0,0.0,0.0,0.0,0.0,0.0,0.0,0.0,0.0,0.0,0.0,0.0,0.0,0.0,0.0,0.0,0.0,0.0,0.0,0.0,0.0,0.0,0.0,0.0,0.0,0.0,0.0,0.0,0.0,0.0,0.0,0.0,0.0,0.0,0.0,0.0,0.0,0.0,0.0,0.0,0.0,0.0,0.0,0.0,0.0,0.0,0.0,0.0,0.0,0.0,0.0,0.0,0.0,0.0,0.0,0.0,0.0,0.0,0.0,0.0,0.0,0.0,0.0,-2.5252,-2.9143,-3.2151,-3.3535,-3.5554,-3.6469,-3.5819,-3.1855,-2.8923,0.0,0.0,0.0,0.0,0.0,0.0,0.0,0.0,0.0,0.0,0.0,0.0,0.0,0.0,0.0,0.0,0.0,0.0,0.0,0.0,0.0,0.0,0.0,0.0,0.0,0.0,0.0,0.0,0.0,0.0,0.0,0.0,0.0,0.0,0.0,0.0,0.0,0.0,0.0,0.0,0.0,0.0,0.0,0.0,0.0,0.0,0.0,0.0,0.0,0.0,0.0,0.0,0.0,0.0,0.0,0.0,0.0,0.0,0.0,0.0,0.0,0.0,0.0,0.0,0.0,0.0,0.0,0.0,0.0,0.0,0.0,0.0,0.0,0.0,0.0,0.0,0.0,0.0,0.0,0.0,0.0,0.0,0.0,0.0,0.0,0.0,0.0,0.0,0.0,0.0,0.0,0.0,0.0,0.0,0.0,0.0,0.0,0.0,0.0,0.0,0.0,0.0,0.0,-2.4677,-2.7649,-3.0379,-3.2594,-3.4326,-3.483,-3.3638,-3.107,-2.8582,-2.6459,0.0,0.0,0.0,0.0,0.0,0.0,0.0,0.0,0.0,0.0,0.0,0.0,0.0,0.0,0.0,0.0,0.0,0.0,0.0,0.0,0.0,0.0,0.0,0.0,0.0,0.0,0.0,0.0,0.0,0.0,0.0,0.0,0.0,0.0,0.0,0.0,0.0,0.0,0.0,0.0,0.0,0.0,0.0,0.0,0.0,0.0,0.0,0.0,0.0,0.0,0.0,0.0,0.0,0.0,0.0,0.0,0.0,0.0,0.0,0.0,0.0,0.0,0.0,0.0,0.0,0.0,0.0,0.0,0.0,0.0,0.0,0.0,0.0,0.0,0.0,0.0,0.0,0.0,0.0,0.0,0.0,0.0,0.0,0.0,0.0,0.0,0.0,0.0,0.0,0.0,0.0,0.0,0.0,0.0,0.0,0.0,0.0,0.0,0.0,0.0,0.0,0.0,-2.4061,-2.6637,-2.9085,-3.1422,-3.2983,-3.3288,-3.187,-2.9906,-2.775,-2.5426,0.0,0.0,0.0,0.0,0.0,0.0,0.0,0.0,0.0,0.0,0.0,0.0,0.0,0.0,0.0,0.0,0.0,0.0,0.0,0.0,0.0,0.0,0.0,0.0,0.0,0.0,0.0,0.0,0.0,0.0,0.0,0.0,0.0,0.0,0.0,0.0,0.0,0.0,0.0,0.0,0.0,0.0,0.0,0.0,0.0,0.0,0.0,0.0,0.0,0.0,0.0,0.0,0.0,0.0,0.0,0.0,0.0,0.0,0.0,0.0,0.0,0.0,0.0,0.0,0.0,0.0,0.0,0.0,0.0,0.0,0.0,0.0,0.0,0.0,0.0,0.0,0.0,0.0,0.0,0.0,0.0,0.0,0.0,0.0,0.0,0.0,0.0,0.0,0.0,0.0,0.0,0.0,0.0,0.0,0.0,0.0,0.0,0.0,0.0,0.0,0.0,0.0,-2.3378,-2.5827,-2.8079,-3.003,-3.1321,-3.1529,-3.025,-2.8345,-2.6411,-2.4461,0.0,0.0,0.0,0.0,0.0,0.0,0.0,0.0,0.0,0.0,0.0,0.0,0.0,0.0,0.0,0.0,0.0,0.0,0.0,0.0,0.0,0.0,0.0,0.0,0.0,0.0,0.0,0.0,0.0,0.0,0.0,0.0,0.0,0.0,0.0,0.0,0.0,0.0,0.0,0.0,0.0,0.0,0.0,0.0,0.0,0.0,0.0,0.0,0.0,0.0,0.0,0.0,0.0,0.0,0.0,0.0,0.0,0.0,0.0,0.0,-2.4773,-2.4088,0.0,0.0,0.0,0.0,0.0,0.0,0.0,0.0,0.0,0.0,0.0,0.0,0.0,0.0,0.0,0.0,0.0,0.0,0.0,0.0,0.0,0.0,0.0,0.0,0.0,0.0,0.0,0.0,0.0,0.0,0.0,0.0,0.0,0.0,0.0,0.0,0.0,0.0,0.0,0.0,-2.2777,-2.4277,-2.5867,-2.7752,-2.8248,-2.8106,-2.7314,-2.5565,-2.3836,-2.2428,-2.01,0.0,0.0,0.0,0.0,0.0,0.0,0.0,0.0,0.0,0.0,0.0,0.0,0.0,0.0,0.0,0.0,0.0,0.0,0.0,0.0,0.0,0.0,0.0,0.0,0.0,0.0,0.0,0.0,0.0,0.0,0.0,0.0,0.0,0.0,0.0,0.0,0.0,0.0,0.0,0.0,0.0,0.0,0.0,0.0,0.0,0.0,0.0,0.0,0.0,0.0,0.0,0.0,0.0,0.0,0.0,0.0,0.0,0.0,0.0,-2.6712,-2.5575,0.0,0.0,0.0,0.0,0.0,0.0,0.0,0.0,0.0,0.0,0.0,0.0,0.0,0.0,0.0,0.0,0.0,0.0,0.0,0.0,0.0,0.0,0.0,0.0,0.0,0.0,0.0,0.0,0.0,0.0,0.0,0.0,0.0,0.0,0.0,0.0,0.0,0.0,0.0,0.0,-2.206,-2.3353,-2.4774,-2.6657,-2.7103,-2.7034,-2.6465,-2.4955,-2.3354,-2.1793,-1.9763,0.0,0.0,0.0,0.0,0.0,0.0,0.0,0.0,0.0,0.0,0.0,0.0,0.0,0.0,0.0,0.0,0.0,0.0,0.0,0.0,0.0,0.0,0.0,0.0,0.0,0.0,0.0,0.0,0.0,0.0,0.0,0.0,0.0,0.0,0.0,0.0,0.0,0.0,0.0,0.0,0.0,0.0,0.0,0.0,0.0,0.0,0.0,0.0,0.0,0.0,0.0,0.0,0.0,-3.2558,-3.2848,-3.2221,-3.1997,-3.1223,-2.9998,-2.9345,-2.7569,-2.5256,-2.4516,0.0,0.0,0.0,0.0,0.0,0.0,0.0,0.0,0.0,0.0,0.0,0.0,0.0,0.0,0.0,0.0,0.0,0.0,0.0,0.0,0.0,0.0,-2.1058,-2.1008,-2.2059,-2.2332,-1.941,0.0,0.0,0.0,0.0,0.0,0.0,0.0,0.0,0.0,0.0,0.0,-2.1393,-2.2551,-2.3914,-2.5632,-2.6267,-2.6321,-2.5748,-2.4613,-2.3237,-2.1471,-1.9847,-1.8432,0.0,0.0,0.0,0.0,0.0,0.0,0.0,0.0,0.0,0.0,0.0,0.0,0.0,0.0,0.0,0.0,0.0,0.0,0.0,0.0,0.0,0.0,0.0,0.0,0.0,0.0,0.0,0.0,0.0,0.0,0.0,0.0,-2.1399,-2.1282,0.0,0.0,0.0,0.0,0.0,0.0,0.0,0.0,0.0,0.0,0.0,0.0,0.0,-2.8718,-3.0276,-3.2,-3.3525,-3.4853,-3.6144,-3.643,-3.5829,-3.5798,-3.4994,-3.3678,-3.2996,0.0,-2.6267,-2.4694,0.0,0.0,0.0,0.0,0.0,0.0,0.0,0.0,0.0,0.0,0.0,0.0,0.0,0.0,0.0,0.0,0.0,0.0,0.0,0.0,0.0,0.0,-2.2664,-2.2177,-2.2633,-2.2702,-2.1336,-2.0435,-1.9661,-1.8945,-1.8251,-1.7895,0.0,0.0,0.0,0.0,0.0,0.0,-2.0727,-2.1369,-2.2226,-2.3437,-2.359,-2.3399,-2.291,-2.2273,-2.1393,-2.0118,-1.8976,-1.8055,-1.7422,-1.6904,0.0,0.0,0.0,0.0,0.0,0.0,0.0,0.0,0.0,0.0,0.0,0.0,0.0,0.0,0.0,0.0,0.0,0.0,0.0,0.0,0.0,0.0,0.0,0.0,0.0,0.0,0.0,0.0,0.0,-2.3596,-2.4205,-2.3136,-2.4212,-2.4405,0.0,0.0,0.0,0.0,0.0,0.0,0.0,0.0,0.0,-2.9652,-3.1336,-3.2792,-3.3968,-3.5352,-3.6592,-3.7719,-3.8646,-3.8945,-3.8691,-3.806,-3.7118,-3.5894,-3.4326,-3.2143,-2.9604,-2.7284,-2.5573,-2.433,0.0,0.0,0.0,0.0,-2.1687,-2.1413,-2.248,-2.2698,-2.2625,-2.3405,0.0,0.0,0.0,0.0,0.0,0.0,0.0,-2.1007,-2.0268,-2.162,-2.3167,-2.2902,-2.3925,-2.4785,-2.3953,-2.2689,-2.133,-2.0175,-2.0062,-2.0037,-1.966,-1.9522,0.0,0.0,0.0,-2.0511,-2.1062,-2.1609,-2.2108,-2.2589,-2.2673,-2.2447,-2.1895,-2.1041,-2.0326,-1.9836,-1.8505,-1.7639,-1.7388,-1.7137,-1.6974,0.0,0.0,0.0,0.0,0.0,0.0,0.0,0.0,0.0,0.0,0.0,0.0,0.0,0.0,0.0,0.0,0.0,0.0,0.0,0.0,0.0,0.0,0.0,0.0,0.0,0.0,0.0,0.0,-2.583,-2.6686,-2.5132,-2.7105,-2.7635,0.0,0.0,0.0,0.0,0.0,0.0,-3.1747,-3.2503,-3.3339,-3.4259,-3.5465,-3.6589,-3.768,-3.8312,-3.9203,-4.0172,-4.0502,-4.0651,-4.0651,-3.9824,-3.8767,-3.7498,-3.5547,-3.3881,-3.2403,-2.9466,-2.7344,-2.5774,-2.4795,-2.4142,-2.374,-2.3615,-2.3108,-2.2642,-2.3424,-2.3604,-2.3568,-2.3965,-2.394,-2.359,-2.2636,0.0,0.0,0.0,0.0,-2.1606,-2.1032,-2.2397,-2.3927,-2.4073,-2.5232,-2.6088,-2.5523,-2.4318,-2.2899,-2.138,-2.1405,-2.1418,-2.0589,-2.0087,0.0,-1.9805,-2.0292,-2.0841,-2.1225,-2.1774,-2.2095,-2.2076,-2.2096,-2.182,-2.1117,-2.0288,-1.9685,-1.9409,-1.8129,-1.7388,-1.7388,-1.7237,-1.6935,-1.6492,0.0,0.0,0.0,0.0,0.0,0.0,0.0,0.0,0.0,0.0,0.0,0.0,0.0,0.0,0.0,0.0,0.0,0.0,0.0,0.0,0.0,0.0,0.0,0.0,0.0,0.0,0.0,0.0,0.0,-2.7151,-3.0832,0.0,0.0,0.0,0.0,-3.0348,-3.288,-3.4706,-3.5239,-3.6395,-3.7792,-3.9411,-3.9377,-4.0023,-4.1507,-4.0795,-4.1098,-4.2207,-4.1609,-4.1324,-4.1324,-4.1324,-4.033,-3.8687,-3.7484,-3.575,-3.3501,-3.0241,-2.8825,-2.8511,-2.6352,-2.5498,-2.541,-2.4921,-2.4668,-2.468,-2.473,-2.4405,-2.423,-2.5795,-2.5963,-2.5372,-2.482,-2.3891,0.0,0.0,-2.3317,-2.3967,-2.4429,-2.4991,-2.5632,-2.6221,-2.5958,-2.5498,-2.4971,-2.4381,-2.3615,-2.246,-2.0978,-1.9911,-1.9849,0.0,-1.9793,-1.9812,-2.0286,-2.0717,-2.0722,-2.1219,-2.1567,-2.1556,-2.1531,-2.1079,-1.9974,-1.9836,-1.9371,-1.8342,-1.7714,-1.7388,-1.7388,-1.6861,-1.651,-1.6417,-1.5918,0.0,0.0,0.0,0.0,0.0,0.0,0.0,0.0,0.0,0.0,0.0,0.0,0.0,0.0,0.0,0.0,0.0,0.0,0.0,0.0,0.0,0.0,0.0,0.0,0.0,0.0,0.0,0.0,-3.1851,-3.4092,0.0,-3.3578,-3.4115,-3.4523,-3.434,-3.6438,-3.8183,-3.9257,-4.0113,-4.1053,-4.2001,-4.2031,-4.2267,-4.2739,-4.2503,-4.2545,-4.2985,-4.2746,-4.2626,-4.2611,-4.1758,-4.0893,-3.9822,-3.7536,-3.5886,-3.4673,-3.1733,-3.0105,-2.9365,-2.8197,-2.7519,-2.7193,-2.7005,-2.6482,-2.5899,-2.5548,-2.5305,-2.5225,-2.5348,-2.5021,-2.4392,-2.3315,-2.3319,-2.3492,-2.2416,-2.3125,-2.4068,-2.3682,-2.4396,-2.5184,-2.5038,-2.5333,-2.5448,-2.4933,-2.4393,-2.3879,-2.3477,-2.2322,-2.1418,-2.1418,-2.1117,-2.0774,-2.0424,-2.1169,-2.1481,-2.0766,-2.1487,-2.1718,-2.1041,-2.0627,-2.01,-1.9359,-1.8656,-1.8229,-1.8204,-1.7338,-1.6986,-1.7363,-1.6823,-1.6324,-1.5906,-1.5683,-1.5085,0.0,0.0,0.0,0.0,0.0,0.0,0.0,0.0,0.0,0.0,0.0,0.0,0.0,0.0,0.0,0.0,0.0,0.0,0.0,0.0,0.0,0.0,0.0,0.0,0.0,-3.1787,-3.3934,-3.4968,-3.7287,-3.8315,-3.7074,-3.7989,-3.8667,-3.8517,-4.0335,-4.1824,-4.2689,-4.312,-4.3658,-4.4317,-4.3898,-4.3658,-4.3658,-4.3449,-4.3329,-4.3329,-4.3105,-4.3015,-4.297,-4.2102,-4.1285,-4.0386,-3.8317,-3.6753,-3.5515,-3.3213,-3.1432,-3.0256,-2.9515,-2.9001,-2.8674,-2.8674,-2.8139,-2.7233,-2.6518,-2.6154,-2.5981,-2.551,-2.5121,-2.4693,-2.3769,-2.3986,-2.4327,-2.3215,-2.3676,-2.4254,-2.3685,-2.422,-2.4824,-2.4474,-2.4723,-2.4958,-2.4619,-2.4104,-2.3703,-2.3703,-2.31,-2.2535,-2.2347,-2.1857,-2.143,-2.1255,-2.1531,-2.1556,-2.1016,-2.1418,-2.1405,-2.0476,-1.9874,-1.9321,-1.8794,-1.8078,-1.7652,-1.7639,-1.7112,-1.6898,-1.7087,-1.6678,-1.6154,-1.5532,-1.5119,-1.4435,-1.3515,0.0,0.0,0.0,0.0,0.0,0.0,0.0,0.0,0.0,0.0,0.0,0.0,0.0,0.0,0.0,0.0,0.0,0.0,0.0,0.0,0.0,0.0,0.0,-3.2006,-3.4185,-3.5891,-3.6453,-4.0385,-4.2138,-3.9745,-4.2957,-4.4445,-4.2619,-4.4433,-4.552,-4.5372,-4.5334,-4.5618,-4.6277,-4.5005,-4.4302,-4.4287,-4.3643,-4.3329,-4.3299,-4.2686,-4.2387,-4.2357,-4.2419,-4.1639,-4.0382,-3.9896,-3.8374,-3.6077,-3.4446,-3.2875,-3.1286,-3.0231,-2.9804,-2.9792,-2.9792,-2.9428,-2.8775,-2.7708,-2.6967,-2.6546,-2.6546,-2.6546,-2.6533,-2.6533,-2.6063,-2.5624,-2.5598,-2.5234,-2.4845,-2.482,-2.482,-2.482,-2.4795,-2.4393,-2.3991,-2.3979,-2.3527,-2.3078,-2.3078,-2.3078,-2.2902,-2.2422,-2.1895,-2.1707,-2.2209,-2.1393,0.0,-2.138,-2.0991,-2.0504,-1.9886,-1.9346,-1.8819,-1.8279,-1.8191,-1.7702,-1.6584,-1.7049,-1.7099,-1.6547,-1.6396,-1.5997,-1.5296,-1.4113,-1.3281,-1.2881,0.0,0.0,0.0,0.0,0.0,0.0,0.0,0.0,0.0,0.0,0.0,0.0,0.0,0.0,0.0,0.0,0.0,0.0,0.0,0.0,0.0,-3.154,-3.3441,-3.4467,-3.5858,-3.7803,-4.0647,-4.234,-4.3405,-4.392,-4.495,-4.5275,-4.4584,-4.5703,-4.6287,-4.5992,-4.6037,-4.5903,-4.5589,-4.4766,-4.4092,-4.3599,-4.3419,-4.309,-4.2626,-4.2925,-4.2821,-4.2342,-4.1878,-4.1444,-4.098,-3.9153,-3.7487,-3.605,-3.4032,-3.2538,-3.1323,-3.0645,-3.0143,-2.9792,-2.9792,-2.9428,-2.8888,-2.8586,-2.7846,-2.7055,-2.7055,-2.6791,-2.6533,-2.6533,-2.6352,-2.6138,-2.5711,-2.5485,-2.5297,-2.4921,-2.482,-2.472,-2.4318,-2.4104,-2.3891,-2.3464,-2.3251,-2.3078,-2.3078,-2.3078,-2.3027,-2.2937,-2.2786,-2.246,-2.1807,-2.1794,-2.1468,-2.0401,-2.0501,-2.0655,-2.0492,-1.9585,-1.892,-1.8819,-1.8066,-1.73,-1.6559,-1.6672,-1.6685,-1.6522,-1.6442,-1.596,-1.49,-1.37,-1.2998,0.0,0.0,0.0,0.0,0.0,0.0,0.0,0.0,0.0,0.0,0.0,0.0,0.0,0.0,0.0,0.0,0.0,0.0,0.0,0.0,0.0,0.0,-3.4738,-3.6754,-3.8416,-3.8574,-3.9591,-4.2332,-4.3423,-4.4388,-4.5418,-4.5863,-4.6153,-4.6137,-4.6667,-4.6796,-4.6307,-4.6322,-4.5873,-4.4915,-4.4511,-4.4003,-4.3344,-4.3693,-4.3512,-4.2761,-4.3015,-4.2743,-4.1938,-4.1265,-4.0816,-4.0531,-3.9401,-3.8135,-3.6704,-3.4831,-3.3225,-3.1932,0.0,0.0,0.0,0.0,-2.9428,-2.8925,-2.8925,-2.836,-2.7595,-2.7356,-2.7067,-2.6766,-2.6596,-2.6289,-2.5988,-2.5423,-2.5109,-2.4808,-2.4255,-2.4117,-2.4029,-2.3715,-2.364,-2.354,-2.3213,-2.3078,-2.3078,-2.3078,-2.3078,0.0,-2.3078,-2.2749,-2.2297,-2.1895,-2.1506,-2.0991,-2.0263,-2.0238,-2.03,-2.03,-1.9535,-1.8983,-1.8983,-1.8229,0.0,0.0,0.0,-1.6203,-1.5636,-1.5636,0.0,0.0,0.0,-1.3057,-1.2881,-1.3057,0.0,0.0,-1.3299,-1.3311,0.0,0.0,0.0,0.0,0.0,0.0,0.0,0.0,0.0,0.0,0.0,0.0,0.0,0.0,0.0,0.0,-3.8149,-3.9918,-4.2541,-4.157,-4.1114,-4.2342,-4.3833,-4.4911,-4.5302,-4.6062,-4.6716,-4.7171,-4.7126,-4.6826,-4.6232,-4.6217,0.0,0.0,0.0,-4.3988,-4.3488,-4.4358,-4.4357,-4.3389,-4.3051,-4.2364,-4.1385,-4.074,-4.0083,-3.9559,-4.0068,-3.9313,-3.7695,-3.5997,-3.4244,-3.2424,-3.0533,-2.9792,-2.9792,-2.9792,-2.9465,-2.9013,-2.895,0.0,0.0,-2.7457,-2.7243,-2.7105,-2.6603,-2.6101,-2.5573,-2.4983,-2.4469,-2.3941,-2.3301,-2.3078,-2.3078,-2.3078,-2.3078,-2.3078,-2.3078,-2.3078,-2.3078,-2.3078,-2.3078,-2.3078,-2.3078,-2.2322,-2.1794,-2.2171,-2.1004,-2.02,-2.0526,-2.0175,-1.9899,-1.9899,-1.9434,0.0,-1.912,-1.8606,-1.8066,-1.7513,-1.6803,-1.5857,-1.4612,-1.4458,-1.4163,-1.3598,-1.3596,-1.3389,-1.3027,-1.3389,-1.3581,-1.3584,-1.3961,-1.3936,0.0,0.0,0.0,0.0,0.0,0.0,0.0,0.0,0.0,0.0,0.0,0.0,0.0,0.0,0.0,-3.8206,-3.9555,-4.1113,-4.3472,-4.2747,-4.2304,-4.3026,-4.3847,-4.4661,-4.5206,-4.5639,-4.6091,-4.6481,-4.6179,-4.5883,-4.5552,-4.5484,-4.5125,-4.4347,-4.4317,-4.4373,-4.4526,-4.4737,-4.4533,-4.3959,-4.3691,0.0,-4.1592,-4.0794,-4.0337,-4.0187,-3.9783,-3.89,-3.7667,-3.5611,-3.3011,-3.0379,-2.9945,-2.9792,-2.9792,-2.9792,-2.9729,-2.9566,-2.9089,-2.8561,-2.8009,-2.7457,-2.6979,-2.6672,-2.6559,-2.6445,0.0,-2.5096,-2.4745,-2.4431,-2.3401,-2.3078,-2.3078,-2.3078,-2.3078,-2.3078,-2.3078,-2.3078,-2.3078,-2.3078,-2.3078,-2.3078,-2.3078,-2.2962,-2.2548,-2.1769,-2.1744,-2.138,-2.0125,-2.0275,-2.0555,-2.0555,-1.9987,-1.966,-1.966,-1.9171,-1.8631,-1.8078,-1.701,-1.6078,-1.5382,-1.4714,-1.4351,-1.4202,-1.4079,-1.3975,-1.3887,-1.3975,-1.397,-1.4,-1.4058,-1.4038,0.0,0.0,0.0,0.0,0.0,0.0,0.0,0.0,0.0,0.0,0.0,-3.0021,-3.2027,0.0,-3.8176,-4.0165,-4.1911,-4.3251,-4.3786,-4.3406,-4.3119,-4.3269,-4.3593,-4.4071,-4.4728,-4.4886,-4.5379,-4.6217,-4.5828,-4.547,-4.5274,-4.499,-4.4496,-4.3838,-4.3823,-4.4104,-4.4812,-4.53,-4.5183,-4.4569,-4.4208,-4.3184,-4.1674,-4.0459,-3.9903,-3.9888,-3.9574,-3.9104,-3.8369,-3.5709,-3.2707,-2.9792,-2.9792,-2.9792,-2.9792,-2.9792,-2.9792,-2.9704,-2.9126,-2.8938,-2.8762,-2.7645,-2.7281,-2.718,-2.6697,-2.6533,-2.6226,-2.5134,-2.482,-2.4556,-2.3366,-2.3078,-2.3078,-2.3078,-2.3078,-2.3078,-2.3078,-2.3078,-2.3078,-2.3078,-2.3078,-2.3078,-2.3078,-2.3078,-2.2862,-2.202,-2.1656,-2.1192,-2.0338,-2.0238,-2.0238,-2.0238,-1.9974,-1.9798,-1.9798,-1.9334,-1.8635,-1.7823,-1.7171,-1.6408,-1.5415,-1.4999,-1.4644,-1.4255,-1.4172,-1.4077,-1.4077,-1.4355,-1.4463,-1.4463,-1.4678,-1.4658,0.0,0.0,0.0,0.0,0.0,0.0,0.0,-2.4267,-2.5363,-2.7851,-2.9485,-3.1591,-3.5182,-3.7698,-3.9895,-4.1917,-4.3733,-4.4629,-4.37,-4.3407,-4.3242,-4.2925,-4.3075,-4.3399,-4.4184,-4.4161,-4.4631,-4.5843,-4.5424,-4.505,-4.4915,-4.4526,-4.4083,-4.3581,-4.363,-4.4143,-4.53,-4.6119,-4.6104,-4.5417,-4.4568,-4.3325,-4.1719,-4.0122,-3.9424,-3.9409,-3.9275,-3.8996,-3.8542,-3.5617,-3.2662,-3.0075,-2.9856,-2.9792,-2.9792,-2.9792,-2.9792,-2.9704,-2.9126,-2.9239,-2.9365,-2.7795,-2.7582,-2.7758,-2.6766,-2.6533,-2.6226,-2.5134,-2.482,-2.4556,-2.3366,-2.3078,-2.3078,-2.3078,-2.3078,-2.3078,-2.3078,-2.3078,-2.3078,-2.3078,-2.3078,-2.3078,-2.3078,-2.3078,-2.2949,-2.2397,-2.1644,-2.1066,-2.0853,-2.0514,-2.0213,-1.9987,-1.9962,-1.9924,-1.9811,-1.9409,-1.8734,-1.7666,-1.7532,-1.6918,-1.5647,-1.5424,-1.507,-1.4463,-1.439,-1.433,-1.433,-1.4736,-1.4902,-1.4912,-1.5254,-1.5234,-1.1528,-1.3704,-1.6696,-2.0096,-2.1228,-2.2805,0.0,-2.8781,-2.9146,-3.1368,-3.4465,-3.6748,-3.6755,-4.0072,-4.2891,-4.3103,-4.3207,-4.3192,-4.2965,-4.2212,-4.1641,-4.1655,-4.2117,-4.2955,-4.4212,-4.3793,-4.3748,-4.4481,-4.4466,-4.4167,-4.3584,-4.4032,-4.4388,-4.4617,-4.4662,-4.5504,-4.7239,-4.7373,-4.7173,-4.6572,-4.5,-4.3389,-4.1916,-4.0161,-3.9424,-3.9394,-3.8766,-3.7701,-3.6216,-3.4478,-3.263,-3.097,-3.0139,-2.9792,-2.9792,-2.9792,-2.9792,-2.9704,-2.9126,-2.8976,-2.8837,-2.7657,-2.7318,-2.7256,-2.6653,-2.6533,-2.6226,-2.5134,-2.482,-2.4556,-2.3366,-2.3078,-2.3078,-2.3078,-2.3078,-2.3078,-2.3078,-2.3078,-2.3078,-2.3078,-2.3078,-2.3078,-2.3078,-2.3078,-2.2949,-2.2397,-2.2623,-2.2498,-2.1518,-2.1769,-2.1656,-2.0677,-2.0618,-2.0363,-1.9849,-1.9748,-1.9434,-1.8858,-1.8298,-1.7718,-1.7095,-1.6269,-1.5806,-1.5708,-1.5399,-1.5264,-1.5264,-1.5322,-1.5342,-1.5342,-1.5391,-1.5391,-1.471,-1.7368,-2.0041,-2.2134,-2.4137,-2.6416,-2.9736,-3.0835,-3.182,-3.3965,-3.6285,-3.8196,-3.9243,-4.1203,-4.293,-4.3732,-4.3779,-4.3623,-4.3514,-4.2466,-4.1828,-4.214,-4.1736,-4.2083,-4.3823,-4.3716,-4.4205,-4.5863,-4.5141,-4.4911,-4.5506,-4.5472,-4.5493,-4.5634,-4.5634,-4.626,-4.7589,-4.7177,-4.6886,-4.6786,-4.4607,-4.3007,-4.1933,-4.0185,-3.9424,-3.9379,-3.8691,-3.7482,-3.5927,-3.4854,-3.3146,-3.118,-3.0758,-3.0279,-2.9792,-2.9792,-2.9792,-2.9704,-2.9126,-2.8925,-2.875,-2.7645,-2.7281,-2.718,-2.6697,-2.6533,-2.6302,-2.5498,-2.5272,-2.5021,-2.3916,-2.364,-2.364,-2.364,-2.3376,-2.3226,-2.3565,-2.3376,-2.3078,-2.3078,-2.3078,-2.3238,-2.3577,-2.3364,-2.3215,-2.3703,-2.3138,-2.2485,-2.202,-2.1895,-2.1656,-2.1192,-2.0552,-2.02,-2.03,-1.9987,-1.971,-1.9497,-1.9205,-1.8621,-1.7502,-1.71,-1.6511,-1.5628,-1.5486,-1.541,-1.541,-1.541,-1.541,-1.541,-1.541,-1.541,-1.802,-2.0625,-2.2793,-2.4426,-2.7127,-2.9774,-3.1352,-3.2805,-3.4201,-3.5664,-3.7351,-3.9016,-4.0331,-4.1451,-4.2568,-4.357,-4.3634,-4.3508,-4.3163,-4.2236,-4.1709,-4.1916,-4.1308,-4.1422,-4.3216,-4.338,-4.4322,-4.6446,-4.5677,-4.5651,-4.6869,-4.6653,-4.6522,-4.6609,-4.6609,-4.702,-4.8015,-4.7237,-4.6853,-4.6786,-4.4549,-4.2929,-4.1917,-3.9986,-3.9245,-3.9364,-3.8317,-3.7312,-3.6297,-3.5175,-3.3649,-3.1888,-3.1389,-3.0758,-3.0139,-2.9856,-2.9792,-2.9704,-2.9126,-2.8925,-2.875,-2.7645,-2.7281,-2.718,-2.6697,-2.6533,-2.6339,-2.5762,-2.5485,-2.5209,-2.4431,-2.4117,-2.4042,-2.4192,-2.3904,-2.3715,-2.4142,-2.3891,-2.3602,-2.3602,-2.3602,-2.374,-2.4155,-2.3753,-2.3703,-2.4682,-2.3527,-2.2598,-2.2761,-2.2159,-2.1719,-2.1719,-2.0715,-2.0213,-2.068,-2.0137,-1.9798,-1.9798,-1.9798,-1.9254,-1.7961,-1.7688,-1.7024,-1.5748,-1.5526,-1.541,-1.541,-1.5527,-1.5527,-1.541,-1.5537,-1.5586,-2.0726,-2.2632,-2.4611,-2.7451,-2.9839,-3.1926,-3.3614,-3.5352,-3.6504,-3.6334,-3.8294,-3.982,-3.9089,-4.0796,-4.2286,-4.227,-4.2226,-4.1929,-4.1132,-4.0975,-4.0687,-3.9955,-4.055,-4.1313,-4.2193,-4.2606,-4.3476,-4.5048,-4.5649,-4.6016,-4.6205,-4.6861,-4.7265,-4.7539,-4.7589,-4.8015,-4.894,-4.8213,-4.747,-4.6786,-4.5169,-4.3516,-4.1901,-3.955,-3.8796,-3.9305,-3.7389,-3.6866,-3.7163,-3.4918,-3.3973,-3.3739,-3.1888,-3.118,-3.1044,-3.0139,-2.9792,-2.9704,-2.9126,-2.8925,-2.875,-2.7645,-2.7281,-2.718,-2.6697,-2.6533,-2.6339,-2.5762,-2.5234,-2.4845,-2.4808,-2.4406,-2.413,-2.4669,-2.4782,-2.477,-2.4795,-2.4782,-2.477,-2.477,-2.477,-2.4782,-2.4795,-2.4343,-2.4167,-2.4745,-2.3841,-2.3314,-2.3879,-2.2975,-2.2284,-2.2284,-2.1292,-2.0706,-2.0718,-2.0137,-1.9798,-1.9798,-1.9798,-1.9475,-1.8715,-1.795,-1.7246,-1.6492,-1.5748,-1.541,-1.541,-1.584,-1.582,-1.542,-1.585,-1.6105,-2.41,-2.6509,-2.9072,-3.1384,-3.3223,-3.4953,-3.6527,-3.7049,-3.7229,-3.7104,-3.6846,-3.6638,-3.6683,-3.7018,-3.7975,-4.0222,-4.0998,-4.1668,-4.2809,-4.298,-4.2739,-4.1934,-4.2112,-4.2268,-4.2125,-4.2237,-4.3182,-4.5329,-4.5552,-4.6094,-4.7284,-4.7998,-4.8427,-4.8513,-4.8513,-4.8656,-4.9001,-4.8291,-4.753,-4.6786,-4.4089,-4.1981,-4.0407,-3.948,-3.8706,-3.8048,-3.7389,-3.6985,-3.6731,-3.5489,-3.461,-3.3945,-3.331,-3.2664,-3.2033,-3.1044,-3.0771,-3.053,-2.9328,-2.8687,-2.826,-2.7519,-2.703,-2.6773,-2.6584,-2.6533,-2.6483,-2.6226,-2.605,-2.5824,-2.5435,-2.5197,-2.5109,-2.5285,-2.5071,-2.4921,-2.5259,-2.5059,-2.482,-2.482,-2.482,-2.4933,-2.5272,-2.4895,-2.4607,-2.4795,-2.4192,-2.364,-2.3452,-2.2774,-2.2447,-2.2824,-2.187,-2.1204,-2.1204,-2.0702,-2.0376,-2.0376,-1.9568,-1.9024,-1.8988,-1.7904,-1.7089,-1.6637,-1.6117,-1.584,-1.584,-1.5986,-1.6047,-1.585,-1.6299,-1.6514,-2.7629,-3.0086,-3.2477,-3.4181,-3.5858,-3.7173,-3.7397,-3.7441,-3.704,-3.5762,-3.467,-3.3969,-3.404,-3.4022,-3.5165,-3.8617,-3.9537,-4.0654,-4.304,-4.3288,-4.3059,-4.2546,-4.2536,-4.2441,-4.2146,-4.2036,-4.2937,-4.5162,-4.5688,-4.6514,-4.7808,-4.8612,-4.9001,-4.9001,-4.9001,-4.9001,-4.9001,-4.8291,-4.7411,-4.6397,-4.3727,-4.1629,-4.0112,-3.9198,-3.825,-3.7375,-3.6926,-3.6641,-3.6432,-3.5774,-3.5133,-3.4476,-3.4163,-3.3602,-3.2961,-3.2033,-3.1462,-3.0913,-2.9249,-2.8398,-2.7984,-2.7231,-2.6753,-2.6533,-2.6533,-2.6533,-2.6533,-2.6533,-2.6314,-2.6113,-2.595,-2.5749,-2.5649,-2.585,-2.5649,-2.5498,-2.5837,-2.5636,-2.541,-2.541,-2.541,-2.5511,-2.585,-2.5636,-2.5272,-2.4883,-2.4682,-2.4293,-2.354,-2.2949,-2.2736,-2.3027,-2.2322,-2.1782,-2.1782,-2.128,-2.0844,-2.0545,-1.9582,-1.8881,-1.866,-1.7722,-1.7052,-1.6728,-1.6445,-1.6299,-1.6299,-1.6455,-1.6455,-1.6309,-1.6758,-1.6963,-3.1337,-3.3301,-3.4758,-3.5919,-3.7613,-3.8489,-3.6453,-3.6534,-3.6062,-3.2526,-3.1878,-3.1765,-3.1077,-3.1953,-3.3859,-3.7291,-3.8068,-3.9217,-4.198,-4.2126,-4.1959,-4.2002,-4.2037,-4.2141,-4.2241,-4.2267,-4.2957,-4.4444,-4.5913,-4.7022,-4.7817,-4.8545,-4.8968,-4.9001,-4.9001,-4.9001,-4.9001,-4.824,-4.7158,-4.5754,-4.4062,-4.2533,-4.0956,-3.8748,-3.7621,-3.7353,-3.6073,-3.5893,-3.6387,-3.5759,-3.5504,-3.5439,-3.4461,-3.4095,-3.3959,-3.3031,-3.2105,-3.1008,-2.8902,-2.817,-2.7921,-2.6854,-2.6546,-2.6533,-2.6533,-2.6533,-2.6533,-2.6533,-2.6063,-2.5774,-2.6382,-2.605,-2.5774,-2.6327,-2.6533,-2.6533,-2.6533,-2.6533,-2.6533,-2.6533,-2.6533,-2.6533,-2.6533,-2.6533,-2.6101,-2.5059,-2.5272,-2.5184,-2.4167,-2.3565,-2.3153,-2.3175,-2.2711,-2.2372,-2.2322,-2.1832,-2.1168,-2.0389,-1.9856,-1.9057,-1.7966,-1.7476,-1.7042,-1.6787,-1.6694,-1.6685,-1.6768,-1.7178,-1.7168,-1.6777,-1.7207,-1.7422,-3.5133,-3.6399,-3.7335,-3.888,-3.8583,-3.753,-3.6096,-3.4756,-3.314,-3.0759,-2.8836,-2.7573,-2.7433,-2.9282,-3.1917,-3.5236,-3.8237,-4.1183,-4.4029,-4.4899,-4.5112,-4.4872,-4.5381,-4.5385,-4.442,-4.4818,-4.4961,-4.4475,-4.4886,-4.5703,-4.7005,-4.7784,-4.8443,-4.8984,-4.9001,-4.9001,-4.9001,-4.7716,-4.6887,-4.6498,-4.4354,-4.2851,-4.1917,-3.9992,-3.8627,-3.7582,-3.6673,-3.6058,-3.5744,-3.5579,-3.5504,-3.5504,-3.5213,-3.5133,-3.4986,-3.4027,-3.3518,-3.2919,-3.013,-2.871,-2.7996,-2.7293,-2.6804,-2.6533,-2.6533,-2.6533,-2.6533,-2.6533,-2.642,-2.6345,-2.6496,-2.642,-2.6276,-2.6496,-2.6533,-2.6533,-2.6533,-2.6533,-2.6533,-2.6533,-2.6533,-2.6533,-2.6533,-2.6533,-2.6433,-2.6088,-2.546,-2.4921,-2.4644,-2.4481,-2.423,-2.3816,-2.3653,-2.3226,-2.2385,-2.2184,-2.1981,-2.1795,-2.0147,-1.9434,-1.986,-1.7936,-1.7105,-1.7666,-1.7061,-1.6894,-1.7217,-1.7334,-1.7324,-1.7227,-1.7656,-1.7852,-3.7862,-3.9006,-3.9649,-4.0253,-3.8932,-3.6955,-3.486,-3.2679,-3.0406,-2.7935,-2.6051,-2.4925,-2.5085,-2.7173,-3.0029,-3.3537,-3.7024,-4.0449,-4.3839,-4.4897,-4.5482,-4.5882,-4.6305,-4.632,-4.5662,-4.5959,-4.5935,-4.533,-4.5372,-4.5704,-4.6278,-4.7022,-4.7767,-4.8494,-4.8206,-4.8189,-4.8528,-4.7699,-4.7124,-4.6769,-4.4825,-4.3132,-4.1766,-4.0462,-3.8918,-3.7188,-3.6731,-3.6129,-3.5504,-3.5504,-3.5504,-3.5504,-3.5504,-3.5504,-3.5424,-3.4839,-3.4394,-3.3733,-3.1749,-3.0187,-2.8856,-2.7397,-2.6716,-2.6533,-2.6533,-2.6533,-2.6533,-2.6533,-2.6533,-2.6533,-2.6533,-2.6533,-2.6533,-2.6533,-2.6533,-2.6533,-2.6533,-2.6653,-2.6816,-2.6816,-2.6816,-2.6753,-2.6571,-2.6533,-2.6533,-2.6533,-2.5937,-2.5536,-2.5536,-2.4908,-2.4343,-2.4029,-2.4004,-2.364,-2.2749,-2.2673,-2.2483,-2.2126,-2.0447,-1.966,-1.9976,-1.8049,-1.7324,-1.7998,-1.7539,-1.7412,-1.7656,-1.7656,-1.7656,-1.7666,-1.79,-1.8008,-4.0138,-4.1218,-4.1529,-4.069,-3.8923,-3.6523,-3.3148,-3.0576,-2.7992,-2.4902,-2.3721,-2.3328,-2.3615,-2.5618,-2.8494,-3.2377,-3.5369,-3.8644,-4.2844,-4.3887,-4.4668,-4.5825,-4.6122,-4.6247,-4.63,-4.6422,-4.65,-4.6518,-4.6578,-4.632,-4.5841,-4.6353,-4.6989,-4.775,-4.7124,-4.7107,-4.7767,-4.7682,-4.7293,-4.6633,-4.5145,-4.3429,-4.1475,-4.0535,-3.8974,-3.7029,-3.6768,-3.6228,-3.5619,-3.5569,-3.5504,-3.5504,-3.5504,-3.5504,-3.5504,-3.5504,-3.492,-3.4076,-3.3336,-3.2095,-3.037,-2.7898,-2.6942,-2.6735,-2.6784,-2.669,-2.6634,-2.6634,-2.6634,-2.6634,-2.6634,-2.6634,-2.6622,-2.6546,-2.6533,-2.6533,-2.6533,-2.6892,-2.7281,-2.7281,-2.7281,-2.7105,-2.6553,-2.6533,-2.6533,-2.6533,-2.6458,-2.6445,-2.6521,-2.5209,-2.4268,-2.4117,-2.4104,-2.3841,-2.3188,-2.3078,-2.2823,-2.2125,-2.0749,-1.9827,-1.9475,-1.8117,-1.7578,-1.8008,-1.7959,-1.7959,-1.8008,-1.8008,-1.8008,-1.8008,-1.8008,-1.8008,-4.3071,-4.3094,-4.2164,-4.1086,-3.8849,-3.5853,-3.1744,-2.8936,-2.644,-2.3575,-2.2735,-2.2462,-2.2428,-2.4857,-2.8245,-3.2418,-3.5413,-3.8942,-4.3992,-4.5085,-4.5629,-4.6248,-4.7241,-4.7644,-4.6998,-4.7547,-4.7751,-4.7281,-4.6742,-4.6438,-4.6443,-4.6096,-4.6227,-4.6972,-4.6853,-4.6853,-4.6989,-4.6397,-4.6024,-4.5872,-4.435,-4.3415,-4.2947,-4.099,-3.9907,-3.9389,-3.744,-3.6554,-3.6384,-3.5718,-3.5504,-3.5504,-3.5504,-3.5504,-3.5504,-3.5504,-3.5359,-3.5044,-3.3667,-3.2958,-3.2401,-3.0622,-2.9022,-2.7864,-2.8196,-2.779,-2.7143,-2.7143,-2.7143,-2.7143,-2.7143,-2.7143,-2.703,-2.6634,-2.6533,-2.6533,-2.6533,-2.6892,-2.7281,-2.7281,-2.7281,-2.7105,-2.6553,-2.6533,-2.6533,-2.6533,-2.605,-2.5912,-2.6471,-2.6282,-2.5686,-2.477,-2.4682,-2.4255,-2.3165,-2.3078,-2.3065,-2.2884,-2.1397,-2.0437,-2.0398,-1.8434,-1.7578,-1.8008,-1.7666,-1.7666,-1.8008,-1.8008,-1.8008,-1.8008,-1.8008,-1.8008,-4.3943,-4.4261,-4.3618,-4.193,-3.8827,-3.5174,-3.1323,-2.7911,-2.4971,-2.2912,-2.2375,-2.2332,-2.2405,-2.4943,-2.7918,-3.0546,-3.3468,-3.7167,-4.2174,-4.3152,-4.412,-4.614,-4.6932,-4.7093,-4.6507,-4.7205,-4.7384,-4.6676,-4.6434,-4.6351,-4.6505,-4.627,-4.5998,-4.5693,-4.638,-4.6616,-4.6227,-4.5483,-4.5128,-4.5111,-4.3555,-4.2642,-4.2236,-4.1174,-4.023,-3.9419,-3.8262,-3.735,-3.6554,-3.6228,-3.5831,-3.5504,-3.5504,-3.5504,-3.5504,-3.5504,-3.5504,-3.5335,-3.4218,-3.3784,-3.3413,-3.2383,-3.0527,-2.8879,-2.9295,-2.8942,-2.8376,-2.7996,-2.8208,-2.8235,-2.7485,-2.7281,-2.7143,-2.6659,-2.6678,-2.6967,-2.7256,-2.7745,-2.8134,-2.8134,-2.8134,-2.7871,-2.703,-2.6892,-2.6791,-2.6571,-2.6226,-2.6151,-2.6496,-2.6533,-2.6138,-2.531,-2.4983,-2.4494,-2.3653,-2.3314,-2.3078,-2.3078,-2.1542,-2.059,-2.059,-1.8715,-1.7895,-1.8253,-1.7886,-1.7886,-1.8243,-1.8093,-1.8008,-1.8008,-1.8008,-1.8008,-4.409,-4.4974,-4.478,-4.2231,-3.8619,-3.4715,-3.0941,-2.7136,-2.3973,-2.2449,-2.214,-2.2237,-2.2528,-2.4749,-2.7126,-2.8868,-3.1412,-3.4884,-3.9775,-4.0889,-4.2332,-4.538,-4.6121,-4.6205,-4.5681,-4.6379,-4.6581,-4.5957,-4.6054,-4.6072,-4.5958,-4.6117,-4.5743,-4.4831,-4.5801,-4.6082,-4.566,-4.4744,-4.4333,-4.4316,-4.2777,-4.1762,-4.1204,-4.1035,-4.0285,-3.9139,-3.8799,-3.8003,-3.6843,-3.6508,-3.5991,-3.5504,-3.5504,-3.5504,-3.5504,-3.5504,-3.5504,-3.5429,-3.4891,-3.4543,-3.424,-3.3775,-3.2078,-3.0194,-3.0333,-3.0215,-2.9811,-2.9138,-2.928,-2.939,-2.7868,-2.7457,-2.7318,-2.6766,-2.6967,-2.7469,-2.8134,-2.8624,-2.8925,-2.8925,-2.8925,-2.8574,-2.7469,-2.7381,-2.7231,-2.6634,-2.6735,-2.6766,-2.6722,-2.6697,-2.6465,-2.6,-2.5372,-2.477,-2.4217,-2.3753,-2.3452,-2.3326,-2.1906,-2.1024,-2.0846,-1.9365,-1.868,-1.8956,-1.867,-1.868,-1.8945,-1.868,-1.8596,-1.8529,-1.8405,-1.8269,-4.4211,-4.5215,-4.4819,-4.0895,-3.7972,-3.4747,-2.9798,-2.6461,-2.3847,-2.1951,-2.1624,-2.1749,-2.2086,-2.3224,-2.5322,-2.8948,-3.0518,-3.3104,-3.8346,-4.031,-4.1778,-4.3378,-4.526,-4.5982,-4.4909,-4.5535,-4.5975,-4.5902,-4.592,-4.5513,-4.4553,-4.469,-4.4975,-4.5407,-4.5043,-4.5039,-4.5511,-4.4187,-4.3521,-4.3504,-4.2016,-4.1271,-4.1187,-4.0493,-4.0138,-3.9901,-3.8486,-3.7806,-3.7573,-3.6196,-3.5554,-3.5504,-3.5504,-3.5504,-3.5504,-3.5504,-3.5504,-3.5489,-3.5429,-3.5379,-3.5344,-3.5299,-3.3926,-3.2246,-3.1778,-3.164,-3.1405,-3.0477,-3.0243,-2.9935,-2.8451,-2.8034,-2.7896,-2.7344,-2.7243,-2.757,-2.8624,-2.89,-2.8925,-2.8925,-2.8925,-2.8574,-2.7469,-2.7695,-2.767,-2.6615,-2.7318,-2.777,-2.7268,-2.7205,-2.718,-2.713,-2.6163,-2.531,-2.4795,-2.4695,-2.4456,-2.3954,-2.305,-2.2313,-2.1776,-2.0846,-2.0375,-2.0395,-2.0375,-2.0375,-2.0395,-2.0375,-2.0333,-2.0333,-1.9562,-1.9177,-4.3046,-4.4124,-4.3722,-4.1089,-3.7489,-3.3646,-3.0037,-2.6337,-2.3319,-2.2111,-2.1735,-2.1782,-2.2344,-2.3587,-2.5297,-2.7705,-2.8849,-3.0949,-3.5291,-3.652,-3.8193,-4.1429,-4.2964,-4.3815,-4.397,-4.4709,-4.5186,-4.5186,-4.4837,-4.4462,-4.4014,-4.4178,-4.4225,-4.4092,-4.3872,-4.3682,-4.356,-4.2929,-4.2415,-4.2066,-4.1018,-4.0527,-4.051,-4.0206,-4.007,-4.007,-3.9454,-3.8941,-3.8358,-3.7354,-3.6585,-3.6117,-3.5668,-3.5504,-3.5504,-3.5504,-3.5504,-3.5504,-3.5504,-3.5504,-3.5424,-3.4758,-3.385,-3.2919,-3.2847,-3.2982,-3.272,-3.1034,-3.1081,-3.1119,-2.8749,-2.7858,-2.7645,-2.7758,-2.8034,-2.8398,-2.8837,-2.9202,-2.9453,-2.9453,-2.9453,-2.9202,-2.8411,-2.8461,-2.8335,-2.757,-2.7821,-2.8021,-2.7808,-2.777,-2.7657,-2.7318,-2.6276,-2.5511,-2.531,-2.5008,-2.4732,-2.4506,-2.3369,-2.2631,-2.2416,-2.1197,-2.0699,-2.0827,-2.0687,-2.0687,-2.0827,-2.0699,-2.059,-2.059,-2.0268,-2.0074,-4.058,-4.188,-4.1878,-4.0221,-3.6482,-3.2561,-3.0047,-2.6225,-2.3017,-2.2385,-2.1907,-2.1856,-2.2704,-2.383,-2.5218,-2.6959,-2.792,-2.972,-3.3385,-3.4295,-3.5943,-3.9618,-4.0796,-4.1705,-4.2684,-4.3736,-4.436,-4.436,-4.3962,-4.3717,-4.3717,-4.3686,-4.3696,-4.3717,-4.3371,-4.3093,-4.2842,-4.2171,-4.1629,-4.1187,-4.0443,-4.007,-4.007,-4.007,-4.007,-4.007,-3.985,-3.9437,-3.8854,-3.7847,-3.7084,-3.6554,-3.5782,-3.5504,-3.5504,-3.5504,-3.5504,-3.5504,-3.5504,-3.5504,-3.5359,-3.4691,-3.417,-3.3885,-3.3776,-3.3809,-3.3378,-3.1667,-3.133,-3.1023,-2.8893,-2.7946,-2.7657,-2.8222,-2.8649,-2.8976,-2.9151,-2.9503,-2.9792,-2.9792,-2.9792,-2.9616,-2.9026,-2.9063,-2.8938,-2.821,-2.8398,-2.8549,-2.8373,-2.8348,-2.8197,-2.7808,-2.6766,-2.6025,-2.5862,-2.5523,-2.5234,-2.5059,-2.4128,-2.345,-2.3071,-2.2256,-2.1891,-2.1873,-2.1726,-2.1726,-2.1861,-2.151,-2.1353,-2.1353,-2.1101,-2.0719,-3.6601,-3.8327,-3.9248,-3.7643,-3.4741,-3.1712,-2.9521,-2.6002,-2.3084,-2.2696,-2.2053,-2.193,-2.2984,-2.3515,-2.4627,-2.7181,-2.811,-2.9756,-3.3385,-3.4832,-3.6189,-3.8093,-3.9086,-4.0026,-4.1029,-4.2561,-4.3497,-4.3497,-4.3497,-4.3497,-4.3497,-4.2995,-4.3394,-4.4926,-4.381,-4.3498,-4.4067,-4.2154,-4.1204,-4.1187,-4.0443,-4.007,-4.007,-4.007,-4.007,-4.007,-3.9262,-3.8908,-3.8799,-3.7247,-3.6615,-3.6554,-3.5782,-3.5504,-3.5504,-3.5504,-3.5504,-3.5504,-3.5504,-3.5504,-3.5504,-3.5504,-3.5504,-3.537,-3.4681,-3.3918,-3.3154,-3.2709,-3.0831,-2.8925,-2.8925,-2.8511,-2.8235,-2.8787,-2.8925,-2.9089,-2.9666,-2.9792,-2.9792,-2.9792,-2.9792,-2.9616,-2.9026,-2.9402,-2.9402,-2.8273,-2.9063,-2.9566,-2.8988,-2.8925,-2.8925,-2.8913,-2.7921,-2.7042,-2.6571,-2.6508,-2.6201,-2.5624,-2.5586,-2.5096,-2.4042,-2.4455,-2.448,-2.3991,-2.3991,-2.3991,-2.3979,-2.3353,-2.3078,-2.3065,-2.2261,-2.0974,-3.3799,-3.4815,-3.4998,-3.4077,-3.1783,-2.9363,-2.7725,-2.5195,-2.315,-2.2982,-2.2398,-2.2259,-2.335,-2.4425,-2.5742,-2.7522,-2.8776,-3.0208,-3.2133,-3.3957,-3.5964,-3.8306,-4.0948,-4.2646,-4.2739,-4.3185,-4.3497,-4.3497,-4.3497,-4.3497,-4.3497,-4.3339,-4.3287,-4.3415,-4.3054,-4.2725,-4.2536,-4.1911,-4.1377,-4.0968,-4.0406,-4.007,-4.007,-4.007,-4.007,-4.007,-3.9833,-3.9731,-3.961,-3.8076,-3.7397,-3.7279,-3.6022,-3.5504,-3.5504,-3.5504,-3.5504,-3.5504,-3.5504,-3.5504,-3.5504,-3.5504,-3.446,-3.3416,-3.4256,-3.4162,-3.3482,-3.2051,-3.0342,-2.9026,-2.9415,-2.9101,-2.8812,-2.9377,-2.9515,-2.9566,-2.9754,-2.9792,-2.9792,-2.9792,-2.9792,-2.9729,-2.9553,-2.9666,-2.9679,-2.9315,-2.9566,-2.9729,-2.9541,-2.9515,-2.9365,-2.8976,-2.8285,-2.762,-2.7067,-2.6747,-2.6445,-2.6201,-2.5812,-2.5448,-2.5109,-2.4921,-2.4745,-2.4569,-2.4556,-2.4381,-2.4004,-2.3816,-2.3527,-2.3065,-2.2823,-2.1803,-3.0655,-3.1469,-3.163,-3.1378,-2.9701,-2.784,-2.6834,-2.494,-2.3378,-2.3315,-2.2877,-2.2764,-2.3636,-2.4532,-2.5717,-2.7505,-2.8514,-2.9817,-3.1866,-3.3868,-3.615,-3.8899,-4.1531,-4.3014,-4.282,-4.3214,-4.3497,-4.3497,-4.3497,-4.3497,-4.3497,-4.3497,-4.3339,-4.3014,-4.2826,-4.2519,-4.2162,-4.1664,-4.1268,-4.0903,-4.0368,-4.007,-4.007,-4.007,-4.007,-4.007,-4.007,-4.007,0.0,-3.8428,-3.7794,-3.7642,-3.5845,-3.5281,-3.5474,-3.522,-3.528,-3.5504,-3.5504,-3.5504,-3.5459,-3.519,-3.4199,-3.3226,-3.408,-3.3752,-3.2876,-3.1965,-3.0498,-2.934,-2.9691,-2.9528,-2.934,-2.9704,-2.9792,-2.9792,-2.9792,-2.9792,-2.9792,-2.9792,-2.9792,-2.9792,-2.9792,-2.9792,-2.9792,-2.9792,-2.9792,-2.9792,-2.9792,-2.9792,-2.9654,-2.9289,-2.875,-2.8197,-2.7645,-2.6892,-2.6533,-2.6533,-2.6126,-2.5824,-2.5598,-2.5498,-2.5335,-2.5121,-2.5109,-2.4845,-2.4305,-2.3879,-2.3489,-2.3078,-2.3078,-2.2372,0.0,-2.8417,-2.9004,-2.9289,-2.8253,-2.7024,-2.6576,-2.5056,0.0,-2.3759,-2.3508,-2.3468,-2.4042,-2.4211,-2.5018,-2.7309,-2.7746,-2.8996,-3.2417,-3.4622,-3.6919,-3.9814,-4.1154,-4.1773,-4.1605,-4.2765,-4.3513,-4.3479,-4.3497,-4.3497,-4.3497,-4.3497,-4.3497,-4.3497,-4.3014,-4.275,-4.275,-4.1568,-4.0909,-4.0863,-4.028,-3.9968,-3.9918,-3.9918,-3.9918,-3.9918,-3.9918,-3.9918,-3.9817,-3.8347,-3.7682,-3.7419,-3.5341,-3.4851,-3.528,-3.4637,-3.4816,-3.537,-3.537,-3.537,-3.5265,-3.4622,-3.4412,-3.439,-3.4118,-3.2942,-3.1889,-3.2441,-3.1267,-2.9934,-2.9934,-2.9869,-2.9792,-2.9792,-2.9792,-2.9792,-2.9792,-2.9792,-2.9792,-2.9792,-2.9792,-2.9792,-2.9792,-2.9792,-2.9792,-2.9792,-2.9792,-2.9792,-2.9792,-2.9792,-2.9792,-2.9792,-2.9239,-2.8662,-2.8147,-2.713,-2.6571,-2.6533,-2.6533,-2.6214,-2.5686,-2.6176,-2.6214,-2.5661,-2.5611,-2.5335,-2.482,-2.3728,-2.3115,-2.3078,-2.3078,-2.2689,-2.6069,0.0,-2.6285,-2.6203,-2.5855,-2.5487,0.0,-2.4679,-2.4225,-2.4503,-2.4278,-2.4356,-2.5354,-2.6201,-2.7139,-2.833,-2.9213,-3.0489,-3.2602,-3.6603,-3.9653,-4.0526,-4.2791,-4.3561,-4.1706,-4.2946,-4.3772,-4.3513,-4.3497,-4.3497,-4.3497,-4.3497,-4.3497,-4.3497,-4.3375,-4.3286,-4.3286,-4.1969,-4.1078,-4.0722,-3.9554,-3.8738,-3.8413,-3.8413,-3.8413,-3.8413,-3.8413,-3.8413,-3.8348,-3.7368,-3.6641,-3.6047,-3.4909,-3.4271,-3.3948,-3.3784,-3.3829,-3.3963,-3.3963,-3.3963,-3.3933,-3.3784,-3.3724,-3.3844,-3.4233,-3.3951,-3.3334,-3.2778,-3.1756,-3.0908,-3.0908,-3.0343,-2.9792,-2.9792,-2.9792,-2.9792,-2.9792,-2.9792,-2.9792,-2.9792,-2.9792,-2.9792,-2.9792,-2.9792,-2.9792,-2.9792,-2.9792,-2.9792,-2.9792,-2.9792,-2.9792,-2.9792,-2.89,-2.8247,-2.8109,-2.7482,-2.6917,-2.6559,-2.6533,-2.6471,-2.6264,-2.6389,-2.6402,-2.6264,-2.5824,-2.5335,-2.482,-2.413,-2.3565,-2.3078,-2.3078,-2.2689,-2.5512,-2.5769,-2.5984,-2.5785,-2.5716,-2.5638,-2.5444,-2.4936,-2.4577,-2.475,-2.4657,-2.4766,-2.5504,-2.6115,-2.6939,-2.8251,-2.9303,-3.1062,-3.4284,-3.7409,-3.997,-4.1642,-4.3052,-4.3707,-4.3215,-4.382,-4.4136,-4.3758,-4.3726,-4.3679,-4.3532,-4.3497,-4.3314,-4.2947,-4.2947,-4.313,-4.3497,-4.2105,-4.1261,-4.101,-3.9371,-3.8446,-3.8196,-3.8014,-3.7905,-3.7905,-3.7905,-3.7905,-3.7824,-3.7066,-3.6521,-3.6007,-3.4634,-3.4012,-3.3879,-3.3261,-3.3245,-3.3499,-3.3499,-3.3305,-3.3095,-3.3395,-3.3499,-3.3619,-3.4277,-3.4599,-3.4394,-3.2961,-3.1888,-3.1106,-3.0696,-3.0216,-2.9792,-2.9792,-2.9792,-2.9792,-2.9792,-2.9792,-2.9792,-2.9792,-2.9792,-2.9792,-2.9792,-2.9792,-2.9792,-2.9792,-2.9792,-2.9792,-2.9792,-2.9792,-2.9691,-2.9428,-2.885,-2.8285,-2.777,-2.7457,-2.7155,-2.6854,-2.6841,-2.6841,-2.6841,-2.6659,-2.6339,-2.6063,-2.5749,-2.5335,-2.482,-2.4268,-2.3642,-2.2935,-2.269,-2.2125,-2.5442,-2.6205,-2.688,-2.6435,-2.6417,-2.6417,-2.6073,-2.5425,-2.4886,-2.4903,-2.4911,-2.5023,-2.5379,-2.5543,-2.621,-2.8007,-2.9341,-3.1799,-3.6454,-3.7855,-3.9422,-4.2181,-4.2679,-4.3193,-4.4219,-4.4431,-4.4256,-4.3714,-4.3685,-4.3553,-4.3247,-4.3214,-4.2868,-4.2139,-4.2121,-4.2433,-4.313,-4.185,-4.1143,-4.1014,-3.9294,-3.8459,-3.8391,-3.7917,-3.7691,-3.7691,-3.7597,-3.7567,-3.7516,-3.6857,-3.653,-3.6188,-3.4457,-3.3931,-3.4083,-3.294,-3.2826,-3.32,-3.32,-3.2826,-3.2482,-3.3125,-3.335,-3.3484,-3.4247,-3.4891,-3.4999,-3.3296,-3.2177,-3.118,-3.0279,-2.9934,-2.9792,-2.9792,-2.9792,-2.9792,-2.9792,-2.9792,-2.9792,-2.9792,-2.9792,-2.9792,-2.9792,-2.9792,-2.9792,-2.9792,-2.9792,-2.9792,-2.9792,-2.9716,-2.9503,-2.9101,-2.89,-2.8423,-2.7494,-2.7494,-2.7457,-2.7293,-2.7281,-2.7281,-2.7281,-2.6753,-2.6226,-2.5737,-2.5724,-2.5473,-2.4946,-2.4393,-2.3677,-2.2907,-2.219,-2.1491,-2.5574,-2.6707,-2.7504,-2.5898,-2.6032,-2.64,-2.5675,-2.5407,-2.5317,-2.5379,-2.5382,-2.5621,-2.6409,-2.7159,-2.7982,-2.896,-3.1695,-3.4722,-3.7598,-3.9317,-4.0192,-3.9923,-4.2321,-4.3157,-4.0977,-4.2688,-4.3464,-4.2403,-4.2321,-4.2181,-4.1917,-4.1887,-4.1699,-4.1295,-4.1295,-4.135,-4.1479,-4.0588,-3.9881,-3.9445,-3.8474,-3.7809,-3.7411,-3.6887,-3.6611,-3.6611,-3.614,-3.5977,-3.596,-3.5842,-3.5442,-3.4889,-3.4561,-3.3813,-3.2881,-3.2678,-3.2277,-3.1839,-3.1839,-3.1764,-3.1735,-3.2452,-3.2662,-3.2886,-3.4098,-3.4547,-3.4535,-3.3951,-3.3101,-3.2177,-3.1254,-3.0419,-2.9792,-2.9792,-2.9792,-2.9792,-2.9792,-2.9792,-2.9792,-2.9792,-2.9792,-2.9792,-2.9792,-2.9792,-2.9792,-2.9792,-2.9792,-2.9792,-2.9792,-2.9365,-2.9214,-2.9616,-2.88,-2.816,-2.7996,-2.8411,-2.8285,-2.7344,-2.7281,-2.7281,-2.7281,-2.6753,-2.6483,-2.6327,-2.6327,-2.605,-2.5473,-2.4958,-2.4392,-2.3779,-2.2515,-2.1815,-2.5545,-2.6437,-2.7136,-2.6234,-2.6704,-2.7181,-2.6307,-2.5761,-2.5444,-2.5445,-2.5505,-2.5684,-2.6085,-2.69,-2.8393,-3.1089,-3.3626,-3.5972,-3.8027,-3.8908,-3.9538,-4.0005,-4.1339,-4.211,-4.172,-4.2718,-4.31,-4.2325,-4.2265,-4.2124,-4.1833,-4.1825,-4.1538,-4.0943,-4.0741,-4.0244,-3.9375,-3.8865,-3.8907,-3.9516,-3.8427,-3.779,-3.7542,-3.6764,-3.6374,-3.6374,-3.581,-3.5622,-3.5622,-3.5622,-3.5407,-3.5098,-3.4736,-3.4235,-3.3582,-3.2895,-3.212,-3.1482,-3.1482,-3.1482,-3.1526,-3.1884,-3.2213,-3.2691,-3.3649,-3.4188,-3.4401,-3.4057,-3.3671,-3.3031,-3.1609,-3.0908,-3.0419,-2.9934,-2.9792,-2.9792,-2.9792,-2.9792,-2.9792,-2.9792,-2.9792,-2.9792,-2.9792,-2.9792,-2.9792,-2.9792,-2.9792,-2.9792,-2.9792,-2.9566,-2.9264,-2.8913,-2.8411,-2.7871,-2.7268,-2.7444,-2.7632,-2.772,-2.7444,-2.7155,-2.6854,-2.6659,-2.6382,-2.6,-2.6302,-2.6038,-2.5172,-2.4946,-2.4263,-2.325,-2.1863,-2.0974,-2.5496,-2.6075,-2.6618,-2.6352,-2.7039,-2.7672,-2.7351,-2.6666,-2.6132,-2.6289,-2.6402,-2.6367,-2.5978,-2.6831,-2.8887,-3.2773,-3.4993,-3.6813,-3.8463,-3.8779,-3.9316,-4.0548,-4.0783,-4.1281,-4.2374,-4.2489,-4.2288,-4.1801,-4.1571,-4.1298,-4.0972,-4.0948,-4.0641,-3.9948,-3.9631,-3.8867,-3.7627,-3.7349,-3.7826,-3.9038,-3.8027,-3.7537,-3.7504,-3.6587,-3.6182,-3.6142,-3.5522,-3.5256,-3.5273,-3.5328,-3.525,-3.5087,-3.4918,-3.464,-3.4235,-3.3039,-3.212,-3.1482,-3.1482,-3.1482,-3.1482,-3.1482,-3.1884,-3.2407,-3.3066,-3.3619,-3.4017,-3.3901,-3.3978,-3.3704,-3.1992,-3.1389,-3.1044,-3.0279,-3.0139,-3.0075,-2.9869,-2.9792,-2.9792,-2.9792,-2.9792,-2.9792,-2.9792,-2.9792,-2.9792,-2.9792,-2.9792,-2.9792,-2.9792,-2.9679,-2.9252,-2.8386,-2.8185,-2.7758,-2.6917,-2.6603,-2.6879,-2.7846,-2.7394,-2.6954,-2.6666,-2.6596,-2.6251,-2.5799,-2.6239,-2.5975,-2.5008,-2.4883,-2.4199,-2.2983,-2.1533,-2.0526,-2.5493,-2.6033,-2.6419,-2.5601,-2.6053,-2.7104,-2.8662,-2.8396,-2.8058,-2.8838,-2.9089,-2.8658,-2.7098,-2.8237,-3.0293,-3.2969,-3.5547,-3.7751,-3.938,-4.0285,-4.0779,-4.0718,-4.1408,-4.1564,-4.077,-4.0681,-4.0373,-3.9588,-3.8766,-3.8172,-3.7833,-3.7814,-3.7678,-3.7385,-3.71,-3.6912,-3.6801,-3.651,-3.6431,-3.656,-3.6457,-3.6439,-3.6391,-3.5824,-3.5562,-3.5529,-3.4591,-3.4202,-3.4231,-3.45,-3.4184,-3.3711,-3.5036,-3.4752,-3.3582,-3.2895,-3.212,-3.1482,-3.1482,-3.1482,-3.1482,-3.1482,-3.1511,-3.1676,-3.2377,-3.2617,-3.2796,-3.3378,-3.4006,-3.4124,-3.2807,-3.1815,-3.118,-3.1106,-3.1106,-3.0833,-3.0011,-2.9792,-2.9792,-2.9792,-2.9792,-2.9792,-2.9792,-2.9792,-2.9792,-2.9792,-2.9792,-2.9792,-2.9792,-2.9327,-2.8963,-2.8875,-2.8411,-2.8072,-2.7996,-2.7055,-2.6716,-2.7306,-2.6816,-2.6728,-2.7205,-2.6728,-2.6508,-2.6471,-2.6508,-2.6151,-2.5536,-2.5059,-2.4467,-2.3854,-2.2452,-2.1753,-2.5472,-2.5638,-2.5851,-2.6063,-2.5947,-2.6246,-2.7991,-2.8579,-2.8692,-2.8472,-2.9776,-3.0433,-2.8762,-2.9042,-3.0386,-3.2988,-3.5137,-3.7089,-3.8784,-3.9237,-3.9355,-3.9273,-3.9442,-3.9429,-3.9039,-3.8965,-3.8815,-3.8507,-3.818,-3.7939,-3.7808,-3.7808,-3.7775,-3.7655,-3.6862,-3.6128,-3.545,-3.4654,-3.3899,-3.3275,-3.5312,-3.6303,-3.6285,-3.5724,-3.5497,-3.5432,-3.4508,-3.4086,-3.4103,-3.3887,-3.366,-3.3457,-3.4015,-3.3694,-3.2908,-3.2602,-3.2106,-3.1482,-3.1482,-3.1482,-3.1482,-3.1482,-3.1482,-3.1601,-3.2317,-3.2512,-3.2647,-3.3305,-3.3572,-3.3522,-3.3058,-3.2904,-3.282,-3.2249,-3.1609,-3.1106,-3.0771,-3.0216,-2.9792,-2.9792,-2.9792,-2.9792,-2.9792,-2.9792,-2.9792,-2.9792,-2.949,-2.9252,-2.9252,-2.8762,-2.8285,-2.7946,-2.7419,-2.708,-2.708,-2.6703,-2.6402,-2.6239,-2.6377,-2.6622,-2.6766,-2.6634,-2.6289,-2.5937,-2.5925,-2.5649,-2.5109,-2.4569,-2.4205,-2.3991,-2.2577,-2.1877,-2.5472,-2.5406,-2.5437,-2.6043,-2.5947,-2.6236,-2.8236,-2.9147,-2.9718,-3.0202,-3.0917,-3.1118,-2.9995,-2.9616,-3.0225,-3.2573,-3.4646,-3.6483,-3.7988,-3.8353,-3.8453,-3.8417,-3.8293,-3.819,-3.8161,-3.7854,-3.7533,-3.7263,-3.6958,-3.668,-3.6392,-3.6392,-3.6392,-3.6392,-3.5548,-3.4751,-3.3999,-3.3072,-3.2256,-3.1549,-3.3713,-3.4743,-3.4761,-3.4641,-3.4582,-3.4552,-3.3791,-3.349,-3.3587,-3.3362,-3.3294,-3.3389,-3.3136,-3.279,-3.2434,-3.2271,-3.1852,-3.1464,-3.1252,-3.1287,-3.1482,-3.1482,-3.1482,-3.1556,-3.2078,-3.2198,-3.2302,-3.2751,-3.2904,-3.2931,-3.2931,-3.3477,-3.3808,-3.3171,-3.2522,-3.2033,-3.1669,-3.1119,-3.057,-3.0279,-3.0203,-3.0139,-2.9869,-2.9792,-2.9729,-2.9553,-2.9176,-2.8863,-2.8687,-2.8335,-2.7896,-2.7344,-2.6791,-2.6533,-2.6533,-2.6533,-2.6289,-2.5887,-2.6063,-2.6189,-2.6189,-2.6189,-2.6088,-2.5875,-2.5686,-2.5335,-2.482,-2.4268,-2.3779,-2.3331,-2.2368,-2.1753,-2.5493,-2.5406,-2.5303,-2.5303,-2.5967,-2.7274,-2.9821,-3.0398,-3.1379,-3.4801,-3.2833,-3.0527,-3.0607,-2.9958,-2.9976,-3.1705,-3.4173,-3.6196,-3.7128,-3.8008,-3.8494,-3.8362,-3.8358,-3.8332,-3.8264,-3.7405,-3.6521,-3.5649,-3.4704,-3.3795,-3.2949,-3.2891,-3.2891,-3.2891,-3.2622,-3.2476,-3.2457,-3.2012,-3.1756,-3.1756,-3.1494,-3.1384,-3.1421,-3.2228,-3.2596,-3.257,-3.2154,-3.2187,-3.2519,-3.284,-3.3144,-3.3322,-3.256,-3.2319,-3.2315,-3.1709,-3.1457,-3.1327,-3.0699,-3.0941,-3.1524,-3.1467,-3.1467,-3.1482,-3.1482,-3.1482,-3.1482,-3.1482,-3.2003,-3.2512,-3.2512,-3.3211,-3.4013,-3.4013,-3.4013,-3.3725,-3.2792,-3.2579,-3.2294,-3.1375,-3.1167,-3.0882,-2.9921,-2.9779,-2.9578,-2.9001,-2.8913,-2.8712,-2.816,-2.8084,-2.7883,-2.7331,-2.6791,-2.6533,-2.6533,-2.6521,-2.6521,-2.6508,-2.59,-2.5586,-2.5598,-2.5586,-2.585,-2.6496,-2.5875,-2.5322,-2.4808,-2.4255,-2.3244,-2.1889,-2.1877,-2.1428,-2.5483,-2.5406,-2.5437,-2.6063,-2.6871,-2.8179,-3.0737,-3.1314,-3.2122,-3.493,-3.28,-3.0634,-3.1331,-3.0746,-3.0353,-3.092,-3.2187,-3.3418,-3.4359,-3.4715,-3.4879,-3.4881,-3.4842,-3.4796,-3.4779,-3.449,-3.4187,-3.3934,-3.3577,-3.3235,-3.2984,-3.2933,-3.2641,-3.2064,-3.1367,-3.0655,-2.9899,-2.914,-2.8928,-2.9204,-2.9675,-3.0429,-3.1403,-3.1641,-3.1751,-3.1726,-3.1338,-3.1211,-3.1315,-3.1323,-3.1528,-3.1833,-3.1596,-3.1566,-3.1605,-3.141,-3.1388,-3.1313,-3.0732,-3.0914,-3.1357,-3.0904,-3.1135,-3.1482,-3.1482,-3.1482,-3.1482,-3.1482,-3.2003,-3.2512,-3.2512,-3.3092,-3.3661,-3.3661,-3.3106,-3.2571,-3.2293,-3.1676,-3.1046,-3.0566,-3.0171,-2.9751,-2.9252,-2.8863,-2.8549,-2.8373,-2.8021,-2.757,-2.7017,-2.6942,-2.6879,-2.6716,-2.6553,-2.6533,-2.6533,-2.6088,-2.5699,-2.5335,-2.5146,-2.5222,-2.5573,-2.5247,-2.4946,-2.4732,-2.4556,-2.4406,-2.4243,-2.3665,-2.3059,-2.2476,-2.2056,-2.1428,-2.5001,-2.493,-2.5111,-2.6333,-2.7527,-2.9044,-3.1602,-3.2968,-3.4026,-3.5257,-3.3314,-3.1569,-3.2138,-3.0974,-3.0181,-3.0955,-3.1513,-3.2195,-3.3126,-3.3285,-3.3302,-3.3354,-3.3357,-3.3346,-3.3346,-3.3286,-3.3092,-3.2747,-3.2628,-3.2255,-3.1568,-3.1468,-3.1047,-3.0257,-2.9682,-2.9094,-2.846,-2.8153,-2.7964,-2.786,-2.8615,-2.9167,-2.9654,-3.0515,-3.0907,-3.0919,-3.0849,-3.0697,-3.054,-3.0276,-3.0413,-3.0768,-3.0768,-3.0952,-3.1224,-3.0995,-3.1087,-3.1275,-3.0653,-3.1083,-3.1779,-3.1427,-3.1574,-3.1857,-3.1612,-3.1319,-3.1051,-3.0803,-3.1046,-3.1345,-3.1345,-3.1644,-3.2198,-3.3245,-3.3084,-3.2679,-3.2679,-3.1947,-3.111,-3.0521,-2.99,-2.9229,-2.8684,-2.8323,-2.8034,-2.7808,-2.7306,-2.6841,-2.6571,-2.6533,-2.6533,-2.6533,-2.6533,-2.6433,-2.6138,-2.5799,-2.5372,-2.4858,-2.4619,-2.4644,-2.4946,-2.487,-2.4757,-2.4632,-2.4217,-2.4004,-2.4004,-2.3414,-2.2862,-2.2341,-2.1706,-2.091,-2.4397,-2.4255,-2.454,-2.6354,-2.8087,-2.9948,-3.2352,-3.4699,-3.6161,-3.5411,-3.4007,-3.2872,-3.2795,-3.0891,-2.9811,-3.1322,-3.1553,-3.1829,-3.2623,-3.2771,-3.2862,-3.2943,-3.3004,-3.3047,-3.3047,-3.2996,-3.2609,-3.1736,-3.1607,-3.0878,-2.9283,-2.9128,-2.8725,-2.7923,-2.7827,-2.7768,-2.768,-2.8224,-2.812,-2.7393,-2.7941,-2.7747,-2.6991,-2.899,-2.994,-3.0002,-3.0458,-3.046,-3.011,-2.965,-2.9677,-3.0027,-3.0006,-3.0412,-3.0948,-3.0443,-3.0665,-3.1095,-3.0564,-3.1294,-3.2366,-3.2332,-3.2364,-3.2328,-3.1732,-3.1089,-3.0454,-2.9872,-2.9672,-2.9687,-2.9633,-2.9579,-3.0178,-3.2572,-3.3185,-3.3245,-3.3305,-3.2643,-3.179,-3.0901,-2.9942,-2.9109,-2.8286,-2.8056,-2.7783,-2.7422,-2.6798,-2.6445,-2.6514,-2.6408,-2.6382,-2.6382,-2.6382,-2.6101,-2.5573,-2.5473,-2.5247,-2.477,-2.428,-2.4004,-2.4004,-2.4431,-2.4895,-2.536,-2.4418,-2.3916,-2.3916,-2.3389,-2.2702,-2.1877,-2.1101,-2.0204,-2.5068,-2.472,-2.4749,-2.7065,-2.9413,-3.1448,-3.2622,-3.3314,-3.368,-3.3487,-3.316,-3.2718,-3.2064,-3.1506,-3.0825,-2.985,-2.9687,-2.9554,-2.9164,-2.9187,-2.9483,-3.0228,-3.0387,-3.043,-3.043,-3.0409,-3.0037,-2.9159,-2.9021,-2.8821,-2.845,-2.8373,-2.7938,-2.7083,-2.7045,-2.6682,-2.5948,-2.6078,-2.6245,-2.6485,-2.6616,-2.6843,-2.7148,-2.7456,-2.7869,-2.8356,-2.907,-2.9522,-2.9689,-2.9278,-2.9301,-2.9592,-2.934,-2.9313,-2.9533,-2.9993,-3.0219,-3.0359,-3.0342,-3.0882,-3.1466,-3.1004,-3.1182,-3.1629,-3.1482,-3.1337,-3.1063,-3.049,-3.0299,-3.021,-2.9726,-2.9579,-2.9729,-3.0298,-3.0791,-3.13,-3.1839,-3.1322,-3.0554,-3.0141,-2.8999,-2.8183,-2.8412,-2.7544,-2.7031,-2.7559,-2.6598,-2.6041,-2.6752,-2.587,-2.5172,-2.5172,-2.5172,-2.5121,-2.4996,-2.4594,-2.4293,-2.418,-2.4067,-2.4004,-2.4004,-2.3678,-2.3552,-2.3665,-2.3439,-2.3265,-2.3314,-2.3128,-2.2702,-2.1877,-2.169,-2.0782,-2.4388,-2.4323,-2.4841,-2.7331,-2.9553,-3.1337,-3.2134,-3.2006,-3.1698,-3.1698,-3.2025,-3.2199,-3.1775,-3.1371,-3.0641,-2.9313,-2.9102,-2.8827,-2.8049,-2.8005,-2.8248,-2.8766,-2.8889,-2.8943,-2.8965,-2.8984,-2.8789,-2.832,-2.8278,-2.8078,-2.7648,-2.7557,-2.7121,-2.6244,-2.6199,-2.5935,-2.5447,-2.5834,-2.5942,-2.581,-2.6217,-2.6308,-2.6157,-2.6669,-2.7004,-2.7255,-2.7677,-2.7856,-2.7875,-2.7885,-2.8097,-2.8385,-2.8405,-2.8653,-2.9025,-2.9414,-2.9803,-3.0121,-3.0185,-3.0899,-3.1741,-3.1407,-3.1522,-3.179,-3.1502,-3.1167,-3.0679,-2.9795,-2.9515,-2.9381,-2.8815,-2.8622,-2.8697,-2.9026,-2.9609,-3.0163,-3.0522,-2.9913,-2.9371,-2.9543,-2.8261,-2.7458,-2.8141,-2.7391,-2.6763,-2.6828,-2.6194,-2.5756,-2.5846,-2.5242,-2.482,-2.482,-2.482,-2.472,-2.4456,-2.4167,-2.3879,-2.3602,-2.359,-2.359,-2.359,-2.3301,-2.3263,-2.354,-2.3276,-2.3078,-2.3078,-2.3078,-2.2884,-2.2445,-2.1678,-2.0782,-2.3711,-2.4145,-2.5187,-2.7103,-2.8849,-3.0268,-3.0942,-3.0524,-3.0004,-3.0004,-3.0548,-3.1044,-3.1044,-3.0448,-2.9679,-2.8813,-2.8659,-2.8371,-2.7563,-2.7507,-2.7632,-2.7834,-2.7928,-2.7971,-2.8046,-2.8066,-2.8007,-2.7851,-2.7851,-2.7539,-2.6816,-2.6712,-2.6351,-2.5648,-2.5561,-2.5535,-2.5526,-2.6184,-2.6144,-2.5418,-2.6063,-2.5894,-2.5037,-2.6089,-2.6526,-2.6454,-2.656,-2.6407,-2.6152,-2.6595,-2.6922,-2.7151,-2.7555,-2.8081,-2.8602,-2.8738,-2.9178,-2.9736,-2.9871,-3.07,-3.1755,-3.1755,-3.1755,-3.1618,-3.1116,-3.0575,-2.9868,-2.8635,-2.8372,-2.8336,-2.7625,-2.7535,-2.7724,-2.8293,-2.8831,-2.9295,-2.9535,-2.8917,-2.8484,-2.9001,-2.7986,-2.7185,-2.7755,-2.7511,-2.7047,-2.6384,-2.6121,-2.5713,-2.5153,-2.4887,-2.4646,-2.4531,-2.4531,-2.4343,-2.3891,-2.3853,-2.364,-2.3103,-2.3078,-2.3078,-2.3078,-2.3078,-2.3364,-2.3841,-2.3376,-2.3078,-2.3078,-2.3078,-2.3078,-2.3078,-2.1667,-2.091,-2.4957,-2.5722,-2.6308,-2.6006,-2.7172,-2.8443,-2.8566,-2.8489,-2.8411,-2.8411,-2.8414,-2.8409,-2.8409,-2.8313,-2.7948,-2.7082,-2.6928,-2.664,-2.5774,-2.571,-2.6021,-2.6798,-2.6951,-2.7012,-2.7071,-2.7093,-2.6807,-2.6094,-2.6055,-2.5996,-2.5879,-2.5879,-2.58,-2.5683,-2.5683,-2.5657,-2.5595,-2.5687,-2.5639,-2.5406,-2.5446,-2.5318,-2.501,-2.5178,-2.5469,-2.5838,-2.6364,-2.6573,-2.6563,-2.6953,-2.6996,-2.681,-2.7209,-2.7209,-2.708,-2.7723,-2.8009,-2.823,-2.8907,-2.9299,-2.9451,-2.9451,-2.9451,-2.9431,-2.9323,-2.9315,-2.9083,-2.7827,-2.7947,-2.8244,-2.7052,-2.7141,-2.764,-2.7679,-2.782,-2.821,-2.9325,-2.8917,-2.8354,-2.844,-2.8268,-2.7907,-2.7216,-2.7706,-2.8083,-2.7968,-2.6926,-2.6188,-2.6188,-2.5114,-2.4118,-2.3412,-2.3303,-2.3265,-2.3263,-2.3251,-2.3165,-2.3078,-2.3078,-2.3078,-2.3078,-2.3078,-2.3115,-2.3251,-2.3115,-2.3078,-2.3078,-2.3078,-2.3078,-2.3065,-2.2884,-2.199,-2.4775,-2.4354,-2.404,-2.4668,-2.5719,-2.672,-2.7192,-2.7316,-2.7327,-2.7365,-2.6942,-2.6831,-2.7777,-2.7923,-2.7601,-2.6736,-2.6601,-2.6294,-2.5418,-2.534,-2.5498,-2.5917,-2.5997,-2.6051,-2.6112,-2.6155,-2.6017,-2.5676,-2.5683,-2.5703,-2.5703,-2.5703,-2.5703,-2.5703,-2.5703,-2.5683,-2.5659,-2.5629,-2.5539,-2.5394,-2.536,-2.5293,-2.5163,-2.5046,-2.5012,-2.5036,-2.5301,-2.5373,-2.5289,-2.5697,-2.5769,-2.5697,-2.6371,-2.6526,-2.6441,-2.6979,-2.7452,-2.784,-2.8213,-2.8619,-2.9011,-2.9011,-2.9011,-2.9011,-2.9011,-2.9029,-2.8838,-2.7623,-2.7572,-2.7543,-2.6331,-2.6258,-2.6467,-2.6467,-2.6467,-2.6632,-2.723,-2.7647,-2.7866,-2.7763,-2.8141,-2.8196,-2.7343,-2.7256,-2.7167,-2.6764,-2.5794,-2.4998,-2.459,-2.3755,-2.3127,-2.31,-2.2862,-2.2799,-2.3053,-2.3078,-2.3078,-2.3078,-2.3078,-2.3078,-2.3078,-2.3078,-2.3078,-2.3078,-2.3078,-2.3078,-2.3078,-2.3078,-2.2884,-2.2445,-2.1928,-2.129,-2.4238,-2.3209,-2.2508,-2.3559,-2.4634,-2.5533,-2.5995,-2.6246,-2.6419,-2.6459,-2.5954,-2.5886,-2.711,-2.7301,-2.7046,-2.637,-2.6274,-2.6043,-2.538,-2.5303,-2.5322,-2.5379,-2.5368,-2.5394,-2.5477,-2.5526,-2.5558,-2.5567,-2.5629,-2.5659,-2.5662,-2.5662,-2.5683,-2.5703,-2.5703,-2.5703,-2.5703,-2.5634,-2.5551,-2.5459,-2.5415,-2.5368,-2.5312,-2.5143,-2.4911,-2.462,-2.4526,-2.4393,-2.4244,-2.4729,-2.4883,-2.4908,-2.5975,-2.6278,-2.6161,-2.6666,-2.7148,-2.7537,-2.7537,-2.7909,-2.8399,-2.8399,-2.8399,-2.8399,-2.8399,-2.8446,-2.8273,-2.7257,-2.7022,-2.6839,-2.5818,-2.5573,-2.5615,-2.5615,-2.5615,-2.5659,-2.5824,-2.6632,-2.7348,-2.738,-2.7912,-2.8107,-2.7278,-2.6779,-2.6265,-2.5544,-2.4942,-2.4269,-2.3313,-2.284,-2.2629,-2.2686,-2.2472,-2.2472,-2.2887,-2.299,-2.3078,-2.3078,-2.3078,-2.3078,-2.3078,-2.3078,-2.3078,-2.3078,-2.3078,-2.3078,-2.3078,-2.2884,-2.2506,-2.1877,-2.0974,-2.0529,-2.3636,-2.3716,-2.3612,-2.2952,-2.4144,-2.5308,-2.4596,-2.5005,-2.5565,-2.557,-2.5533,-2.5506,-2.5523,-2.5526,-2.5495,-2.538,-2.536,-2.5341,-2.5303,-2.5303,-2.5313,-2.5293,-2.5313,-2.533,-2.5406,-2.5401,-2.5441,-2.5493,-2.5517,-2.5543,-2.5603,-2.5603,-2.5634,-2.5703,-2.5703,-2.5703,-2.5703,-2.5634,-2.5601,-2.5595,-2.5465,-2.5398,-2.5391,-2.5312,-2.5163,-2.4962,-2.4651,-2.4393,-2.4263,-2.5052,-2.5139,-2.4977,-2.6525,-2.6721,-2.6191,-2.6995,-2.7053,-2.6759,-2.6759,-2.6776,-2.681,-2.681,-2.681,-2.681,-2.681,-2.6916,-2.6874,-2.6237,-2.627,-2.6267,-2.5589,-2.5515,-2.5615,-2.5615,-2.5615,-2.5779,-2.6408,-2.6587,-2.6841,-2.7434,-2.7619,-2.7425,-2.6747,-2.6613,-2.6322,-2.5625,-2.5457,-2.4924,-2.3588,-2.3352,-2.2864,-2.1731,-2.202,-2.2322,-2.2347,-2.2836,-2.3078,-2.3078,-2.3078,-2.3078,-2.3078,-2.3078,-2.3078,-2.3078,-2.3078,-2.3078,-2.3078,-2.231,-2.1939,-2.1877,-2.0974,-2.038,-2.3528,-2.319,-2.2871,-2.3145,-2.3389,-2.3655,-2.396,-2.4374,-2.4682,-2.473,-2.518,-2.5542,-2.5487,-2.5429,-2.5376,-2.5313,-2.5303,-2.5303,-2.5303,-2.5303,-2.5303,-2.5303,-2.5303,-2.5303,-2.533,-2.5368,-2.542,-2.5428,-2.5482,-2.5503,-2.552,-2.5543,-2.5551,-2.5567,-2.5607,-2.5659,-2.5703,-2.5682,-2.5637,-2.5601,-2.5517,-2.5441,-2.5398,-2.5321,-2.5203,-2.4979,-2.4872,-2.4663,-2.4393,-2.456,-2.4553,-2.4483,-2.5339,-2.5679,-2.5792,-2.6328,-2.6593,-2.6691,-2.6691,-2.6691,-2.6691,-2.6691,-2.6691,-2.6691,-2.6691,-2.6724,-2.6649,-2.6151,-2.6064,-2.6005,-2.5433,-2.503,-2.4722,-2.4402,-2.4328,-2.4507,-2.5181,-2.5659,-2.6033,-2.6273,-2.6647,-2.6871,-2.6632,-2.6214,-2.5777,-2.5483,-2.4336,-2.3326,-2.275,-2.2103,-2.1623,-2.1524,-2.1656,-2.1933,-2.2284,-2.2811,-2.3078,-2.3078,-2.3078,-2.3078,-2.3078,-2.3078,-2.3078,-2.3078,-2.3078,-2.3078,-2.3078,-2.2823,-2.2125,-2.1049,-2.1034,-2.0609,-2.3662,-2.315,-2.2689,-2.3266,-2.3332,-2.3301,-2.3409,-2.3975,-2.4408,-2.4258,-2.4939,-2.5421,-2.5092,-2.5017,-2.5077,-2.5307,-2.5313,-2.5303,-2.5303,-2.5303,-2.5303,-2.5303,-2.5303,-2.5303,-2.5303,-2.5339,-2.5363,-2.5363,-2.5413,-2.5447,-2.5471,-2.5471,-2.5498,-2.5539,-2.559,-2.5634,-2.5703,-2.5703,-2.5683,-2.5634,-2.5564,-2.5508,-2.5428,-2.5371,-2.5245,-2.5099,-2.5034,-2.4804,-2.4495,-2.4357,-2.4247,-2.4244,-2.4808,-2.5116,-2.5329,-2.5877,-2.6264,-2.6516,-2.6516,-2.6418,-2.6336,-2.6336,-2.615,-2.5998,-2.6251,-2.6336,-2.632,-2.6265,-2.612,-2.5924,-2.5577,-2.495,-2.422,-2.3453,-2.3445,-2.3729,-2.4178,-2.4807,-2.5345,-2.557,-2.5959,-2.6183,-2.5974,-2.5516,-2.5041,-2.451,-2.331,-2.2326,-2.1807,-2.1117,-2.0781,-2.0903,-2.1255,-2.1631,-2.2008,-2.2711,-2.3078,-2.3078,-2.3078,-2.3078,-2.3078,-2.3078,-2.3078,-2.3078,-2.3078,-2.3078,-2.3078,-2.2567,-2.1542,-2.015,-2.0126,-1.9986,0.0,0.0,0.0,-2.3254,-2.4005,-2.436,-2.2871,-2.3786,-2.4798,-2.4207,-2.4775,-2.5111,-2.4255,-2.4135,-2.4422,-2.5202,-2.528,-2.5236,-2.5264,-2.5264,-2.5264,-2.5284,-2.5303,-2.5303,-2.5284,-2.5303,-2.5303,-2.5303,-2.5303,-2.534,-2.5391,-2.5391,-2.5459,-2.5595,-2.5601,-2.5633,-2.5703,-2.5703,-2.5703,-2.5703,-2.5634,-2.5561,-2.5508,-2.5434,-2.5352,-2.5303,-2.5099,-2.4818,-2.451,-2.4512,-2.4375,-2.4281,-2.5072,-2.5142,-2.4905,-2.5685,-2.6003,-2.61,-2.61,-2.5857,-2.5575,-2.5575,-2.5084,-2.4611,-2.5355,-2.5575,-2.5727,-2.6454,-2.6333,-2.598,-2.5997,-2.5221,-2.4153,-2.2998,-2.3188,-2.358,-2.3595,-2.4118,-2.4716,-2.542,-2.557,-2.5375,-2.4686,-2.4582,-2.4141,-2.2825,-2.26,-2.2086,-2.0866,-2.0706,-2.0439,-1.9886,-2.0828,-2.1493,-2.1506,-2.251,-2.3078,-2.3078,-2.3078,-2.3078,-2.3078,-2.3078,-2.3078,-2.3078,-2.3065,-2.3005,-2.3005,-2.1416,-2.0204,-1.9299,-1.8405,-1.8477,-2.4135,0.0,0.0,0.0,0.0,0.0,-2.3094,-2.3593,-2.4076,-2.393,-2.4223,-2.4458,-2.4216,-2.3706,-2.3396,-2.3632,-2.3606,-2.3763,-2.435,-2.4428,-2.4591,-2.5023,-2.5214,-2.5234,-2.5099,-2.5214,-2.5303,-2.5303,-2.5303,-2.5303,-2.534,-2.534,-2.5371,-2.5453,-2.5493,-2.5558,-2.5633,-2.5682,-2.5703,-2.5703,-2.5634,-2.5561,-2.5508,-2.5428,-2.5363,-2.5303,-2.5234,-2.5077,-2.4845,-2.4588,-2.4375,-2.4226,-2.4447,-2.4629,-2.481,-2.5049,-2.5358,-2.5655,-2.5655,-2.5431,-2.5158,-2.5158,-2.4872,-2.4557,-2.4729,-2.478,-2.4949,-2.5693,-2.5798,-2.5748,-2.5952,-2.5486,-2.4808,-2.4091,-2.3451,-2.3056,-2.3505,-2.34,-2.34,-2.4029,-2.4552,-2.4837,-2.4612,-2.4233,-2.3803,-2.3372,-2.2183,-2.1141,-2.0762,-2.03,-2.0137,-2.0401,-2.1066,-2.1656,-2.2046,-2.2736,-2.3078,-2.3078,-2.3078,-2.3078,-2.3078,-2.2567,-2.2261,-2.2261,-2.1616,-2.0974,-2.0322,-2.1164,-2.1101,-2.0215,-1.8978,-1.876,-2.419,-2.419,-2.419,-2.419,0.0,0.0,-2.2848,-2.3172,-2.3423,-2.2809,-2.3071,-2.3321,-2.3076,-2.2654,-2.2232,-2.1911,-2.1856,-2.227,-2.3443,-2.3887,-2.4197,-2.4469,-2.4908,-2.5118,-2.4943,-2.5024,-2.5107,-2.5163,-2.5173,-2.5214,-2.5303,-2.5303,-2.5321,-2.5398,-2.5434,-2.5493,-2.5601,-2.5636,-2.5662,-2.5703,-2.566,-2.5605,-2.5543,-2.5477,-2.5413,-2.5339,-2.5313,-2.5192,-2.4986,-2.4741,-2.4512,-2.4321,-2.4228,-2.4328,-2.4544,-2.4544,-2.4833,-2.5209,-2.5209,-2.4988,-2.4696,-2.4696,-2.4268,-2.3796,-2.4137,-2.4139,-2.4171,-2.4932,-2.5135,-2.5056,-2.4713,-2.4457,-2.4127,-2.3297,-2.2681,-2.2443,-2.3071,-2.2936,-2.2862,-2.3475,-2.3924,-2.4193,-2.4193,-2.3911,-2.345,-2.2895,-2.1852,-2.1043,-2.0749,-2.0376,-2.0376,-2.0953,-2.1506,-2.197,-2.2284,-2.2811,-2.3078,-2.3078,-2.2763,-2.258,-2.258,-2.1803,-2.1365,-2.1365,-2.0846,-2.0139,-1.9299,-2.0333,-2.0398,-1.9507,-1.8903,-1.8867,-2.4227,-2.4209,-2.4228,-2.4227,-2.419,0.0,-2.2541,-2.2861,-2.303,-2.1619,-2.1853,-2.2109,-2.1483,-2.1374,-2.1162,-2.0529,-2.0477,-2.1029,-2.2549,-2.3365,-2.3823,-2.3812,-2.445,-2.4866,-2.4799,-2.4799,-2.4869,-2.4974,-2.4998,-2.5088,-2.5303,-2.5303,-2.534,-2.5395,-2.5391,-2.5465,-2.5595,-2.5601,-2.5634,-2.5703,-2.5703,-2.5661,-2.5601,-2.5539,-2.5471,-2.5391,-2.5321,-2.5203,-2.5022,-2.4883,-2.4682,-2.4478,-2.4266,-2.419,-2.419,-2.419,-2.4431,-2.4735,-2.4735,-2.4515,-2.4233,-2.4233,-2.3558,-2.2885,-2.3561,-2.3556,-2.3468,-2.4184,-2.4455,-2.4245,-2.3169,-2.3013,-2.2872,-2.1764,-2.1561,-2.1834,-2.2469,-2.2544,-2.2667,-2.337,-2.355,-2.3595,-2.3595,-2.3508,-2.298,-2.1885,-2.1554,-2.1287,-2.0661,-2.0618,-2.079,-2.1343,-2.1832,-2.2184,-2.2297,-2.2761,-2.3015,-2.3078,-2.2445,-2.2002,-2.2002,-2.1101,-2.059,-2.059,-2.0398,-1.9944,-1.9177,-1.9233,-1.8854,-1.8018,-1.8389,-1.8779,-2.4247,-2.4321,-2.441,-2.4247,-2.419,0.0,-2.3842,-2.4023,-2.399,-2.3048,-2.2562,-2.2061,-2.1294,-2.1162,-2.1158,-2.1174,-2.1152,-2.1304,-2.1784,-2.1992,-2.252,-2.3746,-2.4111,-2.4411,-2.4776,-2.4904,-2.493,-2.4842,-2.4937,-2.5088,-2.5303,-2.5303,-2.5322,-2.5322,-2.536,-2.5441,-2.5526,-2.5567,-2.5634,-2.5703,-2.5703,-2.5661,-2.5601,-2.5539,-2.5451,-2.5406,-2.5321,-2.5274,-2.5224,-2.5041,-2.478,-2.4478,-2.4266,-2.419,-2.419,-2.419,-2.4243,-2.4312,-2.4312,-2.4112,-2.3822,-2.3822,-2.3494,-2.3063,-2.2963,-2.2885,-2.2951,-2.3464,-2.4036,-2.4441,-2.4228,-2.3866,-2.3453,-2.2876,-2.2066,-2.1461,-2.1804,-2.147,-2.144,-2.2622,-2.3251,-2.3595,-2.3595,-2.2741,-2.1979,-2.1744,-2.0855,-2.0131,-2.0001,-1.9974,-2.0188,-2.0819,-2.097,-2.1343,-2.2234,-2.241,-2.2661,-2.3053,-2.2944,-2.2884,-2.2884,-2.1416,-2.059,-2.059,-1.9233,-1.8395,-1.8269,-1.8977,-1.8854,-1.8008,-1.8096,-1.8174,-2.4228,-2.4266,-2.4339,-2.4228,-2.419,0.0,0.0,-2.3547,-2.3272,-2.2464,-2.1602,-2.0901,-2.0569,-2.0515,-2.0579,-2.0766,-2.0887,-2.1119,-2.1623,-2.1641,-2.1847,-2.2525,-2.3039,-2.3581,-2.4151,-2.4233,-2.4435,-2.4866,-2.5053,-2.5215,-2.5329,-2.5346,-2.5371,-2.5406,-2.5434,-2.5473,-2.5551,-2.5573,-2.5634,-2.5703,-2.5703,-2.5683,-2.5657,-2.5551,-2.5473,-2.5428,-2.5329,-2.5303,-2.5274,-2.5088,-2.4911,-2.4723,-2.4442,-2.4284,-2.419,-2.419,-2.419,-2.419,-2.419,-2.4094,-2.3937,-2.3937,-2.361,-2.3165,-2.2996,-2.2738,-2.2532,-2.279,-2.3122,-2.3393,-2.3393,-2.2872,-2.2297,-2.208,-2.1264,-2.0628,-2.109,-2.0946,-2.1006,-2.1994,-2.2443,-2.2763,-2.3084,-2.262,-2.196,-2.1342,-2.0733,-2.031,-2.0253,-2.0238,-2.0451,-2.1016,-2.1079,-2.1305,-2.1857,-2.2159,-2.2122,-2.1758,-2.1825,-2.1549,-2.0908,-1.9878,-1.9299,-1.9299,-1.8462,-1.8008,-1.8008,-1.8462,-1.8462,-1.8008,-1.8008,-1.8125,-2.4266,-2.4284,-2.4303,-2.4209,-2.419,-2.4025,0.0,0.0,0.0,-2.1706,-2.0787,-2.0129,-2.0077,-2.008,-2.0173,-2.0351,-2.0554,-2.0891,-2.1433,-2.1417,-2.1445,-2.1762,-2.2128,-2.2766,-2.3781,-2.3663,-2.3948,-2.4939,-2.5041,-2.5138,-2.5401,-2.5415,-2.5428,-2.5508,-2.5493,-2.5539,-2.5601,-2.5601,-2.5634,-2.5703,-2.5703,-2.5703,-2.5703,-2.5561,-2.5493,-2.5484,-2.5354,-2.5303,-2.5303,-2.5111,-2.5034,-2.4974,-2.4682,-2.4461,-2.4321,-2.4321,-2.4284,-2.4266,-2.4266,-2.4228,-2.419,-2.419,-2.3753,-2.3189,-2.3189,-2.2773,-2.231,-2.231,-2.231,-2.231,-2.231,-2.1781,-2.1197,-2.1023,-2.0499,-2.0132,-2.043,-2.0587,-2.082,-2.138,-2.1421,-2.1576,-2.2235,-2.2245,-2.1805,-2.0806,-2.0539,-2.0461,-2.0532,-2.0555,-2.0665,-2.1117,-2.1154,-2.1204,-2.133,-2.1732,-2.1547,-2.0447,-2.0476,-2.0039,-1.8924,-1.8476,-1.8134,-1.8008,-1.8008,-1.8008,-1.8008,-1.8008,-1.8008,-1.8008,-1.8008,-1.8193,-2.4559,-2.461,-2.4639,-2.4284,-2.419,-2.4171,-2.408,0.0,-2.335,-2.2535,0.0,-2.1534,-2.0827,0.0,0.0,-2.1059,-2.106,-2.0898,-2.0526,-2.0425,-2.1164,-2.3348,-2.2332,-2.2354,-2.471,-2.4111,-2.4022,-2.5014,-2.4438,-2.4474,-2.5434,-2.5498,-2.5484,-2.5489,-2.5493,-2.5539,-2.5601,-2.5601,-2.5634,-2.5703,-2.5703,-2.5703,-2.5703,-2.5561,-2.5493,-2.5484,-2.5354,-2.5303,-2.5303,-2.5274,-2.5163,-2.4986,-2.4828,-2.476,-2.4731,-2.4731,-2.4607,-2.4461,-2.4461,-2.4339,-2.419,-2.419,-2.3753,-2.3189,-2.3189,-2.2773,-2.231,-2.231,-2.231,-2.231,-2.231,-2.2225,-2.1945,-2.1197,-2.1213,-2.1103,-2.0051,-2.0086,-2.0446,-2.0753,-2.045,-2.0338,-2.1007,-2.0613,-2.0213,-2.0093,-1.9587,-1.9359,-1.9836,-1.9899,-1.9924,-1.9987,-1.9999,-2.02,-2.0769,-2.0869,-2.0742,-2.0399,-2.0415,-2.0239,-1.9767,-1.9372,-1.8787,-1.8008,-1.8008,-1.8008,-1.8008,-1.8008,-1.8008,-1.8008,-1.8008,-1.8037,-2.4526,-2.4478,-2.441,-2.4247,-2.419,-2.419,-2.419,-2.3937,-2.3559,-2.3004,0.0,0.0,0.0,0.0,0.0,0.0,-2.0123,-2.0015,-1.9861,-1.933,-1.9735,-2.1799,-2.1403,-2.1858,-2.4121,-2.4105,-2.4329,-2.521,-2.4957,-2.5007,-2.5535,-2.552,-2.5549,-2.5607,-2.5627,-2.5633,-2.566,-2.566,-2.5662,-2.5703,-2.5703,-2.5703,-2.5703,-2.5561,-2.5493,-2.5484,-2.5354,-2.5303,-2.5303,-2.5303,-2.5253,-2.5163,-2.5115,-2.4962,-2.4804,-2.4804,-2.4746,-2.467,-2.467,-2.4526,-2.4321,-2.4018,-2.3588,-2.3165,-2.2972,-2.2616,-2.231,-2.231,-2.231,-2.231,-2.231,-2.2106,-2.1735,-2.1134,-2.091,-2.0649,-1.9889,-1.9839,-2.0,-2.01,-1.9669,-1.9305,-1.9284,-1.936,-1.9346,-1.9003,-1.8735,-1.8744,-1.9284,-1.9359,-1.9472,-1.9773,-1.9423,-1.9247,-1.9531,-1.9467,-1.9041,-1.8215,-1.8208,-1.8436,-1.8788,-1.8619,-1.8395,-1.8008,-1.8008,-1.8008,-1.8008,-1.8008,-1.8008,-1.8008,-1.8008,-1.8008,-2.4607,-2.4478,-2.4339,-2.4228,-2.419,-2.419,-2.419,-2.3937,-2.3588,-2.3259,-2.2509,0.0,0.0,0.0,-2.0278,-1.9623,0.0,-1.9116,-1.8915,-1.8498,-1.8909,-2.0919,-2.1563,-2.2326,-2.3587,-2.3742,-2.4099,-2.492,-2.4837,-2.4892,-2.5248,-2.5448,-2.5605,-2.5703,-2.5703,-2.5703,-2.5703,-2.5703,-2.5703,-2.5703,-2.5703,-2.5703,-2.5703,-2.557,-2.5526,-2.5484,-2.5387,-2.5322,-2.5303,-2.5303,-2.5303,-2.5303,-2.5303,-2.5149,-2.4942,-2.4942,-2.4896,-2.4855,-2.4818,-2.4623,-2.4356,-2.3959,-2.361,-2.3259,-2.2947,-2.2643,-2.2371,-2.2321,-2.231,-2.231,-2.231,-2.2049,-2.1705,-2.1244,-2.091,-2.0516,-1.9965,-1.9874,-1.9767,-1.9515,-1.9043,-1.8496,-1.7987,-1.8296,-1.8453,-1.8033,-1.7978,-1.8229,-1.8883,-1.8983,-1.9121,-1.9478,-1.9044,-1.8608,-1.8447,-1.8303,-1.7754,-1.657,-1.6538,-1.6826,-1.7451,-1.7598,-1.7715,-1.7832,-1.7842,-1.79,-1.8008,-1.8008,-1.8008,-1.8008,-1.8008,-1.8008,-2.4888,-2.479,-2.4685,-2.4303,-2.419,-2.419,-2.419,-2.3937,-2.3588,-2.3259,-2.2912,-2.2574,-2.2298,-2.1311,-2.0278,-1.9623,-1.9163,0.0,0.0,-1.7963,-1.9369,-2.2019,-2.3712,-2.435,-2.3592,-2.2985,-2.3017,-2.3887,-2.3407,-2.3476,-2.4381,-2.5232,-2.5703,-2.5703,-2.5703,-2.5703,-2.5703,-2.5703,-2.5703,-2.5703,-2.5703,-2.5703,-2.5703,-2.5633,-2.5561,-2.5508,-2.5441,-2.5354,-2.5303,-2.5303,-2.5303,-2.5303,-2.5303,-2.5284,-2.5274,-2.5274,-2.5152,-2.4974,-2.4842,-2.4545,-2.4209,-2.419,-2.3976,-2.361,-2.33,-2.2947,-2.2634,-2.236,-2.231,-2.231,-2.231,-2.2282,-2.2163,-2.1688,-2.1582,-2.1321,-2.0483,-2.028,-1.9989,-1.9103,-1.8496,-1.7947,-1.7435,-1.7338,-1.7366,-1.7402,-1.7413,-1.7802,-1.8833,-1.8983,-1.8907,-1.8761,-1.8715,-1.8394,-1.7688,-1.7644,-1.7324,-1.6549,-1.6247,-1.6154,-1.6184,-1.6543,-1.6973,-1.7393,-1.7402,-1.7607,-1.8008,-1.8008,-1.8008,-1.8008,-1.8008,-1.8008,-2.4855,-2.47,-2.4545,-2.4284,-2.419,-2.419,-2.419,-2.4113,-2.3876,-2.3305,-2.3117,-2.289,-2.2388,-2.1507,-2.0615,-1.9932,-1.9217,-1.8408,0.0,-1.8286,-1.9594,-2.1212,-2.2807,-2.3648,-2.3393,-2.2819,-2.2654,-2.3074,-2.345,-2.3871,-2.4376,-2.5184,-2.5659,-2.5703,-2.5703,-2.5703,-2.5703,-2.5703,-2.5703,-2.5703,-2.5703,-2.5703,-2.5703,-2.5633,-2.5561,-2.5508,-2.5428,-2.5363,-2.5303,-2.5303,-2.5303,-2.5303,-2.5303,-2.5303,-2.5303,-2.5303,-2.5264,-2.5152,-2.4883,-2.4623,-2.4375,-2.4247,-2.3976,-2.3649,-2.33,-2.2972,-2.2634,-2.2388,-2.231,-2.231,-2.231,-2.2077,-2.1735,-2.1306,-2.0975,-2.0583,-2.0035,-1.9909,-1.9717,-1.9043,-1.8458,-1.7947,-1.7394,-1.6993,-1.6786,-1.6785,-1.681,-1.7087,-1.784,-1.7562,-1.7702,-1.8769,-1.767,-1.7047,-1.7544,-1.6687,-1.6158,-1.6237,-1.6157,-1.6201,-1.6494,-1.665,-1.6743,-1.6953,-1.7236,-1.7451,-1.7598,-1.7871,-1.8008,-1.8008,-1.8008,-1.8008,-2.4874,-2.47,-2.4545,-2.4266,-2.419,-2.419,-2.419,-2.419,-2.4036,-2.35,-2.3282,-2.3038,-2.2544,-2.1761,-2.0986,-2.0335,-1.939,-1.8439,0.0,-1.8863,-2.0143,-2.0817,-2.2095,-2.2977,-2.3012,-2.2505,-2.2133,-2.2096,-2.3055,-2.3713,-2.3893,-2.5004,-2.5659,-2.5703,-2.5703,-2.5703,-2.5703,-2.5703,-2.5703,-2.5703,-2.5703,-2.5703,-2.5703,-2.5659,-2.5595,-2.5508,-2.5446,-2.5383,-2.5303,-2.5303,-2.5303,-2.5303,-2.5303,-2.5303,-2.5303,-2.5303,-2.5264,-2.5152,-2.4962,-2.4712,-2.4478,-2.4339,-2.4096,-2.3795,-2.3346,-2.3045,-2.2789,-2.2415,-2.231,-2.231,-2.231,-2.2077,-2.1764,-2.1524,-2.0975,-2.0499,-2.0208,-1.9925,-1.9479,-1.8765,-1.8341,-1.7867,-1.7146,-1.671,-1.6522,-1.6522,-1.6522,-1.6722,-1.73,-1.6812,-1.68,-1.7908,-1.6584,-1.5934,-1.6567,-1.5877,-1.5527,-1.5811,-1.583,-1.5957,-1.625,-1.626,-1.6406,-1.6665,-1.7012,-1.7305,-1.7607,-1.7881,-1.8008,-1.8008,-1.8008,-1.7794]},{"header":{"parameterUnit":"m.s-1","parameterCategory":1,"la1":30.6,"la2":29.2853,"lo1":-89.7004,"lo2":-87.6739,"dy":0.0162,"dx":0.0183,"nx":112,"ny":82,"refTime":"2024-04-29T12:00:00:Z","depth":0,"parameterNumber":3,"parameterNumberName":"V-component_of_WINDS"},"data":[0.0,0.0,0.0,0.0,0.0,0.0,0.0,0.0,0.0,0.0,0.0,0.0,0.0,0.0,0.0,0.0,0.0,0.0,0.0,0.0,0.0,0.0,0.0,0.0,0.0,0.0,0.0,0.0,0.0,0.0,0.0,0.0,0.0,0.0,0.0,0.0,0.0,0.0,0.0,0.0,0.0,0.0,0.0,0.0,0.0,0.0,0.0,0.0,0.0,0.0,0.0,0.0,0.0,0.0,0.0,0.0,0.0,0.0,0.0,0.0,0.0,0.0,0.0,0.0,0.0,0.0,0.0,0.0,0.0,0.0,0.0,0.0,0.0,0.0,0.0,0.0,0.0,0.0,0.0,0.0,0.0,0.0,0.0,0.0,0.0,0.0,0.0,0.0,0.0,0.0,-2.1873,-1.9344,-1.8057,-1.7585,-1.83,-1.9355,-1.8943,-1.6221,0.0,0.0,0.0,0.0,0.0,0.0,0.0,0.0,0.0,0.0,0.0,0.0,0.0,0.0,0.0,0.0,0.0,0.0,0.0,0.0,0.0,0.0,0.0,0.0,0.0,0.0,0.0,0.0,0.0,0.0,0.0,0.0,0.0,0.0,0.0,0.0,0.0,0.0,0.0,0.0,0.0,0.0,0.0,0.0,0.0,0.0,0.0,0.0,0.0,0.0,0.0,0.0,0.0,0.0,0.0,0.0,0.0,0.0,0.0,0.0,0.0,0.0,0.0,0.0,0.0,0.0,0.0,0.0,0.0,0.0,0.0,0.0,0.0,0.0,0.0,0.0,0.0,0.0,0.0,0.0,0.0,0.0,0.0,0.0,0.0,0.0,0.0,0.0,0.0,0.0,0.0,0.0,0.0,0.0,0.0,0.0,0.0,0.0,0.0,0.0,0.0,0.0,0.0,0.0,-2.167,-2.17,-1.9827,-1.8957,-1.9921,-2.0241,-1.9397,-1.703,0.0,0.0,0.0,0.0,0.0,0.0,0.0,0.0,0.0,0.0,0.0,0.0,0.0,0.0,0.0,0.0,0.0,0.0,0.0,0.0,0.0,0.0,0.0,0.0,0.0,0.0,0.0,0.0,0.0,0.0,0.0,0.0,0.0,0.0,0.0,0.0,0.0,0.0,0.0,0.0,0.0,0.0,0.0,0.0,0.0,0.0,0.0,0.0,0.0,0.0,0.0,0.0,0.0,0.0,0.0,0.0,0.0,0.0,0.0,0.0,0.0,0.0,0.0,0.0,0.0,0.0,0.0,0.0,0.0,0.0,0.0,0.0,0.0,0.0,0.0,0.0,0.0,0.0,0.0,0.0,0.0,0.0,0.0,0.0,0.0,0.0,0.0,0.0,0.0,0.0,0.0,0.0,0.0,0.0,0.0,0.0,0.0,0.0,0.0,0.0,0.0,0.0,0.0,-2.2042,-2.175,-2.1765,-2.0847,-2.0248,-2.0352,-2.0645,-1.9817,-1.769,-1.7424,0.0,0.0,0.0,0.0,0.0,0.0,0.0,0.0,0.0,0.0,0.0,0.0,0.0,0.0,0.0,0.0,0.0,0.0,0.0,0.0,0.0,0.0,0.0,0.0,0.0,0.0,0.0,0.0,0.0,0.0,0.0,0.0,0.0,0.0,0.0,0.0,0.0,0.0,0.0,0.0,0.0,0.0,0.0,0.0,0.0,0.0,0.0,0.0,0.0,0.0,0.0,0.0,0.0,0.0,0.0,0.0,0.0,0.0,0.0,0.0,0.0,0.0,0.0,0.0,0.0,0.0,0.0,0.0,0.0,0.0,0.0,0.0,0.0,0.0,0.0,0.0,0.0,0.0,0.0,0.0,0.0,0.0,0.0,0.0,0.0,0.0,0.0,0.0,0.0,0.0,0.0,0.0,0.0,0.0,0.0,0.0,0.0,0.0,0.0,0.0,0.0,0.0,-2.2617,-2.1998,-2.1906,-2.1835,-2.1568,-2.1054,-2.1033,-2.019,-1.8273,-1.8118,0.0,0.0,0.0,0.0,0.0,0.0,0.0,0.0,0.0,0.0,0.0,0.0,0.0,0.0,0.0,0.0,0.0,0.0,0.0,0.0,0.0,0.0,0.0,0.0,0.0,0.0,0.0,0.0,0.0,0.0,0.0,0.0,0.0,0.0,0.0,0.0,0.0,0.0,0.0,0.0,0.0,0.0,0.0,0.0,0.0,0.0,0.0,0.0,0.0,0.0,0.0,0.0,0.0,0.0,0.0,0.0,0.0,0.0,0.0,0.0,0.0,0.0,0.0,0.0,0.0,0.0,0.0,0.0,0.0,0.0,0.0,0.0,0.0,0.0,0.0,0.0,0.0,0.0,0.0,0.0,0.0,0.0,0.0,0.0,0.0,0.0,0.0,0.0,0.0,0.0,0.0,0.0,0.0,0.0,0.0,0.0,0.0,0.0,0.0,0.0,0.0,0.0,-2.1831,-2.2366,-2.365,-2.3352,-2.292,-2.2949,-2.1525,-2.0121,-1.8934,-1.7924,0.0,0.0,0.0,0.0,0.0,0.0,0.0,0.0,0.0,0.0,0.0,0.0,0.0,0.0,0.0,0.0,0.0,0.0,0.0,0.0,0.0,0.0,0.0,0.0,0.0,0.0,0.0,0.0,0.0,0.0,0.0,0.0,0.0,0.0,0.0,0.0,0.0,0.0,0.0,0.0,0.0,0.0,0.0,0.0,0.0,0.0,0.0,0.0,0.0,0.0,0.0,0.0,0.0,0.0,0.0,0.0,0.0,0.0,0.0,0.0,0.0,0.0,0.0,0.0,0.0,0.0,0.0,0.0,0.0,0.0,0.0,0.0,0.0,0.0,0.0,0.0,0.0,0.0,0.0,0.0,0.0,0.0,0.0,0.0,0.0,0.0,0.0,0.0,0.0,0.0,0.0,0.0,0.0,0.0,0.0,0.0,0.0,0.0,0.0,0.0,0.0,0.0,-2.1697,-2.2911,-2.4756,-2.4525,-2.4023,-2.3821,-2.187,-2.0113,-1.9003,0.0,0.0,0.0,0.0,0.0,0.0,0.0,0.0,0.0,0.0,0.0,0.0,0.0,0.0,0.0,0.0,0.0,0.0,0.0,0.0,0.0,0.0,0.0,0.0,0.0,0.0,0.0,0.0,0.0,0.0,0.0,0.0,0.0,0.0,0.0,0.0,0.0,0.0,0.0,0.0,0.0,0.0,0.0,0.0,0.0,0.0,0.0,0.0,0.0,0.0,0.0,0.0,0.0,0.0,0.0,0.0,0.0,0.0,0.0,0.0,0.0,0.0,0.0,0.0,0.0,0.0,0.0,0.0,0.0,0.0,0.0,0.0,0.0,0.0,0.0,0.0,0.0,0.0,0.0,0.0,0.0,0.0,0.0,0.0,0.0,0.0,0.0,0.0,0.0,0.0,0.0,0.0,0.0,0.0,0.0,0.0,0.0,0.0,0.0,0.0,0.0,0.0,-2.0742,-2.2048,-2.3583,-2.5392,-2.5256,-2.4877,-2.4416,-2.2074,-2.0296,-1.9533,0.0,0.0,0.0,0.0,0.0,0.0,0.0,0.0,0.0,0.0,0.0,0.0,0.0,0.0,0.0,0.0,0.0,0.0,0.0,0.0,0.0,0.0,0.0,0.0,0.0,0.0,0.0,0.0,0.0,0.0,0.0,0.0,0.0,0.0,0.0,0.0,0.0,0.0,0.0,0.0,0.0,0.0,0.0,0.0,0.0,0.0,0.0,0.0,0.0,0.0,0.0,0.0,0.0,0.0,0.0,0.0,0.0,0.0,0.0,0.0,0.0,0.0,0.0,0.0,0.0,0.0,0.0,0.0,0.0,0.0,0.0,0.0,0.0,0.0,0.0,0.0,0.0,0.0,0.0,0.0,0.0,0.0,0.0,0.0,0.0,0.0,0.0,0.0,0.0,0.0,0.0,0.0,0.0,0.0,0.0,0.0,0.0,0.0,0.0,0.0,0.0,0.0,-2.1378,-2.2974,-2.4448,-2.55,-2.5595,-2.5418,-2.4848,-2.2201,-2.0631,0.0,0.0,0.0,0.0,0.0,0.0,0.0,0.0,0.0,0.0,0.0,0.0,0.0,0.0,0.0,0.0,0.0,0.0,0.0,0.0,0.0,0.0,0.0,0.0,0.0,0.0,0.0,0.0,0.0,0.0,0.0,0.0,0.0,0.0,0.0,0.0,0.0,0.0,0.0,0.0,0.0,0.0,0.0,0.0,0.0,0.0,0.0,0.0,0.0,0.0,0.0,0.0,0.0,0.0,0.0,0.0,0.0,0.0,0.0,0.0,0.0,0.0,0.0,0.0,0.0,0.0,0.0,0.0,0.0,0.0,0.0,0.0,0.0,0.0,0.0,0.0,0.0,0.0,0.0,0.0,0.0,0.0,0.0,0.0,0.0,0.0,0.0,0.0,0.0,0.0,0.0,0.0,0.0,0.0,0.0,0.0,0.0,0.0,0.0,0.0,0.0,0.0,0.0,-2.1833,-2.3201,-2.4711,-2.663,-2.6459,-2.589,-2.5005,-2.2162,-2.02,-1.9668,0.0,0.0,0.0,0.0,0.0,0.0,0.0,0.0,0.0,0.0,0.0,0.0,0.0,0.0,0.0,0.0,0.0,0.0,0.0,0.0,0.0,0.0,0.0,0.0,0.0,0.0,0.0,0.0,0.0,0.0,0.0,0.0,0.0,0.0,0.0,0.0,0.0,0.0,0.0,0.0,0.0,0.0,0.0,0.0,0.0,0.0,0.0,0.0,0.0,0.0,0.0,0.0,0.0,0.0,0.0,0.0,0.0,0.0,0.0,0.0,0.0,0.0,0.0,0.0,0.0,0.0,0.0,0.0,0.0,0.0,0.0,0.0,0.0,0.0,0.0,0.0,0.0,0.0,0.0,0.0,0.0,0.0,0.0,0.0,0.0,0.0,0.0,0.0,0.0,0.0,0.0,0.0,0.0,0.0,0.0,0.0,0.0,0.0,0.0,0.0,0.0,0.0,-2.176,-2.336,-2.4951,-2.6483,-2.6709,-2.636,-2.535,-2.2947,-2.1007,-1.9865,0.0,0.0,0.0,0.0,0.0,0.0,0.0,0.0,0.0,0.0,0.0,0.0,0.0,0.0,0.0,0.0,0.0,0.0,0.0,0.0,0.0,0.0,0.0,0.0,0.0,0.0,0.0,0.0,0.0,0.0,0.0,0.0,0.0,0.0,0.0,0.0,0.0,0.0,0.0,0.0,0.0,0.0,0.0,0.0,0.0,0.0,0.0,0.0,0.0,0.0,0.0,0.0,0.0,0.0,0.0,0.0,0.0,0.0,0.0,0.0,0.0,0.0,0.0,0.0,0.0,0.0,0.0,0.0,0.0,0.0,0.0,0.0,0.0,0.0,0.0,0.0,0.0,0.0,0.0,0.0,0.0,0.0,0.0,0.0,0.0,0.0,0.0,0.0,0.0,0.0,0.0,0.0,0.0,0.0,0.0,0.0,0.0,0.0,0.0,0.0,0.0,0.0,-2.161,-2.3563,-2.5062,-2.5648,-2.6633,-2.681,-2.5722,-2.4102,-2.2457,-2.0891,0.0,0.0,0.0,0.0,0.0,0.0,0.0,0.0,0.0,0.0,0.0,0.0,0.0,0.0,0.0,0.0,0.0,0.0,0.0,0.0,0.0,0.0,0.0,0.0,0.0,0.0,0.0,0.0,0.0,0.0,0.0,0.0,0.0,0.0,0.0,0.0,0.0,0.0,0.0,0.0,0.0,0.0,0.0,0.0,0.0,0.0,0.0,0.0,0.0,0.0,0.0,0.0,0.0,0.0,0.0,0.0,0.0,0.0,0.0,0.0,-2.1158,-2.0122,0.0,0.0,0.0,0.0,0.0,0.0,0.0,0.0,0.0,0.0,0.0,0.0,0.0,0.0,0.0,0.0,0.0,0.0,0.0,0.0,0.0,0.0,0.0,0.0,0.0,0.0,0.0,0.0,0.0,0.0,0.0,0.0,0.0,0.0,0.0,0.0,0.0,0.0,0.0,0.0,-2.3483,-2.4171,-2.5089,-2.6566,-2.6924,-2.6789,-2.6148,-2.4473,-2.2918,-2.1564,-2.0365,0.0,0.0,0.0,0.0,0.0,0.0,0.0,0.0,0.0,0.0,0.0,0.0,0.0,0.0,0.0,0.0,0.0,0.0,0.0,0.0,0.0,0.0,0.0,0.0,0.0,0.0,0.0,0.0,0.0,0.0,0.0,0.0,0.0,0.0,0.0,0.0,0.0,0.0,0.0,0.0,0.0,0.0,0.0,0.0,0.0,0.0,0.0,0.0,0.0,0.0,0.0,0.0,0.0,0.0,0.0,0.0,0.0,0.0,0.0,-2.4157,-2.3231,0.0,0.0,0.0,0.0,0.0,0.0,0.0,0.0,0.0,0.0,0.0,0.0,0.0,0.0,0.0,0.0,0.0,0.0,0.0,0.0,0.0,0.0,0.0,0.0,0.0,0.0,0.0,0.0,0.0,0.0,0.0,0.0,0.0,0.0,0.0,0.0,0.0,0.0,0.0,0.0,-2.376,-2.4717,-2.5655,-2.6541,-2.6868,-2.6799,-2.6235,-2.4846,-2.3354,-2.1793,-2.0826,0.0,0.0,0.0,0.0,0.0,0.0,0.0,0.0,0.0,0.0,0.0,0.0,0.0,0.0,0.0,0.0,0.0,0.0,0.0,0.0,0.0,0.0,0.0,0.0,0.0,0.0,0.0,0.0,0.0,0.0,0.0,0.0,0.0,0.0,0.0,0.0,0.0,0.0,0.0,0.0,0.0,0.0,0.0,0.0,0.0,0.0,0.0,0.0,0.0,0.0,0.0,0.0,0.0,-2.5898,-2.6129,-2.563,-2.8061,-2.8862,-2.8343,-2.7726,-2.7092,-2.6383,-2.6755,0.0,0.0,0.0,0.0,0.0,0.0,0.0,0.0,0.0,0.0,0.0,0.0,0.0,0.0,0.0,0.0,0.0,0.0,0.0,0.0,0.0,0.0,-2.4985,-2.7627,-2.8618,-2.7455,-2.223,0.0,0.0,0.0,0.0,0.0,0.0,0.0,0.0,0.0,0.0,0.0,-2.3656,-2.5267,-2.6327,-2.6428,-2.6846,-2.6902,-2.6315,-2.5266,-2.3853,-2.2137,-2.1283,-2.0382,0.0,0.0,0.0,0.0,0.0,0.0,0.0,0.0,0.0,0.0,0.0,0.0,0.0,0.0,0.0,0.0,0.0,0.0,0.0,0.0,0.0,0.0,0.0,0.0,0.0,0.0,0.0,0.0,0.0,0.0,0.0,0.0,-1.9781,-2.002,0.0,0.0,0.0,0.0,0.0,0.0,0.0,0.0,0.0,0.0,0.0,0.0,0.0,-3.0395,-2.9882,-3.1583,-3.1263,-2.8987,-3.0061,-3.0298,-2.9799,-3.0171,-3.1509,-3.3386,-3.2853,0.0,-2.9044,-2.8532,0.0,0.0,0.0,0.0,0.0,0.0,0.0,0.0,0.0,0.0,0.0,0.0,0.0,0.0,0.0,0.0,0.0,0.0,0.0,0.0,0.0,0.0,-2.7739,-3.0385,-2.9899,-2.8286,-2.5998,-2.4462,-2.3327,-2.2577,-2.1655,-2.1138,0.0,0.0,0.0,0.0,0.0,0.0,-2.4702,-2.5693,-2.6606,-2.7321,-2.7498,-2.7276,-2.6589,-2.5849,-2.4828,-2.3451,-2.2218,-2.1233,-2.0489,-2.0057,0.0,0.0,0.0,0.0,0.0,0.0,0.0,0.0,0.0,0.0,0.0,0.0,0.0,0.0,0.0,0.0,0.0,0.0,0.0,0.0,0.0,0.0,0.0,0.0,0.0,0.0,0.0,0.0,0.0,-1.9888,-2.0042,-1.8321,-1.9259,-1.9674,0.0,0.0,0.0,0.0,0.0,0.0,0.0,0.0,0.0,-2.876,-3.1336,-3.2365,-3.1676,-3.3255,-3.3237,-3.165,-3.2428,-3.2679,-3.2466,-3.3085,-3.4311,-3.5894,-3.5545,-3.5078,-3.4357,-3.2229,-3.0477,-2.8996,0.0,0.0,0.0,0.0,-2.6544,-2.7041,-2.8388,-2.8664,-2.8572,-2.9424,0.0,0.0,0.0,0.0,0.0,0.0,0.0,-2.6888,-2.7643,-2.856,-2.9786,-3.1813,-3.1321,-3.0066,-2.8929,-2.716,-2.542,-2.4044,-2.3909,-2.3879,-2.343,-2.3266,0.0,0.0,0.0,-2.4015,-2.5212,-2.6331,-2.7058,-2.704,-2.7021,-2.6752,-2.6093,-2.5076,-2.4223,-2.364,-2.2054,-2.1021,-2.0722,-2.0423,-2.0228,0.0,0.0,0.0,0.0,0.0,0.0,0.0,0.0,0.0,0.0,0.0,0.0,0.0,0.0,0.0,0.0,0.0,0.0,0.0,0.0,0.0,0.0,0.0,0.0,0.0,0.0,0.0,0.0,-1.982,-2.0018,-1.7192,-1.8803,-1.9712,0.0,0.0,0.0,0.0,0.0,0.0,-2.6521,-2.8254,-2.9757,-3.0983,-3.3362,-3.442,-3.3927,-3.48,-3.4684,-3.3709,-3.3985,-3.411,-3.411,-3.4925,-3.5836,-3.6689,-3.681,-3.73,-3.7771,-3.4961,-3.2587,-3.0717,-2.9549,-2.8771,-2.8293,-2.8143,-2.841,-2.8981,-2.9981,-3.0212,-3.0166,-3.0674,-2.9696,-2.8113,-2.6976,0.0,0.0,0.0,0.0,-2.803,-2.8948,-2.9857,-3.0902,-3.2238,-3.1864,-3.1091,-3.0417,-2.8981,-2.729,-2.548,-2.551,-2.5525,-2.4537,-2.3939,0.0,-2.3919,-2.397,-2.4401,-2.5634,-2.665,-2.7043,-2.6426,-2.6333,-2.6004,-2.5166,-2.4178,-2.346,-2.3131,-2.1605,-2.0722,-2.0722,-2.0543,-2.0362,-2.0095,0.0,0.0,0.0,0.0,0.0,0.0,0.0,0.0,0.0,0.0,0.0,0.0,0.0,0.0,0.0,0.0,0.0,0.0,0.0,0.0,0.0,0.0,0.0,0.0,0.0,0.0,0.0,0.0,0.0,-1.7214,-1.936,0.0,0.0,0.0,0.0,-2.524,-2.5804,-2.7115,-2.9439,-3.0675,-3.2708,-3.5798,-3.6241,-3.6836,-3.7702,-3.7382,-3.6521,-3.5416,-3.4914,-3.4675,-3.4675,-3.4675,-3.5058,-3.5606,-3.6675,-3.7021,-3.6721,-3.5096,-3.4352,-3.3978,-3.1405,-3.0387,-3.0283,-2.9699,-2.9529,-2.9544,-2.9604,-2.9214,-2.9004,-3.0878,-3.0941,-3.0238,-2.9579,-2.8472,0.0,0.0,-2.8036,-2.8689,-2.9372,-3.0048,-3.0683,-3.1387,-3.1072,-3.0387,-2.9759,-2.9056,-2.8143,-2.6767,-2.5001,-2.3729,-2.3655,0.0,-2.3904,-2.4795,-2.494,-2.5244,-2.6168,-2.6321,-2.6163,-2.5689,-2.5659,-2.5121,-2.3804,-2.364,-2.3086,-2.1859,-2.1111,-2.0722,-2.0722,-2.0094,-2.0207,-2.1203,-2.0651,0.0,0.0,0.0,0.0,0.0,0.0,0.0,0.0,0.0,0.0,0.0,0.0,0.0,0.0,0.0,0.0,0.0,0.0,0.0,0.0,0.0,0.0,0.0,0.0,0.0,0.0,0.0,0.0,-2.0487,-2.3431,0.0,-2.3621,-2.4786,-2.6491,-2.8687,-2.9114,-3.0372,-3.2794,-3.3658,-3.4754,-3.635,-3.6376,-3.658,-3.6989,-3.6785,-3.6497,-3.6069,-3.5868,-3.5768,-3.5755,-3.5039,-3.5392,-3.6651,-3.6566,-3.7161,-3.8005,-3.6828,-3.5878,-3.4996,-3.3604,-3.2796,-3.2407,-3.2183,-3.2412,-3.2706,-3.2262,-3.1956,-3.157,-3.0614,-2.9819,-2.9199,-2.8921,-2.8541,-2.8372,-2.9082,-2.9867,-3.0668,-3.1285,-3.165,-3.1803,-3.1619,-3.1006,-3.0328,-2.9714,-2.9071,-2.8457,-2.7979,-2.6602,-2.5525,-2.5525,-2.5166,-2.4867,-2.4776,-2.5453,-2.5828,-2.5304,-2.595,-2.6114,-2.5076,-2.4582,-2.3954,-2.3071,-2.2233,-2.1724,-2.1695,-2.0662,-2.0243,-2.0692,-2.0049,-1.998,-2.0636,-2.0438,-2.0859,0.0,0.0,0.0,0.0,0.0,0.0,0.0,0.0,0.0,0.0,0.0,0.0,0.0,0.0,0.0,0.0,0.0,0.0,0.0,0.0,0.0,0.0,0.0,0.0,0.0,-2.2569,-2.4768,-2.4599,-2.6597,-2.771,-2.7059,-2.7727,-2.927,-3.2034,-3.2372,-3.3418,-3.5662,-3.6182,-3.6634,-3.7186,-3.6835,-3.6634,-3.6634,-3.6458,-3.6358,-3.6358,-3.6169,-3.6094,-3.6056,-3.5328,-3.5416,-3.6204,-3.6203,-3.6913,-3.7919,-3.7375,-3.6802,-3.6058,-3.5175,-3.4562,-3.4173,-3.4173,-3.4287,-3.439,-3.3487,-3.3027,-3.2516,-3.0809,-2.9939,-2.9559,-2.9483,-2.9357,-2.938,-3.0118,-3.0577,-3.1043,-3.1431,-3.1564,-3.1489,-3.1044,-3.0394,-2.9744,-2.934,-2.8727,-2.8248,-2.8248,-2.753,-2.6856,-2.6632,-2.6048,-2.554,-2.533,-2.5659,-2.5689,-2.5046,-2.5525,-2.551,-2.4403,-2.3684,-2.3026,-2.2398,-2.1545,-2.1036,-2.1021,-2.0393,-2.0139,-2.0363,-2.0322,-2.0492,-2.0895,-2.1196,-2.1502,-2.184,0.0,0.0,0.0,0.0,0.0,0.0,0.0,0.0,0.0,0.0,0.0,0.0,0.0,0.0,0.0,0.0,0.0,0.0,0.0,0.0,0.0,0.0,0.0,-1.8665,-2.3605,-2.7915,-2.9126,-2.8542,-2.8826,-3.0913,-3.0079,-3.1121,-3.5288,-3.5502,-3.6208,-3.7903,-3.804,-3.8278,-3.8831,-3.7764,-3.7174,-3.7161,-3.6621,-3.6358,-3.6332,-3.5818,-3.5567,-3.5542,-3.5437,-3.4939,-3.4035,-3.5609,-3.6257,-3.6235,-3.6618,-3.6996,-3.7285,-3.6028,-3.5519,-3.5504,-3.5504,-3.507,-3.4292,-3.3021,-3.2138,-3.1497,-3.1497,-3.1497,-3.1482,-3.1482,-3.1061,-3.0537,-3.0507,-3.0073,-2.9609,-2.9579,-2.9579,-2.9579,-2.9549,-2.9071,-2.8592,-2.8577,-2.8038,-2.7625,-2.7625,-2.7625,-2.7415,-2.6722,-2.6093,-2.5869,-2.6467,-2.5495,0.0,-2.548,-2.5016,-2.4328,-2.3699,-2.3056,-2.2428,-2.1784,-2.168,-2.1096,-1.9765,-2.0318,-2.0378,-1.972,-2.0799,-2.1619,-2.205,-2.2917,-2.3004,-2.231,0.0,0.0,0.0,0.0,0.0,0.0,0.0,0.0,0.0,0.0,0.0,0.0,0.0,0.0,0.0,0.0,0.0,0.0,0.0,0.0,0.0,-2.1174,-2.4185,-2.4698,-2.8651,-3.158,-3.1757,-3.308,-3.4064,-3.4007,-3.3719,-3.4584,-3.708,-3.6354,-3.6654,-3.8592,-3.863,-3.8517,-3.8253,-3.7563,-3.6998,-3.6584,-3.6433,-3.6157,-3.5768,-3.6019,-3.5931,-3.5529,-3.514,-3.4776,-3.4539,-3.4946,-3.5574,-3.6207,-3.6177,-3.6616,-3.733,-3.6522,-3.5923,-3.5504,-3.5504,-3.507,-3.4427,-3.4068,-3.3185,-3.2243,-3.2243,-3.1928,-3.1482,-3.1482,-3.1405,-3.115,-3.0642,-3.0372,-3.0148,-2.9699,-2.9579,-2.946,-2.8981,-2.8727,-2.8472,-2.7964,-2.7709,-2.7625,-2.7625,-2.7625,-2.7565,-2.7335,-2.7156,-2.6767,-2.5989,-2.5974,-2.5585,-2.4313,-2.4433,-2.4507,-2.4313,-2.334,-2.2649,-2.2428,-2.153,-2.0617,-1.9735,-1.9869,-1.9884,-1.969,-2.0035,-2.052,-2.1279,-2.2139,-2.2513,0.0,0.0,0.0,0.0,0.0,0.0,0.0,0.0,0.0,0.0,0.0,0.0,0.0,0.0,0.0,0.0,0.0,0.0,0.0,0.0,0.0,0.0,-2.1918,-2.5143,-2.7402,-3.0821,-3.3368,-3.4127,-3.5478,-3.6428,-3.6615,-3.5994,-3.6384,-3.8542,-3.7959,-3.7894,-3.8856,-3.8868,-3.8492,-3.7688,-3.7349,-3.6923,-3.637,-3.5858,-3.5709,-3.5881,-3.5145,-3.4922,-3.519,-3.4625,-3.4248,-3.401,-3.4251,-3.4792,-3.56,-3.5599,-3.61,-3.6733,0.0,0.0,0.0,0.0,-3.507,-3.4472,-3.4472,-3.3799,-3.2886,-3.2602,-3.2258,-3.1898,-3.1556,-3.133,-3.0971,-3.0298,-2.9924,-2.9564,-2.8906,-2.8742,-2.8637,-2.8263,-2.8173,-2.8053,-2.7664,-2.7625,-2.7625,-2.7625,-2.7625,0.0,-2.7625,-2.7111,-2.6572,-2.6093,-2.563,-2.5016,-2.4148,-2.4118,-2.4193,-2.4193,-2.3281,-2.2724,-2.2724,-2.1724,0.0,0.0,0.0,-2.0553,-2.0939,-2.0939,0.0,0.0,0.0,-2.2615,-2.231,-2.2615,0.0,0.0,-2.3151,-2.3054,0.0,0.0,0.0,0.0,0.0,0.0,0.0,0.0,0.0,0.0,0.0,0.0,0.0,0.0,0.0,0.0,-2.2359,-2.4943,-2.8157,-3.1325,-3.4043,-3.6164,-3.6455,-3.7022,-3.8351,-3.6969,-3.6994,-3.9406,-3.9368,-3.9118,-3.8793,-3.8781,0.0,0.0,0.0,-3.691,-3.6168,-3.4969,-3.4812,-3.5767,-3.3787,-3.3397,-3.442,-3.4034,-3.3633,-3.3194,-3.3621,-3.4174,-3.4693,-3.5067,-3.5461,-3.5853,-3.5592,-3.5504,-3.5504,-3.5504,-3.5115,-3.4577,-3.4502,0.0,0.0,-3.2721,-3.2467,-3.2302,-3.1704,-3.1106,-3.0477,-2.9774,-2.916,-2.8532,-2.7769,-2.7625,-2.7625,-2.7625,-2.7625,-2.7625,-2.7625,-2.7625,-2.7625,-2.7625,-2.7625,-2.7625,-2.7625,-2.6602,-2.5974,-2.6422,-2.5031,-2.4073,-2.4462,-2.4044,-2.3714,-2.3714,-2.3161,0.0,-2.2787,-2.2173,-2.153,-2.0872,-2.1124,-2.1626,-2.2393,-2.2585,-2.2886,-2.3317,-2.3431,-2.319,-2.2564,-2.319,-2.3642,-2.3888,-2.4303,-2.4137,0.0,0.0,0.0,0.0,0.0,0.0,0.0,0.0,0.0,0.0,0.0,0.0,0.0,0.0,0.0,-1.9362,-2.1701,-2.4826,-2.891,-3.2359,-3.4872,-3.6263,-3.6956,-3.7475,-3.8101,-3.6466,-3.6335,-3.883,-3.7228,-3.6661,-3.8054,-3.8165,-3.7864,-3.7211,-3.7186,-3.6416,-3.4787,-3.4483,-3.3558,-3.1938,-3.2923,0.0,-3.2641,-3.3479,-3.3847,-3.3721,-3.3382,-3.3815,-3.4667,-3.4539,-3.4938,-3.557,-3.5529,-3.5504,-3.5504,-3.5504,-3.5429,-3.5235,-3.4666,-3.4038,-3.338,-3.2721,-3.2153,-3.1646,-3.1511,-3.1377,0.0,-2.9909,-2.949,-2.9116,-2.7889,-2.7625,-2.7625,-2.7625,-2.7625,-2.7625,-2.7625,-2.7625,-2.7625,-2.7625,-2.7625,-2.7625,-2.7625,-2.7365,-2.6871,-2.5944,-2.5914,-2.548,-2.3984,-2.4163,-2.4388,-2.4388,-2.3819,-2.343,-2.343,-2.2847,-2.2203,-2.1545,-2.1384,-2.1144,-2.0787,-2.2021,-2.2745,-2.2839,-2.3782,-2.4205,-2.4052,-2.4205,-2.432,-2.4371,-2.4472,-2.4438,0.0,0.0,0.0,0.0,0.0,0.0,0.0,0.0,0.0,0.0,0.0,-1.9034,-2.0502,0.0,-2.2041,-2.4015,-2.5432,-2.7421,-3.0802,-3.3458,-3.5387,-3.6307,-3.6742,-3.7144,-3.7698,-3.6837,-3.6912,-3.8781,-3.7443,-3.6986,-3.799,-3.7751,-3.7337,-3.6784,-3.6772,-3.6034,-3.4385,-3.3674,-3.2677,-3.1353,-3.1826,-3.2101,-3.2122,-3.3056,-3.3483,-3.347,-3.3206,-3.3398,-3.3946,-3.4184,-3.4768,-3.5504,-3.5504,-3.5504,-3.5504,-3.5504,-3.5504,-3.54,-3.4711,-3.4487,-3.4277,-3.2946,-3.2512,-3.2392,-3.1676,-3.1482,-3.1255,-2.9953,-2.9579,-2.9265,-2.797,-2.7625,-2.7625,-2.7625,-2.7625,-2.7625,-2.7625,-2.7625,-2.7625,-2.7625,-2.7625,-2.7625,-2.7625,-2.7625,-2.7245,-2.6243,-2.5809,-2.5255,-2.4238,-2.4118,-2.4118,-2.4118,-2.3804,-2.3595,-2.3595,-2.3041,-2.2505,-2.2009,-2.1879,-2.1873,-2.2015,-2.2769,-2.3323,-2.3608,-2.418,-2.4506,-2.4506,-2.4864,-2.505,-2.505,-2.5423,-2.5389,0.0,0.0,0.0,0.0,0.0,0.0,0.0,-2.2432,-2.6036,-2.4317,-2.3983,-2.4023,-2.4293,-2.4716,-2.6032,-2.9079,-3.0057,-3.096,-3.2781,-3.4219,-3.533,-3.6019,-3.6144,-3.6578,-3.7404,-3.722,-3.745,-3.8467,-3.8115,-3.7801,-3.7688,-3.7362,-3.6826,-3.6086,-3.5966,-3.5271,-3.3674,-3.2443,-3.1539,-3.0778,-3.0774,-3.1046,-3.1581,-3.2635,-3.3081,-3.3068,-3.2955,-3.3013,-3.3064,-3.3799,-3.4569,-3.5213,-3.5424,-3.5504,-3.5504,-3.5504,-3.5504,-3.54,-3.4711,-3.4846,-3.4996,-3.3125,-3.2871,-3.308,-3.1898,-3.1482,-3.1255,-2.9953,-2.9579,-2.9265,-2.797,-2.7625,-2.7625,-2.7625,-2.7625,-2.7625,-2.7625,-2.7625,-2.7625,-2.7625,-2.7625,-2.7625,-2.7625,-2.7625,-2.735,-2.6692,-2.5794,-2.5106,-2.4852,-2.4448,-2.4088,-2.3819,-2.3789,-2.3744,-2.361,-2.3131,-2.2727,-2.2409,-2.244,-2.276,-2.3418,-2.3751,-2.4116,-2.4553,-2.4799,-2.4946,-2.4946,-2.5524,-2.5812,-2.5828,-2.642,-2.6387,-2.2995,-2.1305,-1.9207,-1.6274,-1.7421,-2.0088,0.0,-2.5241,-2.6591,-2.7028,-2.717,-2.6577,-2.4443,-2.4918,-2.6671,-3.0041,-3.2559,-3.405,-3.4023,-3.4182,-3.4479,-3.4798,-3.5341,-3.6044,-3.7098,-3.6747,-3.6709,-3.7324,-3.7312,-3.7061,-3.6571,-3.6948,-3.6428,-3.4702,-3.4581,-3.3365,-3.0824,-3.0618,-2.9477,-2.757,-2.9644,-3.0382,-2.976,-3.2089,-3.3081,-3.3056,-3.2528,-3.2485,-3.2896,-3.3295,-3.3789,-3.4245,-3.5133,-3.5504,-3.5504,-3.5504,-3.5504,-3.54,-3.4711,-3.4532,-3.4367,-3.2961,-3.2557,-3.2482,-3.1764,-3.1482,-3.1255,-2.9953,-2.9579,-2.9265,-2.797,-2.7625,-2.7625,-2.7625,-2.7625,-2.7625,-2.7625,-2.7625,-2.7625,-2.7625,-2.7625,-2.7625,-2.7625,-2.7625,-2.735,-2.6692,-2.6961,-2.6811,-2.5644,-2.5944,-2.5809,-2.4642,-2.4462,-2.4268,-2.3655,-2.3535,-2.3263,-2.2675,-2.3004,-2.2987,-2.2481,-2.3894,-2.4691,-2.4776,-2.5883,-2.6437,-2.6437,-2.6539,-2.6573,-2.6573,-2.6657,-2.6657,-2.0911,-1.9631,-1.8688,-1.6679,-1.7617,-1.9726,-2.2004,-2.3661,-2.4972,-2.6063,-2.5882,-2.5521,-2.5242,-2.5872,-2.7087,-2.9083,-3.1083,-3.2427,-3.2345,-3.1855,-3.1663,-3.2189,-3.1881,-3.2584,-3.4858,-3.4929,-3.4848,-3.4875,-3.5268,-3.5246,-3.4603,-3.4421,-3.3971,-3.3155,-3.3155,-3.2241,-3.0317,-3.0055,-2.9014,-2.7012,-2.9246,-2.9974,-2.9498,-3.1965,-3.3081,-3.3043,-3.2466,-3.2439,-3.2777,-3.2644,-3.3146,-3.4027,-3.4461,-3.4986,-3.5504,-3.5504,-3.5504,-3.54,-3.4711,-3.4472,-3.4262,-3.2946,-3.2512,-3.2392,-3.1676,-3.1482,-3.1345,-3.0387,-3.0118,-2.9819,-2.8502,-2.8173,-2.8173,-2.8173,-2.7859,-2.7679,-2.8083,-2.7859,-2.7625,-2.7625,-2.7625,-2.7694,-2.8098,-2.7844,-2.779,-2.8248,-2.7575,-2.6797,-2.6243,-2.6093,-2.5809,-2.5255,-2.4492,-2.4073,-2.4193,-2.3819,-2.349,-2.3236,-2.3402,-2.3621,-2.398,-2.4649,-2.5304,-2.5882,-2.6421,-2.6691,-2.6691,-2.6691,-2.6691,-2.6691,-2.6691,-2.6691,-1.9409,-1.8571,-1.8375,-1.7585,-1.804,-1.9059,-2.036,-2.2023,-2.3616,-2.4626,-2.4605,-2.4617,-2.557,-2.6027,-2.6599,-2.7757,-2.9018,-2.9902,-3.0364,-2.9849,-2.9477,-2.976,-2.879,-2.9139,-3.1398,-3.2394,-3.2797,-3.2825,-3.3492,-3.3626,-3.2971,-3.2667,-3.2274,-3.1735,-3.1735,-3.1122,-2.9713,-2.9374,-2.8431,-2.7012,-2.8655,-2.9504,-2.9487,-3.1807,-3.293,-3.3031,-3.2152,-3.2008,-3.2397,-3.195,-3.2353,-3.331,-3.3808,-3.4461,-3.5133,-3.5424,-3.5504,-3.54,-3.4711,-3.4472,-3.4262,-3.2946,-3.2512,-3.2392,-3.1676,-3.1482,-3.139,-3.0702,-3.0372,-3.0043,-2.9116,-2.8742,-2.8652,-2.8831,-2.8487,-2.8263,-2.8771,-2.8472,-2.8128,-2.8128,-2.8128,-2.8293,-2.8786,-2.8308,-2.8248,-2.9415,-2.8038,-2.6931,-2.7126,-2.6408,-2.5884,-2.5884,-2.4687,-2.4088,-2.4537,-2.3999,-2.3595,-2.3595,-2.3595,-2.3991,-2.495,-2.5144,-2.5598,-2.647,-2.6624,-2.6691,-2.6691,-2.6894,-2.6894,-2.6691,-2.6911,-2.6996,-1.9328,-1.8573,-1.7963,-1.8955,-1.9101,-1.9183,-1.9899,-2.1558,-2.3144,-2.3483,-2.4514,-2.5246,-2.4903,-2.4634,-2.5033,-2.667,-2.7031,-2.749,-2.8668,-2.8824,-2.8622,-2.8237,-2.7095,-2.6573,-2.701,-2.9146,-3.0868,-3.169,-3.2261,-3.2521,-3.2353,-3.2813,-3.2332,-3.0432,-3.0317,-2.9713,-2.8398,-2.7976,-2.7545,-2.7012,-2.7815,-2.8666,-2.9476,-3.1319,-3.2554,-3.298,-3.1373,-3.0934,-3.1461,-3.1302,-3.1267,-3.1462,-3.331,-3.4027,-3.4177,-3.5133,-3.5504,-3.54,-3.4711,-3.4472,-3.4262,-3.2946,-3.2512,-3.2392,-3.1676,-3.1482,-3.139,-3.0702,-3.0073,-2.9609,-2.9564,-2.9086,-2.8757,-2.94,-2.9535,-2.952,-2.9549,-2.9535,-2.952,-2.952,-2.952,-2.9535,-2.9549,-2.9011,-2.8801,-2.949,-2.8412,-2.7784,-2.8457,-2.738,-2.6557,-2.6557,-2.5375,-2.4567,-2.4582,-2.3999,-2.3595,-2.3595,-2.3595,-2.3837,-2.4389,-2.4934,-2.5449,-2.6013,-2.647,-2.6691,-2.6691,-2.7435,-2.7402,-2.6708,-2.7452,-2.7755,-1.6486,-1.6325,-1.6281,-1.7307,-1.7851,-1.8002,-1.7914,-1.9389,-2.0742,-2.0886,-2.203,-2.2783,-2.215,-2.3244,-2.396,-2.2989,-2.391,-2.4544,-2.3607,-2.3458,-2.3206,-2.2887,-2.2392,-2.2474,-2.3591,-2.6392,-2.8177,-2.8188,-2.9441,-2.9934,-2.926,-2.9702,-2.9676,-2.9006,-2.9006,-2.8804,-2.8291,-2.7881,-2.7441,-2.7012,-2.8359,-2.9396,-3.0173,-3.197,-3.2478,-3.1926,-3.1373,-3.1035,-3.0821,-3.0444,-3.062,-3.1241,-3.1888,-3.2522,-3.3171,-3.4177,-3.4476,-3.4507,-3.449,-3.4188,-3.3679,-3.2796,-3.2213,-3.1765,-3.1541,-3.1482,-3.1422,-3.1255,-3.1046,-3.0776,-3.0313,-3.0028,-2.9924,-3.0133,-2.9879,-2.9699,-3.0103,-2.9864,-2.9579,-2.9579,-2.9579,-2.9714,-3.0118,-2.9669,-2.9325,-2.9549,-2.8831,-2.8173,-2.7949,-2.7141,-2.6752,-2.72,-2.6063,-2.527,-2.527,-2.4672,-2.4283,-2.4283,-2.4164,-2.4792,-2.6255,-2.6419,-2.6953,-2.7964,-2.7636,-2.7435,-2.7435,-2.7689,-2.7654,-2.7452,-2.823,-2.8602,-1.4306,-1.5164,-1.6016,-1.6395,-1.7008,-1.7334,-1.6748,-1.736,-1.8066,-1.8222,-1.9516,-2.041,-1.9752,-2.0849,-2.1339,-1.9889,-2.0912,-2.1389,-1.9956,-2.0071,-2.0193,-1.9953,-1.9835,-2.0357,-2.1823,-2.4026,-2.5545,-2.6074,-2.7452,-2.8087,-2.7741,-2.8066,-2.8291,-2.8291,-2.8291,-2.8291,-2.8291,-2.7881,-2.7373,-2.6787,-2.8126,-2.9149,-2.9817,-3.104,-3.1531,-3.1361,-3.0984,-3.0746,-3.057,-3.0018,-3.0139,-3.0771,-3.1031,-3.1609,-3.2249,-3.3171,-3.3739,-3.4033,-3.4095,-3.3844,-3.335,-3.2452,-3.1884,-3.1482,-3.1482,-3.1482,-3.1482,-3.1482,-3.136,-3.112,-3.0926,-3.0687,-3.0567,-3.0806,-3.0567,-3.0387,-3.0791,-3.0552,-3.0283,-3.0283,-3.0283,-3.0402,-3.0806,-3.0552,-3.0118,-2.9654,-2.9415,-2.8951,-2.8053,-2.735,-2.7096,-2.7565,-2.6602,-2.5959,-2.5959,-2.536,-2.5062,-2.5258,-2.4952,-2.5633,-2.7535,-2.7289,-2.769,-2.8975,-2.8484,-2.823,-2.823,-2.8501,-2.8501,-2.8247,-2.9025,-2.9381,-1.2741,-1.5001,-1.6953,-1.6274,-1.6648,-1.6936,-1.623,-1.5602,-1.5215,-1.5601,-1.7218,-1.834,-1.7852,-1.753,-1.7439,-1.7588,-1.7954,-1.8079,-1.7819,-1.8756,-1.9455,-1.9363,-1.9379,-1.9987,-2.1639,-2.1886,-2.2841,-2.5402,-2.6374,-2.7148,-2.7607,-2.8027,-2.8271,-2.8291,-2.8291,-2.8291,-2.8291,-2.7851,-2.7226,-2.6416,-2.7266,-2.7886,-2.8545,-2.8803,-2.9791,-3.1204,-3.0269,-3.0118,-3.0532,-3.0005,-2.9792,-2.9869,-3.0758,-3.1106,-3.1254,-3.2177,-3.3101,-3.384,-3.3543,-3.3423,-3.3275,-3.2003,-3.1497,-3.1482,-3.1482,-3.1482,-3.1482,-3.1482,-3.1061,-3.0717,-3.1302,-3.1046,-3.0717,-3.1375,-3.1482,-3.1482,-3.1482,-3.1482,-3.1482,-3.1482,-3.1482,-3.1482,-3.1482,-3.1482,-3.1106,-2.9864,-3.0118,-3.0013,-2.8801,-2.8083,-2.7715,-2.7619,-2.7066,-2.6662,-2.6602,-2.6019,-2.5909,-2.6452,-2.5877,-2.635,-2.8201,-2.7564,-2.7811,-2.9076,-2.9062,-2.9045,-2.9042,-2.9753,-2.9736,-2.9059,-2.9803,-3.0176,-1.0741,-1.2711,-1.4519,-1.4633,-1.4811,-1.4878,-1.4675,-1.4843,-1.4929,-1.4589,-1.5902,-1.6568,-1.5128,-1.5982,-1.6175,-1.388,-1.4678,-1.55,-1.5268,-1.568,-1.642,-1.7337,-1.7648,-1.8222,-1.9314,-1.972,-2.0966,-2.3523,-2.5137,-2.6387,-2.7139,-2.7588,-2.7969,-2.8281,-2.8291,-2.8291,-2.8291,-2.7549,-2.707,-2.6846,-2.7314,-2.7431,-2.7221,-2.919,-2.9773,-2.9494,-3.0096,-3.0256,-2.9993,-2.9854,-2.9792,-2.9792,-3.0075,-3.0139,-3.0279,-3.118,-3.1669,-3.1928,-3.2311,-3.2882,-3.3365,-3.2527,-3.1943,-3.1482,-3.1482,-3.1482,-3.1482,-3.1482,-3.1347,-3.1258,-3.1437,-3.1347,-3.1315,-3.1437,-3.1482,-3.1482,-3.1482,-3.1482,-3.1482,-3.1482,-3.1482,-3.1482,-3.1482,-3.1482,-3.1362,-3.1091,-3.0342,-2.9699,-2.937,-2.9175,-2.8876,-2.8382,-2.8188,-2.7679,-2.6677,-2.6437,-2.6429,-2.6557,-2.6736,-2.7498,-2.9033,-2.8704,-2.9185,-3.0598,-2.955,-2.9262,-2.982,-3.0023,-3.0006,-2.9837,-3.0581,-3.092,-0.9528,-1.1001,-1.2596,-1.3079,-1.3691,-1.4093,-1.4084,-1.4379,-1.4421,-1.37,-1.444,-1.4755,-1.3478,-1.3696,-1.337,-1.1303,-1.1762,-1.2657,-1.3194,-1.3941,-1.4998,-1.6473,-1.6854,-1.7434,-1.8681,-1.9037,-2.0092,-2.2231,-2.4125,-2.5595,-2.6719,-2.7148,-2.7578,-2.7998,-2.7832,-2.7822,-2.8018,-2.7539,-2.7207,-2.7002,-2.6801,-2.6691,-2.648,-2.7679,-2.8276,-2.8536,-2.9217,-2.965,-2.9792,-2.9792,-2.9792,-2.9792,-2.9792,-2.9792,-2.9856,-3.0419,-3.0833,-3.1182,-3.1336,-3.2231,-3.3195,-3.2363,-3.1839,-3.1482,-3.1482,-3.1482,-3.1482,-3.1482,-3.1482,-3.1482,-3.1482,-3.1482,-3.1482,-3.1482,-3.1482,-3.1482,-3.1482,-3.1764,-3.1958,-3.1958,-3.1958,-3.1884,-3.1526,-3.1482,-3.1482,-3.1482,-3.0911,-3.0432,-3.0432,-2.9684,-2.9011,-2.8637,-2.8607,-2.8173,-2.7111,-2.7021,-2.7154,-2.7446,-2.7633,-2.834,-2.9756,-2.9599,-3.0006,-3.1173,-3.0378,-3.0159,-3.0581,-3.0581,-3.0581,-3.0598,-3.1004,-3.119,-0.8532,-0.9611,-1.1031,-1.186,-1.3118,-1.402,-1.373,-1.3773,-1.3804,-1.3241,-1.3284,-1.3266,-1.2623,-1.1607,-1.0512,-0.9667,-0.9643,-1.0174,-1.148,-1.2896,-1.4406,-1.6227,-1.6673,-1.7406,-1.8824,-1.8992,-1.9618,-2.1322,-2.297,-2.4629,-2.6068,-2.6627,-2.7129,-2.7568,-2.7207,-2.7197,-2.7578,-2.7529,-2.7305,-2.6924,-2.6064,-2.571,-2.5916,-2.5576,-2.6289,-2.7777,-2.7959,-2.8688,-2.9624,-2.9714,-2.9792,-2.9792,-2.9792,-2.9792,-2.9792,-2.9792,-3.0355,-3.0952,-3.0547,-3.1402,-3.2568,-3.1672,-3.1545,-3.1721,-3.1499,-3.1528,-3.1601,-3.1601,-3.1601,-3.1601,-3.1601,-3.1601,-3.1586,-3.1497,-3.1482,-3.1482,-3.1482,-3.2048,-3.2512,-3.2512,-3.2512,-3.2302,-3.1644,-3.1482,-3.1482,-3.1482,-3.1392,-3.1377,-3.1467,-3.0043,-2.8921,-2.8742,-2.8727,-2.8412,-2.7634,-2.7625,-2.781,-2.8319,-2.8428,-2.8984,-3.0133,-3.0151,-3.0446,-3.119,-3.1106,-3.1106,-3.119,-3.119,-3.119,-3.119,-3.119,-3.119,-0.6341,-0.7987,-1.0025,-1.1684,-1.3093,-1.3583,-1.1632,-1.2208,-1.3327,-1.4235,-1.3661,-1.2969,-1.2754,-1.2258,-1.1269,-0.9526,-0.9406,-0.98,-1.0359,-1.187,-1.3408,-1.4915,-1.6497,-1.7459,-1.7572,-1.7777,-1.845,-1.9826,-2.1302,-2.29,-2.4564,-2.5815,-2.6689,-2.7119,-2.7051,-2.7051,-2.7129,-2.6787,-2.6572,-2.6484,-2.5605,-2.5192,-2.5298,-2.5365,-2.5546,-2.5948,-2.7452,-2.8176,-2.8426,-2.9443,-2.9792,-2.9792,-2.9792,-2.9792,-2.9792,-2.9792,-2.9934,-3.0063,-3.0181,-3.0466,-3.0747,-3.089,-3.1951,-3.2914,-3.1591,-3.1689,-3.2347,-3.2347,-3.2347,-3.2347,-3.2347,-3.2347,-3.2213,-3.1601,-3.1482,-3.1482,-3.1482,-3.2048,-3.2512,-3.2512,-3.2512,-3.2302,-3.1644,-3.1482,-3.1482,-3.1482,-3.1046,-3.0881,-3.1407,-3.1183,-3.0612,-2.952,-2.9415,-2.8906,-2.773,-2.7625,-2.761,-2.776,-2.8654,-2.9323,-2.954,-2.9935,-3.0446,-3.119,-3.0598,-3.0598,-3.119,-3.119,-3.119,-3.119,-3.119,-3.119,-0.559,-0.7208,-0.8973,-1.0649,-1.2149,-1.2716,-1.1015,-1.1776,-1.3068,-1.3631,-1.3312,-1.2764,-1.2355,-1.1764,-1.0927,-0.9704,-0.889,-0.8837,-1.032,-1.0759,-1.1925,-1.4548,-1.5589,-1.633,-1.6927,-1.7181,-1.7599,-1.8034,-1.9471,-2.1123,-2.2808,-2.4473,-2.5629,-2.6248,-2.6777,-2.6914,-2.6689,-2.626,-2.6055,-2.6045,-2.5146,-2.4619,-2.4385,-2.4496,-2.4774,-2.5112,-2.6052,-2.7012,-2.8176,-2.8688,-2.9275,-2.9792,-2.9792,-2.9792,-2.9792,-2.9792,-2.9792,-2.9781,-2.9615,-3.0021,-3.0752,-3.0596,-3.1612,-3.2499,-3.0871,-3.1309,-3.2214,-3.1924,-3.2024,-3.2338,-3.2467,-3.2512,-3.2347,-3.1631,-3.1794,-3.2138,-3.2482,-3.3066,-3.3529,-3.3529,-3.3529,-3.3215,-3.2213,-3.2048,-3.1928,-3.1526,-3.1255,-3.1165,-3.1437,-3.1482,-3.115,-3.0163,-2.9774,-2.919,-2.8188,-2.7784,-2.7625,-2.7625,-2.8717,-2.9406,-2.9406,-3.0244,-3.0533,-3.0229,-3.0516,-3.0516,-3.0212,-3.087,-3.119,-3.119,-3.119,-3.119,-0.5023,-0.6421,-0.7997,-0.9653,-1.1074,-1.1784,-1.0805,-1.1799,-1.2948,-1.3224,-1.3172,-1.2968,-1.2616,-1.1672,-1.0754,-1.0223,-0.8638,-0.8134,-1.0009,-0.9817,-1.0653,-1.3766,-1.4542,-1.5236,-1.6514,-1.6881,-1.6954,-1.6727,-1.7909,-1.9675,-2.1921,-2.3625,-2.4836,-2.5235,-2.6177,-2.6472,-2.5833,-2.5703,-2.5596,-2.5586,-2.4697,-2.4111,-2.3789,-2.3691,-2.3967,-2.4457,-2.4957,-2.6119,-2.7763,-2.8267,-2.9015,-2.9792,-2.9792,-2.9792,-2.9792,-2.9792,-2.9792,-2.9729,-2.9277,-2.9896,-3.083,-3.0411,-3.1113,-3.1957,-3.0599,-3.1016,-3.1968,-3.166,-3.1953,-3.2356,-3.2629,-3.2721,-3.2557,-3.1898,-3.2138,-3.2736,-3.3529,-3.4113,-3.4472,-3.4472,-3.4472,-3.4053,-3.2736,-3.2632,-3.2452,-3.1601,-3.1721,-3.1898,-3.1706,-3.1676,-3.1539,-3.0986,-3.0238,-2.952,-2.8861,-2.8308,-2.7949,-2.7799,-2.8808,-2.9339,-2.9225,-3.0251,-3.0335,-2.9329,-3.0318,-3.0335,-2.9313,-3.0335,-3.0797,-3.0838,-3.0935,-3.1015,-0.3577,-0.5152,-0.6798,-0.9535,-1.0709,-1.1123,-1.0698,-1.1781,-1.3219,-1.4323,-1.411,-1.3989,-1.4827,-1.3408,-1.1875,-1.1403,-0.9403,-0.8024,-0.8413,-0.9029,-1.0127,-1.1826,-1.3622,-1.5163,-1.6235,-1.6573,-1.6734,-1.6707,-1.6827,-1.8736,-2.2823,-2.4645,-2.5058,-2.389,-2.5096,-2.5223,-2.3945,-2.4746,-2.5127,-2.5117,-2.4258,-2.3828,-2.3779,-2.3379,-2.3174,-2.3387,-2.5473,-2.6472,-2.6801,-2.8791,-2.9702,-2.9792,-2.9792,-2.9792,-2.9792,-2.9792,-2.9792,-2.9779,-2.9729,-2.9819,-2.9921,-2.9883,-3.1088,-3.2387,-3.164,-3.1502,-3.1819,-3.2682,-3.3005,-3.31,-3.3312,-3.341,-3.3245,-3.2587,-3.2467,-3.2856,-3.4113,-3.4442,-3.4472,-3.4472,-3.4472,-3.4053,-3.2736,-3.3006,-3.2976,-3.1719,-3.2557,-3.3095,-3.2497,-3.2422,-3.2392,-3.2332,-3.118,-3.0163,-2.9549,-2.943,-2.9146,-2.8547,-2.9108,-2.9211,-2.8637,-2.9225,-2.9508,-2.9399,-2.9508,-2.9508,-2.9399,-2.9508,-2.9585,-2.9585,-3.0123,-3.0393,-0.1315,-0.3182,-0.5465,-0.8173,-0.9087,-0.9569,-1.0784,-1.1383,-1.201,-1.322,-1.3647,-1.401,-1.465,-1.3481,-1.2202,-1.1405,-0.9304,-0.7788,-0.7662,-0.7513,-0.838,-1.1101,-1.2218,-1.3605,-1.5787,-1.6273,-1.6446,-1.6446,-1.7211,-1.8417,-2.0175,-2.1786,-2.2777,-2.3075,-2.3573,-2.3965,-2.4146,-2.3551,-2.3632,-2.4287,-2.3682,-2.3398,-2.3389,-2.3213,-2.3135,-2.3135,-2.4059,-2.4808,-2.563,-2.7139,-2.8199,-2.8858,-2.9534,-2.9792,-2.9792,-2.9792,-2.9792,-2.9792,-2.9792,-2.9792,-2.9856,-3.0482,-3.0882,-3.0967,-2.9836,-3.0355,-3.146,-3.1718,-3.2326,-3.2936,-3.3365,-3.32,-3.2946,-3.308,-3.341,-3.3844,-3.4367,-3.4801,-3.51,-3.51,-3.51,-3.4801,-3.3858,-3.3918,-3.3769,-3.2856,-3.3155,-3.3395,-3.314,-3.3095,-3.2961,-3.2557,-3.1315,-3.0402,-3.0163,-2.9804,-2.9475,-2.9205,-2.9378,-2.936,-2.9082,-2.931,-2.9019,-2.8275,-2.9003,-2.9003,-2.8275,-2.9019,-2.9406,-2.9406,-2.9629,-2.9761,-0.0708,-0.247,-0.4586,-0.7727,-0.8506,-0.8953,-1.064,-1.0997,-1.1351,-1.2472,-1.3294,-1.3857,-1.4049,-1.3209,-1.2096,-1.096,-0.9004,-0.7548,-0.7325,-0.6589,-0.7313,-1.0616,-1.1122,-1.2354,-1.5325,-1.5919,-1.6146,-1.6146,-1.6985,-1.7552,-1.7552,-1.8995,-2.026,-2.144,-2.2218,-2.2793,-2.3261,-2.2778,-2.2957,-2.3779,-2.335,-2.3135,-2.3135,-2.3135,-2.3135,-2.3135,-2.3474,-2.4049,-2.4872,-2.6378,-2.7441,-2.8176,-2.9365,-2.9792,-2.9792,-2.9792,-2.9792,-2.9792,-2.9792,-2.9792,-2.9934,-3.0558,-3.0498,-2.9848,-2.872,-2.952,-3.099,-3.1392,-3.2302,-3.3268,-3.368,-3.3305,-3.2961,-3.3634,-3.4143,-3.4532,-3.4741,-3.516,-3.5504,-3.5504,-3.5504,-3.5295,-3.4592,-3.4637,-3.4487,-3.3619,-3.3844,-3.4023,-3.3814,-3.3784,-3.3604,-3.314,-3.1898,-3.1016,-3.0821,-3.0417,-3.0073,-2.9864,-2.9796,-2.9613,-2.9265,-2.9401,-2.8918,-2.7871,-2.87,-2.87,-2.7856,-2.8545,-2.8857,-2.8857,-2.9042,-2.9316,-0.2399,-0.3606,-0.4558,-0.869,-0.9716,-0.9771,-0.9949,-1.077,-1.1698,-1.2516,-1.3316,-1.3703,-1.3471,-1.2768,-1.1747,-1.023,-0.8594,-0.7488,-0.7325,-0.6692,-0.7281,-1.0118,-1.0564,-1.1761,-1.4731,-1.5491,-1.5832,-1.5832,-1.5832,-1.5832,-1.5832,-1.7044,-1.8085,-1.8724,-2.1249,-2.1925,-2.0666,-2.2769,-2.3789,-2.3779,-2.335,-2.3135,-2.3135,-2.3135,-2.3135,-2.3135,-2.4296,-2.4787,-2.4957,-2.7186,-2.8096,-2.8176,-2.9365,-2.9792,-2.9792,-2.9792,-2.9792,-2.9792,-2.9792,-2.9792,-2.9792,-2.9792,-2.9792,-2.9679,-2.9101,-2.9484,-3.0513,-3.2143,-3.3499,-3.4472,-3.4472,-3.3978,-3.3649,-3.4307,-3.4472,-3.4666,-3.5355,-3.5504,-3.5504,-3.5504,-3.5504,-3.5295,-3.4592,-3.504,-3.504,-3.3694,-3.4637,-3.5235,-3.4547,-3.4472,-3.4472,-3.4457,-3.3275,-3.2228,-3.1526,-3.1452,-3.1225,-3.0537,-3.0492,-2.9909,-2.8652,-2.9274,-2.9304,-2.8592,-2.8592,-2.8592,-2.8577,-2.7955,-2.7625,-2.761,-2.8238,-2.9134,-0.0811,-0.2969,-0.5387,-0.7633,-0.9264,-1.011,-0.9344,-1.0372,-1.1479,-1.1334,-1.2288,-1.3046,-1.2744,-1.1716,-1.0531,-0.9276,-0.7913,-0.6766,-0.6246,-0.6986,-0.8055,-0.9196,-1.1452,-1.3548,-1.5345,-1.5718,-1.5832,-1.5832,-1.5832,-1.5832,-1.5832,-1.6204,-1.6942,-1.7983,-1.8832,-1.9471,-1.9835,-2.0554,-2.1311,-2.2128,-2.2744,-2.3135,-2.3135,-2.3135,-2.3135,-2.3135,-2.3464,-2.3637,-2.38,-2.6047,-2.7046,-2.7209,-2.904,-2.9792,-2.9792,-2.9792,-2.9792,-2.9792,-2.9792,-2.9792,-2.9792,-2.9792,-2.9693,-2.9434,-2.9,-2.9828,-3.1223,-3.3045,-3.3995,-3.4592,-3.5055,-3.4681,-3.4337,-3.5011,-3.5175,-3.5235,-3.5459,-3.5504,-3.5504,-3.5504,-3.5504,-3.5429,-3.522,-3.5355,-3.537,-3.4936,-3.5235,-3.5429,-3.5205,-3.5175,-3.4996,-3.4532,-3.3709,-3.2916,-3.2258,-3.1735,-3.1377,-3.1225,-3.0761,-3.0328,-2.9924,-2.9699,-2.949,-2.928,-2.9265,-2.9056,-2.8607,-2.8382,-2.8038,-2.761,-2.781,-2.8543,-0.0736,-0.2892,-0.5293,-0.7172,-0.8517,-0.9248,-0.9174,-1.0013,-1.0777,-1.0442,-1.1282,-1.185,-1.1147,-1.0287,-0.9233,-0.7887,-0.6977,-0.627,-0.5762,-0.6737,-0.7849,-0.8713,-1.1615,-1.3872,-1.464,-1.5409,-1.5832,-1.5832,-1.5832,-1.5832,-1.5832,-1.5832,-1.6204,-1.6943,-1.7412,-1.8048,-1.8772,-1.9761,-2.0576,-2.1293,-2.2492,-2.3135,-2.3135,-2.3135,-2.3135,-2.3135,-2.3135,-2.3135,0.0,-2.4955,-2.5975,-2.6603,-2.8005,-2.9083,-2.9767,-2.9553,-2.9603,-2.9792,-2.9792,-2.9792,-2.9754,-2.9528,-2.9338,-2.9267,-2.9625,-3.0524,-3.1748,-3.3101,-3.417,-3.4966,-3.5385,-3.519,-3.4966,-3.54,-3.5504,-3.5504,-3.5504,-3.5504,-3.5504,-3.5504,-3.5504,-3.5504,-3.5504,-3.5504,-3.5504,-3.5504,-3.5504,-3.5504,-3.5504,-3.5504,-3.534,-3.4906,-3.4262,-3.3604,-3.2946,-3.2048,-3.1482,-3.1482,-3.1135,-3.0776,-3.0507,-3.0387,-3.0193,-2.9939,-2.9924,-2.9609,-2.8966,-2.8457,-2.7993,-2.7625,-2.7625,-2.8125,0.0,-0.3175,-0.4399,-0.7099,-0.7373,-0.7431,-0.9086,-0.9555,0.0,-0.9599,-1.01,-1.0143,-0.881,-0.8514,-0.7948,-0.6305,-0.5961,-0.5899,-0.5789,-0.6105,-0.7009,-0.8645,-1.122,-1.2871,-1.3018,-1.4621,-1.573,-1.5825,-1.5832,-1.5832,-1.5832,-1.5832,-1.5832,-1.5832,-1.6943,-1.7598,-1.7598,-1.9827,-2.1069,-2.1159,-2.2328,-2.296,-2.3047,-2.3047,-2.3047,-2.3047,-2.3047,-2.3047,-2.3104,-2.3846,-2.506,-2.6445,-2.6511,-2.7846,-2.9603,-2.9063,-2.9214,-2.9679,-2.9679,-2.9679,-2.9591,-2.9051,-2.8875,-2.9113,-3.0585,-3.1397,-3.1889,-3.2441,-3.3973,-3.5359,-3.5359,-3.5439,-3.5504,-3.5504,-3.5504,-3.5504,-3.5504,-3.5504,-3.5504,-3.5504,-3.5504,-3.5504,-3.5504,-3.5504,-3.5504,-3.5504,-3.5504,-3.5504,-3.5504,-3.5504,-3.5504,-3.5504,-3.4846,-3.4158,-3.3544,-3.2332,-3.1526,-3.1482,-3.1482,-3.124,-3.0612,-3.1195,-3.124,-3.0582,-3.0522,-3.0193,-2.9579,-2.8278,-2.767,-2.7625,-2.7625,-2.7894,-0.1138,0.0,-0.3694,-0.4916,-0.5555,-0.6119,0.0,-0.7722,-0.7988,-0.7433,-0.7888,-0.815,-0.745,-0.6959,-0.6515,-0.6216,-0.5811,-0.5582,-0.5749,-0.6454,-0.7887,-1.0386,-1.0669,-1.1367,-1.315,-1.3954,-1.4752,-1.573,-1.5832,-1.5832,-1.5832,-1.5832,-1.5832,-1.5832,-1.6109,-1.6292,-1.6292,-1.7492,-1.8612,-1.9423,-2.0372,-2.1363,-2.2178,-2.2178,-2.2178,-2.2178,-2.2178,-2.2178,-2.2252,-2.3237,-2.4367,-2.5475,-2.6306,-2.7383,-2.8486,-2.8348,-2.8386,-2.8499,-2.8499,-2.8499,-2.8473,-2.8348,-2.8298,-2.8398,-2.9238,-3.0303,-3.1495,-3.2352,-3.3463,-3.4327,-3.4327,-3.4905,-3.5504,-3.5504,-3.5504,-3.5504,-3.5504,-3.5504,-3.5504,-3.5504,-3.5504,-3.5504,-3.5504,-3.5504,-3.5504,-3.5504,-3.5504,-3.5504,-3.5504,-3.5504,-3.5504,-3.5504,-3.4442,-3.3664,-3.3499,-3.2751,-3.2078,-3.1511,-3.1482,-3.1407,-3.13,-3.145,-3.1465,-3.13,-3.0776,-3.0193,-2.9579,-2.8757,-2.8083,-2.7625,-2.7625,-2.7894,-0.0891,-0.1915,-0.2961,-0.3739,-0.4188,-0.4752,-0.5874,-0.6391,-0.6528,-0.6171,-0.6377,-0.6347,-0.5421,-0.4958,-0.4689,-0.4538,-0.4249,-0.4365,-0.5277,-0.626,-0.7588,-0.9423,-0.9742,-1.0292,-1.168,-1.2565,-1.3494,-1.4854,-1.4949,-1.5146,-1.5737,-1.5832,-1.5765,-1.5631,-1.5631,-1.5698,-1.5832,-1.6692,-1.7514,-1.8045,-1.9522,-2.055,-2.1172,-2.1617,-2.1885,-2.1885,-2.1885,-2.1885,-2.1948,-2.2271,-2.3154,-2.4401,-2.4933,-2.6098,-2.7434,-2.7663,-2.7896,-2.8109,-2.8109,-2.7946,-2.777,-2.8021,-2.8109,-2.821,-2.8762,-2.9681,-3.0833,-3.2249,-3.331,-3.4095,-3.4543,-3.5067,-3.5504,-3.5504,-3.5504,-3.5504,-3.5504,-3.5504,-3.5504,-3.5504,-3.5504,-3.5504,-3.5504,-3.5504,-3.5504,-3.5504,-3.5504,-3.5504,-3.5504,-3.5504,-3.5385,-3.507,-3.4382,-3.3709,-3.3095,-3.2721,-3.2362,-3.2003,-3.1988,-3.1988,-3.1988,-3.1631,-3.139,-3.1061,-3.0687,-3.0193,-2.9579,-2.8921,-2.8553,-2.8449,-2.8145,-2.8319,-0.0611,-0.1144,-0.1703,-0.2604,-0.2777,-0.3127,-0.4539,-0.4827,-0.4837,-0.4953,-0.5012,-0.4638,-0.3398,-0.3193,-0.3044,-0.2573,-0.2567,-0.3132,-0.4718,-0.5826,-0.6774,-0.7438,-0.8489,-0.9378,-0.9803,-1.0872,-1.2169,-1.3469,-1.3564,-1.4046,-1.5315,-1.5409,-1.5391,-1.5337,-1.5331,-1.5444,-1.5698,-1.638,-1.6832,-1.7093,-1.8742,-1.9596,-1.9773,-2.091,-2.1433,-2.1433,-2.1598,-2.1689,-2.166,-2.1279,-2.1949,-2.3277,-2.3241,-2.4539,-2.639,-2.6793,-2.7301,-2.7858,-2.7858,-2.7544,-2.7256,-2.7795,-2.7984,-2.8097,-2.8737,-2.9277,-3.0025,-3.1874,-3.3031,-3.4027,-3.4986,-3.5359,-3.5504,-3.5504,-3.5504,-3.5504,-3.5504,-3.5504,-3.5504,-3.5504,-3.5504,-3.5504,-3.5504,-3.5504,-3.5504,-3.5504,-3.5504,-3.5504,-3.5504,-3.5415,-3.516,-3.4681,-3.4442,-3.3873,-3.2766,-3.2766,-3.2721,-3.2527,-3.2512,-3.2512,-3.2512,-3.1884,-3.1255,-3.0672,-3.0657,-3.0357,-2.9729,-2.9071,-2.8979,-2.9319,-2.8788,-2.8779,0.0781,0.1283,0.1381,-0.0113,-0.0398,-0.0576,-0.157,-0.1777,-0.1937,-0.2556,-0.2724,-0.2693,-0.2659,-0.2615,-0.2633,-0.2661,-0.2773,-0.3343,-0.47,-0.5263,-0.5917,-0.686,-0.7653,-0.8389,-0.9178,-0.9757,-1.0635,-1.176,-1.1836,-1.2395,-1.3519,-1.361,-1.4054,-1.503,-1.503,-1.505,-1.5097,-1.4974,-1.5409,-1.6238,-1.6331,-1.6833,-1.7744,-1.8896,-1.9467,-1.9467,-2.0447,-2.0771,-2.0762,-2.0693,-2.1296,-2.2227,-2.2231,-2.3457,-2.523,-2.5302,-2.5905,-2.6716,-2.6716,-2.6653,-2.6747,-2.7231,-2.7406,-2.7595,-2.8612,-2.8988,-2.9365,-3.0974,-3.2105,-3.3031,-3.3959,-3.4839,-3.5504,-3.5504,-3.5504,-3.5504,-3.5504,-3.5504,-3.5504,-3.5504,-3.5504,-3.5504,-3.5504,-3.5504,-3.5504,-3.5504,-3.5504,-3.5504,-3.5504,-3.4996,-3.4816,-3.5295,-3.4322,-3.3559,-3.3365,-3.3858,-3.3709,-3.2587,-3.2512,-3.2512,-3.2512,-3.1884,-3.1422,-3.1375,-3.1375,-3.1046,-3.0357,-2.9744,-2.9199,-2.8718,-2.856,-2.8559,0.1451,0.2371,0.3032,0.2642,0.1984,0.1187,0.0287,-0.0225,-0.05,-0.0444,-0.1058,-0.1402,-0.0683,-0.0881,-0.1178,-0.1221,-0.1762,-0.2437,-0.2993,-0.4261,-0.5381,-0.5979,-0.6918,-0.7615,-0.8204,-0.8497,-0.9161,-1.0357,-1.044,-1.0992,-1.2193,-1.229,-1.2502,-1.2909,-1.3533,-1.3661,-1.3366,-1.3763,-1.445,-1.5268,-1.5526,-1.5944,-1.6519,-1.823,-1.9036,-1.9036,-2.0157,-2.0566,-2.0566,-2.0566,-2.0857,-2.1298,-2.1811,-2.2553,-2.3514,-2.4564,-2.5664,-2.6533,-2.6533,-2.6533,-2.6571,-2.6753,-2.703,-2.7431,-2.8235,-2.8687,-2.9252,-3.0799,-3.1536,-3.2177,-3.3602,-3.4327,-3.4839,-3.5359,-3.5504,-3.5504,-3.5504,-3.5504,-3.5504,-3.5504,-3.5504,-3.5504,-3.5504,-3.5504,-3.5504,-3.5504,-3.5504,-3.5504,-3.5504,-3.5235,-3.4876,-3.4457,-3.3858,-3.3215,-3.2497,-3.2706,-3.2931,-3.3036,-3.2706,-3.2362,-3.2003,-3.1631,-3.1302,-3.0986,-3.1345,-3.1031,-2.9998,-2.9729,-2.9433,-2.9098,-2.9013,-2.9134,0.1895,0.3028,0.3978,0.4528,0.38,0.2786,0.1973,0.1339,0.1027,0.1435,0.0461,-0.0115,0.0964,0.0527,0.0,0.0,-0.0687,-0.1286,-0.1595,-0.3137,-0.4479,-0.5338,-0.6186,-0.6908,-0.7472,-0.7492,-0.7838,-0.879,-0.8836,-0.944,-1.0691,-1.0781,-1.0795,-1.0891,-1.1927,-1.2348,-1.1864,-1.2952,-1.3768,-1.4208,-1.4788,-1.5071,-1.5153,-1.7158,-1.804,-1.8118,-1.9388,-1.9947,-1.9957,-2.0294,-2.0352,-2.036,-2.1293,-2.1962,-2.2553,-2.4337,-2.5664,-2.6533,-2.6533,-2.6533,-2.6533,-2.6533,-2.6753,-2.7193,-2.7745,-2.821,-2.8798,-3.0125,-3.0594,-3.1156,-3.3129,-3.3808,-3.4177,-3.4986,-3.5133,-3.5213,-3.5439,-3.5504,-3.5504,-3.5504,-3.5504,-3.5504,-3.5504,-3.5504,-3.5504,-3.5504,-3.5504,-3.5504,-3.5504,-3.537,-3.4861,-3.3829,-3.3589,-3.308,-3.2078,-3.1704,-3.2033,-3.3185,-3.2647,-3.2123,-3.1779,-3.1556,-3.1285,-3.0746,-3.127,-3.0956,-2.9804,-2.9654,-2.9486,-2.9285,-2.9234,-2.9451,0.2174,0.337,0.4599,0.4514,0.4535,0.4414,0.3901,0.3675,0.3383,0.2904,0.2034,0.1377,0.1302,0.0554,0.0,0.0,-0.0078,-0.0494,-0.1633,-0.1935,-0.2852,-0.509,-0.5543,-0.6119,-0.7005,-0.7173,-0.7119,-0.707,-0.701,-0.742,-0.8561,-0.8643,-0.9133,-1.0192,-1.1254,-1.1727,-1.1692,-1.275,-1.326,-1.3307,-1.336,-1.3353,-1.3426,-1.4565,-1.5095,-1.5173,-1.7247,-1.809,-1.8201,-1.942,-1.9736,-1.9463,-2.033,-2.1821,-2.3514,-2.4564,-2.5664,-2.6533,-2.6533,-2.6533,-2.6533,-2.6533,-2.6559,-2.6697,-2.7168,-2.7369,-2.7519,-2.8132,-2.8661,-2.9664,-3.2099,-3.338,-3.4027,-3.4095,-3.4095,-3.4394,-3.5294,-3.5504,-3.5504,-3.5504,-3.5504,-3.5504,-3.5504,-3.5504,-3.5504,-3.5504,-3.5504,-3.5504,-3.5504,-3.4951,-3.4517,-3.4412,-3.3858,-3.3455,-3.3365,-3.2243,-3.1839,-3.2542,-3.1958,-3.1854,-3.2422,-3.1854,-3.1452,-3.1407,-3.1452,-3.1165,-3.0432,-2.9864,-2.9289,-2.8681,-2.8609,-2.8606,0.1949,0.3375,0.4558,0.4596,0.4575,0.4569,0.4559,0.4207,0.3969,0.4128,0.3327,0.2395,0.1633,0.1078,0.053,0.0072,0.0,-0.0162,-0.0592,-0.1284,-0.2149,-0.3091,-0.4407,-0.5454,-0.5834,-0.6433,-0.6844,-0.679,-0.6732,-0.6861,-0.7349,-0.7349,-0.7514,-0.8004,-0.902,-0.968,-1.0081,-1.1093,-1.1755,-1.2111,-1.2852,-1.3213,-1.3206,-1.4343,-1.4794,-1.4949,-1.7018,-1.7933,-1.7942,-1.9075,-1.9434,-1.9316,-1.9639,-2.1156,-2.3149,-2.3578,-2.4859,-2.6533,-2.6533,-2.6533,-2.6533,-2.6533,-2.6533,-2.6634,-2.7118,-2.7281,-2.7394,-2.7946,-2.8928,-3.0051,-3.0962,-3.1775,-3.2393,-3.2961,-3.3602,-3.4095,-3.4476,-3.5067,-3.5504,-3.5504,-3.5504,-3.5504,-3.5504,-3.5504,-3.5504,-3.5504,-3.5145,-3.4861,-3.4861,-3.4277,-3.3709,-3.3305,-3.2677,-3.2273,-3.2273,-3.1824,-3.1465,-3.127,-3.1435,-3.1586,-3.1898,-3.1601,-3.133,-3.0911,-3.0896,-3.0567,-2.9924,-2.928,-2.8846,-2.8592,-2.8511,-2.8511,0.1949,0.3345,0.4543,0.4592,0.4575,0.4626,0.4979,0.4747,0.464,0.519,0.4414,0.3271,0.2229,0.1747,0.132,0.0569,0.0378,0.0318,0.0,-0.0669,-0.1343,-0.1761,-0.3098,-0.4182,-0.4601,-0.5573,-0.6113,-0.6069,-0.6351,-0.6468,-0.6417,-0.6417,-0.6417,-0.6417,-0.7394,-0.8103,-0.8556,-0.9796,-1.0637,-1.1018,-1.2104,-1.2645,-1.2652,-1.3471,-1.3885,-1.396,-1.5667,-1.6698,-1.7113,-1.8209,-1.8933,-1.9277,-1.9131,-2.039,-2.2291,-2.2492,-2.4002,-2.5822,-2.6108,-2.637,-2.6533,-2.6533,-2.6533,-2.6596,-2.6917,-2.7017,-2.7105,-2.7482,-2.8477,-2.9392,-2.9392,-3.0275,-3.1389,-3.2033,-3.2664,-3.3171,-3.3518,-3.4109,-3.4706,-3.4986,-3.5052,-3.5133,-3.5439,-3.5504,-3.5429,-3.522,-3.4771,-3.4397,-3.4188,-3.3769,-3.3245,-3.2587,-3.1928,-3.1482,-3.1482,-3.1482,-3.133,-3.0851,-3.1061,-3.121,-3.121,-3.121,-3.1091,-3.0836,-3.0612,-3.0193,-2.9579,-2.8921,-2.8591,-2.8556,-2.8501,-2.8606,0.2174,0.3345,0.4519,0.4519,0.4579,0.4809,0.5325,0.5428,0.5603,0.6215,0.52,0.3951,0.3082,0.2687,0.2228,0.1454,0.1343,0.1027,0.0162,0.0,-0.042,-0.1675,-0.1759,-0.2261,-0.3432,-0.4344,-0.4808,-0.4693,-0.5497,-0.5959,-0.581,-0.58,-0.58,-0.58,-0.6785,-0.7274,-0.727,-0.9104,-1.0089,-1.0089,-1.0998,-1.1423,-1.1436,-1.173,-1.1864,-1.1935,-1.2909,-1.3995,-1.5251,-1.6643,-1.7996,-1.9238,-1.8799,-1.9515,-2.0885,-2.1691,-2.296,-2.4366,-2.5306,-2.5963,-2.6452,-2.6521,-2.6521,-2.6533,-2.6533,-2.6533,-2.6533,-2.6533,-2.6854,-2.7281,-2.7281,-2.9254,-3.1167,-3.1167,-3.1167,-3.1449,-3.2365,-3.2579,-3.2862,-3.3794,-3.4013,-3.4298,-3.5344,-3.5489,-3.525,-3.4562,-3.4457,-3.4218,-3.3559,-3.3469,-3.323,-3.2572,-3.1928,-3.1482,-3.1482,-3.1467,-3.1467,-3.1452,-3.0866,-3.0492,-3.0507,-3.0492,-3.0806,-3.1437,-3.0836,-3.0178,-2.9564,-2.8906,-2.8576,-2.8527,-2.8511,-2.8826,0.2062,0.3345,0.4543,0.4596,0.4738,0.4969,0.542,0.5521,0.5664,0.6159,0.5636,0.4852,0.4125,0.3775,0.3257,0.2433,0.2251,0.1971,0.105,0.0909,0.0533,-0.0381,-0.1217,-0.1824,-0.2127,-0.3093,-0.3593,-0.3567,-0.4421,-0.4893,-0.4856,-0.5437,-0.5755,-0.5654,-0.5884,-0.6167,-0.6628,-0.7131,-0.8022,-0.9348,-0.9857,-1.0552,-1.143,-1.1516,-1.1557,-1.1626,-1.2582,-1.3248,-1.3697,-1.5617,-1.7207,-1.8379,-1.8242,-1.9061,-2.0329,-2.0593,-2.1572,-2.2959,-2.3795,-2.4481,-2.5054,-2.5702,-2.6126,-2.6533,-2.6533,-2.6533,-2.6533,-2.6533,-2.6854,-2.7281,-2.7281,-2.8138,-2.9004,-2.9004,-2.9548,-3.0108,-3.0378,-3.0993,-3.187,-3.3212,-3.3071,-3.3187,-3.4554,-3.4397,-3.4023,-3.3814,-3.3395,-3.2856,-3.2198,-3.2108,-3.2033,-3.1839,-3.1644,-3.1482,-3.1482,-3.1091,-3.0627,-3.0193,-2.9968,-3.0058,-3.0477,-3.0088,-2.9729,-2.9475,-2.9265,-2.9086,-2.8891,-2.8203,-2.8349,-2.9159,-2.8743,-2.8826,0.1693,0.3061,0.4371,0.4289,0.4606,0.5121,0.5572,0.5813,0.6,0.6217,0.5874,0.5424,0.509,0.4698,0.4175,0.3322,0.3243,0.2887,0.1954,0.1526,0.109,0.0582,-0.0364,-0.0946,-0.0946,-0.189,-0.2459,-0.2362,-0.3285,-0.3818,-0.3806,-0.4563,-0.4987,-0.486,-0.51,-0.5392,-0.579,-0.6113,-0.6843,-0.7923,-0.8476,-0.9336,-1.0283,-1.0956,-1.1249,-1.133,-1.2385,-1.3109,-1.3518,-1.5178,-1.6599,-1.7764,-1.7764,-1.8414,-1.9322,-1.9651,-2.0479,-2.1495,-2.2373,-2.3106,-2.3839,-2.4333,-2.478,-2.5114,-2.5485,-2.5475,-2.537,-2.5732,-2.605,-2.6302,-2.6302,-2.6553,-2.7017,-2.7896,-2.8507,-2.8912,-2.8912,-2.9661,-3.0705,-3.2023,-3.2205,-3.2605,-3.3883,-3.3754,-3.341,-3.314,-3.2542,-3.1988,-3.1526,-3.1482,-3.1482,-3.1482,-3.1482,-3.1362,-3.115,-3.0746,-3.0238,-2.9624,-2.934,-2.937,-2.9729,-2.9639,-2.9505,-2.9355,-2.8861,-2.8607,-2.8607,-2.7904,-2.8106,-2.9115,-2.8936,-2.918,0.1332,0.2603,0.3997,0.3762,0.4449,0.5281,0.5705,0.6118,0.6376,0.6244,0.5996,0.5796,0.5783,0.5447,0.4922,0.4193,0.4084,0.3767,0.2926,0.2004,0.1363,0.1294,0.0504,0.0,0.0,-0.0864,-0.1352,-0.1178,-0.2141,-0.2701,-0.2562,-0.3319,-0.3718,-0.3676,-0.4345,-0.4709,-0.4756,-0.5678,-0.617,-0.6198,-0.7096,-0.7891,-0.8575,-1.0053,-1.0823,-1.0994,-1.2152,-1.3165,-1.404,-1.4945,-1.6113,-1.7249,-1.7324,-1.7559,-1.7958,-1.8839,-1.9442,-2.0001,-2.0908,-2.1811,-2.2663,-2.2745,-2.2767,-2.2953,-2.3804,-2.3748,-2.358,-2.4406,-2.4678,-2.4691,-2.4755,-2.482,-2.5322,-2.7331,-2.7846,-2.7896,-2.7946,-2.8627,-2.9515,-3.0499,-3.1415,-3.2188,-3.3119,-3.3289,-3.311,-3.2393,-3.1795,-3.1377,-3.1319,-3.1332,-3.1302,-3.1302,-3.1302,-3.1106,-3.0477,-3.0357,-3.0088,-2.952,-2.8936,-2.8607,-2.8607,-2.9116,-2.9669,-3.0223,-2.9101,-2.8502,-2.8502,-2.7874,-2.791,-2.8511,-2.9042,-2.9673,0.1863,0.2271,0.2929,0.4287,0.5054,0.5545,0.5752,0.5874,0.5939,0.5905,0.5847,0.5769,0.5654,0.5555,0.5366,0.4928,0.4835,0.4549,0.3516,0.2746,0.1997,0.1254,0.0464,0.0,0.0,-0.0199,-0.0328,-0.0254,-0.114,-0.1637,-0.1616,-0.242,-0.2875,-0.2787,-0.2962,-0.3217,-0.3704,-0.3897,-0.4687,-0.6054,-0.6267,-0.6817,-0.7785,-0.8723,-0.9528,-1.0321,-1.0869,-1.1704,-1.2832,-1.3653,-1.4769,-1.5984,-1.66,-1.6924,-1.7051,-1.7579,-1.7889,-1.8151,-1.933,-2.0151,-2.0827,-2.1508,-2.2037,-2.2353,-2.256,-2.256,-2.2672,-2.3501,-2.3779,-2.3923,-2.4613,-2.482,-2.4946,-2.5423,-2.5837,-2.6264,-2.6716,-2.7468,-2.8492,-2.9879,-3.0425,-3.0892,-3.1555,-3.1826,-3.1649,-3.0877,-3.0733,-3.049,-2.9842,-2.9891,-2.9998,-2.9998,-2.9998,-2.9939,-2.9789,-2.931,-2.8951,-2.8816,-2.8682,-2.8607,-2.8607,-2.8218,-2.8068,-2.8203,-2.7934,-2.785,-2.7784,-2.7685,-2.791,-2.8511,-2.8654,-2.9271,0.1118,0.1594,0.2447,0.3963,0.4681,0.5033,0.5594,0.5644,0.5589,0.5589,0.5647,0.5677,0.5603,0.5532,0.5403,0.5169,0.5131,0.4889,0.4317,0.3501,0.272,0.1885,0.1009,0.0379,0.0063,0.0,0.0,0.0,-0.0432,-0.0674,-0.0664,-0.1504,-0.1896,-0.1835,-0.2177,-0.2497,-0.2843,-0.3229,-0.3877,-0.4784,-0.5155,-0.5772,-0.6582,-0.7963,-0.9101,-0.992,-1.0074,-1.0763,-1.176,-1.2708,-1.3856,-1.5093,-1.6071,-1.6543,-1.6758,-1.6982,-1.7207,-1.7478,-1.8137,-1.8843,-1.9451,-1.9912,-2.0276,-2.0546,-2.095,-2.0924,-2.1085,-2.235,-2.275,-2.2955,-2.3753,-2.4017,-2.4079,-2.4356,-2.4845,-2.531,-2.5611,-2.6349,-2.7269,-2.8282,-2.9265,-2.9834,-2.9785,-2.9631,-2.9464,-2.9406,-2.9477,-2.9498,-2.9471,-2.9555,-2.9579,-2.9579,-2.9579,-2.946,-2.9146,-2.8801,-2.8457,-2.8128,-2.8113,-2.8113,-2.8113,-2.7769,-2.7724,-2.8053,-2.7739,-2.7625,-2.7625,-2.7625,-2.776,-2.8091,-2.8638,-2.9271,-0.0103,0.0843,0.2093,0.3148,0.367,0.4119,0.4901,0.504,0.4954,0.4954,0.5249,0.5474,0.5474,0.5369,0.5233,0.5081,0.5053,0.5003,0.486,0.4111,0.3332,0.2741,0.1831,0.0977,0.0245,0.0184,0.0122,0.0,0.0,0.0,0.0,-0.0583,-0.092,-0.0896,-0.1507,-0.1898,-0.2009,-0.2752,-0.3268,-0.3403,-0.4245,-0.4975,-0.555,-0.7296,-0.8555,-0.9433,-0.9601,-1.007,-1.0766,-1.1911,-1.3058,-1.4209,-1.5352,-1.6049,-1.6514,-1.6592,-1.6846,-1.7168,-1.7246,-1.7725,-1.8241,-1.8241,-1.8241,-1.8439,-1.9162,-1.9291,-1.9489,-2.0996,-2.1673,-2.2039,-2.2772,-2.3002,-2.3263,-2.374,-2.4192,-2.4582,-2.4782,-2.5471,-2.6215,-2.6691,-2.7864,-2.8647,-2.8121,-2.7511,-2.7284,-2.7925,-2.8011,-2.8307,-2.8935,-2.901,-2.9113,-2.9235,-2.9235,-2.9011,-2.8472,-2.8427,-2.8173,-2.7655,-2.7625,-2.7625,-2.7625,-2.7625,-2.7844,-2.8412,-2.7859,-2.7625,-2.7625,-2.7625,-2.7625,-2.7625,-2.8622,-2.918,-0.109,0.0168,0.1436,0.1591,0.2258,0.2927,0.3065,0.3057,0.3049,0.3049,0.412,0.5009,0.5009,0.4992,0.4928,0.4775,0.4748,0.4697,0.4545,0.3842,0.331,0.3231,0.2536,0.177,0.1004,0.0946,0.0702,0.0057,0.0,0.0,0.0,-0.0113,-0.0169,-0.0168,-0.0224,-0.0616,-0.1229,-0.1346,-0.2074,-0.3345,-0.4144,-0.4864,-0.5487,-0.5813,-0.6824,-0.8458,-0.9336,-0.9737,-0.9932,-1.1027,-1.2019,-1.2932,-1.4013,-1.4928,-1.5635,-1.6006,-1.6253,-1.6299,-1.6689,-1.6831,-1.6918,-1.6918,-1.6918,-1.6992,-1.7101,-1.7877,-1.8797,-1.9304,-2.0679,-2.1968,-2.23,-2.2774,-2.309,-2.3226,-2.324,-2.3566,-2.4607,-2.5471,-2.6096,-2.6175,-2.6361,-2.6715,-2.7335,-2.6755,-2.6302,-2.6425,-2.6576,-2.6649,-2.6649,-2.6814,-2.7141,-2.7778,-2.7895,-2.785,-2.7724,-2.7709,-2.773,-2.7625,-2.7625,-2.7625,-2.7625,-2.7625,-2.767,-2.7709,-2.767,-2.7625,-2.7625,-2.7625,-2.7625,-2.761,-2.776,-2.84,-0.1841,-0.101,-0.0367,0.0,0.0449,0.0991,0.1723,0.191,0.2031,0.2515,0.301,0.3592,0.4151,0.461,0.4867,0.4714,0.4691,0.4636,0.4539,0.4184,0.3811,0.3354,0.3019,0.2508,0.1769,0.1371,0.0965,0.0616,0.0224,0.0,0.0,0.0,0.0,0.0,0.0,-0.0168,-0.0504,-0.0895,-0.1842,-0.3287,-0.3677,-0.4233,-0.4948,-0.5324,-0.641,-0.7954,-0.8404,-0.8799,-0.9267,-1.0382,-1.1071,-1.1576,-1.3292,-1.4179,-1.4581,-1.542,-1.585,-1.6154,-1.6289,-1.6523,-1.6665,-1.6665,-1.6665,-1.6665,-1.6665,-1.71,-1.7758,-1.8808,-1.9667,-2.0567,-2.1609,-2.2033,-2.2209,-2.2209,-2.2209,-2.2347,-2.2849,-2.3717,-2.4654,-2.544,-2.5227,-2.5166,-2.5948,-2.5528,-2.5223,-2.5621,-2.6133,-2.6574,-2.6953,-2.6732,-2.684,-2.753,-2.7245,-2.7171,-2.7595,-2.7625,-2.7625,-2.7625,-2.7625,-2.7625,-2.7625,-2.7625,-2.7625,-2.7625,-2.7625,-2.7625,-2.7625,-2.7625,-2.776,-2.8091,-2.8448,-2.8904,-0.3083,-0.2644,-0.2217,-0.1596,-0.1291,-0.0836,0.0227,0.0458,0.0576,0.1155,0.1474,0.1924,0.2909,0.3898,0.4526,0.465,0.4633,0.4592,0.4532,0.4519,0.4294,0.368,0.3622,0.3287,0.2565,0.2009,0.1563,0.1396,0.0895,0.0504,0.028,0.028,0.0168,0.0,0.0,0.0,0.0,-0.0727,-0.1675,-0.2732,-0.3121,-0.3622,-0.4236,-0.4944,-0.5923,-0.7176,-0.7557,-0.8103,-0.8884,-0.9803,-1.0307,-1.0701,-1.2459,-1.3389,-1.391,-1.4781,-1.5438,-1.5898,-1.5898,-1.6113,-1.6396,-1.6396,-1.6396,-1.6396,-1.6396,-1.6589,-1.7072,-1.8127,-1.8921,-1.9679,-2.0721,-2.1269,-2.1493,-2.1493,-2.1493,-2.1531,-2.1669,-2.2347,-2.3255,-2.4437,-2.4157,-2.39,-2.4346,-2.4112,-2.4068,-2.4776,-2.5382,-2.6026,-2.6937,-2.6624,-2.6495,-2.7036,-2.6782,-2.6782,-2.7275,-2.752,-2.7625,-2.7625,-2.7625,-2.7625,-2.7625,-2.7625,-2.7625,-2.7625,-2.7625,-2.7625,-2.7625,-2.776,-2.8042,-2.8511,-2.9134,-2.9592,-0.5457,-0.461,-0.374,-0.3124,-0.2538,-0.2047,-0.1882,-0.1913,-0.2012,-0.1956,-0.0836,0.0334,0.1114,0.2458,0.3697,0.4418,0.4529,0.4525,0.4519,0.4519,0.4463,0.446,0.4463,0.4125,0.3345,0.3231,0.2899,0.2174,0.212,0.1786,0.1062,0.1062,0.0727,0.0,0.0,0.0,0.0,-0.0727,-0.1118,-0.1229,-0.2676,-0.34,-0.3456,-0.4236,-0.4948,-0.5706,-0.7069,-0.8103,-0.8831,-0.9118,-0.9776,-1.0538,-1.1191,-1.2389,-1.3853,-1.4128,-1.4765,-1.5449,-1.5449,-1.5459,-1.5478,-1.5478,-1.5478,-1.5478,-1.5478,-1.6333,-1.7286,-1.6795,-1.8395,-2.0246,-1.9813,-2.0569,-2.1493,-2.1493,-2.1493,-2.1631,-2.2159,-2.2309,-2.2523,-2.3122,-2.3175,-2.3012,-2.2543,-2.243,-2.2681,-2.3379,-2.3533,-2.4069,-2.5406,-2.5596,-2.5617,-2.567,-2.6243,-2.6602,-2.6632,-2.7215,-2.7625,-2.7625,-2.7625,-2.7625,-2.7625,-2.7625,-2.7625,-2.7625,-2.7625,-2.7625,-2.7625,-2.8174,-2.8463,-2.8511,-2.9134,-3.0073,-0.614,-0.5728,-0.5385,-0.5237,-0.4652,-0.3959,-0.3527,-0.3101,-0.2649,-0.2164,-0.132,-0.0502,0.0278,0.2001,0.3566,0.4349,0.4519,0.4519,0.4519,0.4519,0.4519,0.4519,0.4519,0.4405,0.4125,0.3622,0.3234,0.301,0.251,0.2063,0.184,0.1786,0.1675,0.1396,0.095,0.0504,0.0,-0.028,-0.0615,-0.1118,-0.212,-0.2899,-0.34,-0.4181,-0.4842,-0.5538,-0.6086,-0.6956,-0.8162,-0.8697,-0.9119,-0.9521,-1.0431,-1.1567,-1.2789,-1.3633,-1.4589,-1.541,-1.541,-1.541,-1.541,-1.541,-1.541,-1.541,-1.541,-1.5742,-1.6171,-1.642,-1.717,-1.7956,-1.8225,-1.9034,-1.9841,-2.0295,-2.0413,-2.0564,-2.1129,-2.1531,-2.1845,-2.2046,-2.2359,-2.2548,-2.2347,-2.2687,-2.3415,-2.4502,-2.4443,-2.4688,-2.6056,-2.5427,-2.5094,-2.5538,-2.5809,-2.6138,-2.6557,-2.7186,-2.7625,-2.7625,-2.7625,-2.7625,-2.7625,-2.7625,-2.7625,-2.7625,-2.7625,-2.7625,-2.7625,-2.781,-2.8319,-2.9104,-2.9763,-3.0554,-0.7178,-0.6912,-0.6613,-0.6726,-0.6197,-0.5433,-0.4656,-0.4174,-0.3702,-0.2925,-0.2237,-0.1555,-0.0548,0.1038,0.2636,0.3895,0.4349,0.4519,0.4519,0.4519,0.4519,0.4519,0.4519,0.4519,0.4519,0.407,0.379,0.379,0.3289,0.2843,0.2621,0.2621,0.2343,0.1842,0.1341,0.0727,0.0,0.0,-0.0224,-0.0727,-0.1452,-0.2232,-0.301,-0.3735,-0.4508,-0.5164,-0.5378,-0.6357,-0.7723,-0.8209,-0.8586,-0.8884,-0.971,-1.0661,-1.1677,-1.2482,-1.3672,-1.4849,-1.4849,-1.5023,-1.5205,-1.5205,-1.5098,-1.501,-1.5156,-1.5205,-1.5349,-1.5938,-1.6322,-1.6595,-1.709,-1.7961,-1.8838,-1.9419,-1.9673,-1.9911,-2.0288,-2.0815,-2.1267,-2.1455,-2.1782,-2.197,-2.1794,-2.218,-2.2946,-2.4297,-2.4244,-2.4471,-2.5759,-2.5166,-2.4657,-2.4911,-2.533,-2.5779,-2.6228,-2.7066,-2.7625,-2.7625,-2.7625,-2.7625,-2.7625,-2.7625,-2.7625,-2.7625,-2.7625,-2.7625,-2.7625,-2.7993,-2.8717,-2.9733,-3.0407,-3.1221,0.0,0.0,0.0,-0.75,-0.7054,-0.6357,-0.5385,-0.5328,-0.5271,-0.4432,-0.3758,-0.2861,-0.143,-0.0527,0.0746,0.2927,0.3947,0.445,0.4512,0.4512,0.4512,0.4515,0.4519,0.4519,0.4515,0.4519,0.4519,0.4519,0.4519,0.4184,0.3456,0.3456,0.2732,0.1229,0.1118,0.0783,0.0056,0.0,0.0,0.0,-0.0727,-0.1507,-0.2232,-0.2954,-0.3732,-0.4519,-0.5164,-0.6303,-0.761,-0.767,-0.8156,-0.8838,-0.9064,-0.9714,-1.0508,-1.077,-1.2125,-1.3732,-1.3732,-1.4185,-1.4766,-1.4766,-1.4482,-1.4209,-1.4639,-1.4766,-1.4853,-1.5273,-1.5901,-1.6472,-1.6482,-1.7578,-1.8701,-1.8958,-1.9371,-1.9786,-1.9798,-2.0238,-2.0832,-2.133,-2.1455,-2.1292,-2.0806,-2.0718,-2.1171,-2.2528,-2.2699,-2.3172,-2.4431,-2.4567,-2.4358,-2.3699,-2.4822,-2.5615,-2.563,-2.6826,-2.7625,-2.7625,-2.7625,-2.7625,-2.7625,-2.7625,-2.7625,-2.7625,-2.761,-2.766,-2.766,-2.881,-2.9673,-3.0293,-3.0935,-3.2002,-0.8784,0.0,0.0,0.0,0.0,0.0,-0.6896,-0.6047,-0.5282,-0.5032,-0.3999,-0.3057,-0.2599,-0.1087,0.0357,0.098,0.2429,0.3657,0.4184,0.4307,0.4502,0.5148,0.4787,0.4677,0.5164,0.4787,0.4519,0.4519,0.4519,0.4405,0.4184,0.4184,0.3735,0.2788,0.2174,0.1563,0.0783,0.028,0.0,0.0,-0.0727,-0.1507,-0.2232,-0.301,-0.379,-0.4519,-0.4677,-0.5273,-0.6195,-0.7283,-0.8156,-0.8818,-0.8898,-0.9578,-1.0531,-1.0568,-1.1423,-1.2582,-1.2582,-1.3028,-1.3589,-1.3589,-1.3787,-1.4107,-1.4277,-1.4307,-1.4404,-1.4834,-1.512,-1.5471,-1.6296,-1.7191,-1.8024,-1.8653,-1.899,-1.9346,-1.9723,-1.9635,-1.9635,-2.0162,-2.0602,-2.084,-2.0743,-2.1066,-2.1811,-2.3169,-2.2971,-2.3172,-2.4417,-2.4193,-2.3999,-2.4313,-2.5106,-2.5809,-2.6273,-2.7096,-2.7625,-2.7625,-2.7625,-2.7625,-2.7625,-2.7993,-2.8238,-2.8238,-2.8685,-2.9134,-2.9569,-2.8996,-2.9042,-2.9689,-3.1274,-3.2493,-0.8804,-0.8804,-0.8804,-0.8804,0.0,0.0,-0.7424,-0.6699,-0.6003,-0.5476,-0.4746,-0.406,-0.35,-0.2331,-0.1214,-0.0382,0.0906,0.2242,0.3556,0.3997,0.4485,0.5313,0.5124,0.5167,0.5873,0.5605,0.5222,0.4948,0.4893,0.4787,0.4519,0.4519,0.4181,0.34,0.2954,0.2174,0.1118,0.0671,0.028,0.0,-0.0448,-0.1006,-0.1786,-0.2565,-0.3289,-0.407,-0.4349,-0.4897,-0.5597,-0.6745,-0.767,-0.8374,-0.8699,-0.9217,-0.9792,-0.9792,-1.0477,-1.1422,-1.1422,-1.1852,-1.2448,-1.2448,-1.2768,-1.319,-1.338,-1.3657,-1.3955,-1.4394,-1.4512,-1.4686,-1.5442,-1.6342,-1.713,-1.7635,-1.8203,-1.8832,-1.9359,-1.9246,-1.9183,-1.9698,-2.0075,-2.03,-2.03,-2.0603,-2.13,-2.2597,-2.253,-2.2864,-2.4402,-2.4283,-2.4283,-2.4971,-2.563,-2.6183,-2.6557,-2.7186,-2.7625,-2.7625,-2.786,-2.8008,-2.8008,-2.8543,-2.8873,-2.8873,-2.9225,-2.9717,-3.0293,-2.9585,-2.954,-3.0182,-3.1616,-3.2679,-0.8758,-0.8752,-0.8699,-0.8758,-0.8804,0.0,-0.7542,-0.7318,-0.7041,-0.5945,-0.5753,-0.5461,-0.4225,-0.3961,-0.3352,-0.1526,-0.067,0.0505,0.2569,0.3544,0.4362,0.5116,0.5309,0.5684,0.6529,0.6529,0.6258,0.5651,0.5542,0.5218,0.4519,0.4519,0.4184,0.3569,0.3456,0.2676,0.1229,0.1118,0.0727,0.0,0.0,-0.0392,-0.1118,-0.1842,-0.2621,-0.3456,-0.4181,-0.4842,-0.5433,-0.6204,-0.6961,-0.7777,-0.8533,-0.8804,-0.8804,-0.8804,-0.9439,-1.0309,-1.0309,-1.0723,-1.13,-1.13,-1.149,-1.1787,-1.2265,-1.2856,-1.3413,-1.3893,-1.4048,-1.4139,-1.4337,-1.5232,-1.6165,-1.6326,-1.7227,-1.8159,-1.877,-1.8833,-1.902,-1.961,-1.9761,-1.9798,-1.9798,-1.9901,-2.0421,-2.1506,-2.1838,-2.253,-2.4298,-2.4462,-2.4777,-2.5435,-2.6019,-2.6437,-2.6572,-2.7126,-2.755,-2.7625,-2.8091,-2.8415,-2.8415,-2.9042,-2.9406,-2.9406,-2.954,-2.9848,-3.0393,-3.0335,-3.0617,-3.1207,-3.185,-3.2527,-0.8646,-0.8374,-0.8049,-0.8646,-0.8804,0.0,-0.8502,-0.8038,-0.7506,-0.7047,-0.6416,-0.5808,-0.526,-0.4886,-0.4353,-0.3401,-0.241,-0.1023,0.1189,0.2457,0.3516,0.4455,0.4523,0.5022,0.6465,0.6036,0.5928,0.6367,0.5814,0.5218,0.4519,0.4519,0.4408,0.4294,0.3677,0.2899,0.2009,0.1396,0.0727,0.0,0.0,-0.0392,-0.1118,-0.1842,-0.2619,-0.3345,-0.4181,-0.457,-0.4732,-0.5437,-0.6524,-0.7777,-0.8533,-0.8804,-0.8804,-0.8804,-0.8944,-0.915,-0.915,-0.9559,-1.0112,-1.0112,-1.0522,-1.1124,-1.1763,-1.204,-1.2332,-1.3343,-1.3877,-1.4111,-1.4129,-1.4769,-1.5523,-1.6092,-1.6477,-1.707,-1.8134,-1.8016,-1.799,-1.8982,-1.951,-1.9798,-1.9798,-2.0657,-2.1411,-2.1649,-2.256,-2.3363,-2.3731,-2.3804,-2.4059,-2.4701,-2.4881,-2.5435,-2.6497,-2.6707,-2.7006,-2.7595,-2.771,-2.776,-2.776,-2.881,-2.9406,-2.9406,-3.0335,-3.0918,-3.1015,-3.0518,-3.0617,-3.119,-3.1343,-3.1478,-0.8699,-0.8533,-0.8321,-0.8699,-0.8804,0.0,0.0,-0.8571,-0.847,-0.8176,-0.7862,-0.7504,-0.7032,-0.6765,-0.6439,-0.5808,-0.4774,-0.3724,-0.2751,0.0047,0.2344,0.3216,0.3855,0.4691,0.591,0.5986,0.5979,0.6027,0.5382,0.4673,0.4012,0.3901,0.3735,0.3345,0.2954,0.2397,0.1675,0.1284,0.0727,0.0,0.0,-0.0168,-0.0616,-0.1675,-0.2397,-0.2841,-0.4012,-0.4519,-0.457,-0.5218,-0.5923,-0.674,-0.7824,-0.848,-0.8804,-0.8804,-0.8804,-0.8804,-0.8804,-0.9008,-0.9309,-0.9309,-0.9961,-1.0864,-1.1216,-1.1774,-1.249,-1.3026,-1.335,-1.3506,-1.3506,-1.4223,-1.5039,-1.5389,-1.5951,-1.6704,-1.7618,-1.7576,-1.7626,-1.8455,-1.8832,-1.927,-2.0155,-2.0818,-2.1486,-2.21,-2.2725,-2.3364,-2.4029,-2.4118,-2.4373,-2.5046,-2.5121,-2.539,-2.6048,-2.6408,-2.6717,-2.699,-2.7934,-2.8467,-2.8385,-2.961,-3.0293,-3.0293,-3.0878,-3.119,-3.119,-3.0878,-3.0878,-3.119,-3.119,-3.1393,-0.8533,-0.848,-0.8427,-0.8752,-0.8804,-0.8744,0.0,0.0,0.0,-0.9046,-0.9255,-0.9333,-0.8782,-0.8679,-0.8459,-0.7914,-0.7077,-0.6487,-0.6451,-0.2962,0.0047,0.1236,0.2472,0.3708,0.4784,0.5681,0.5915,0.5358,0.4754,0.4094,0.3231,0.3121,0.2841,0.2232,0.2174,0.1842,0.1118,0.1118,0.0727,0.0,0.0,0.0,-0.0056,-0.1507,-0.2174,-0.2286,-0.3846,-0.4519,-0.4519,-0.5109,-0.5378,-0.5651,-0.6961,-0.783,-0.8374,-0.8374,-0.848,-0.8593,-0.8593,-0.8699,-0.8804,-0.8804,-0.9718,-1.0813,-1.0813,-1.1792,-1.2881,-1.2881,-1.2881,-1.2881,-1.2881,-1.361,-1.4433,-1.4652,-1.5377,-1.623,-1.7067,-1.7122,-1.7239,-1.794,-1.8134,-1.8674,-2.0197,-2.0563,-2.1057,-2.2312,-2.2611,-2.3127,-2.4253,-2.4388,-2.4627,-2.5166,-2.5211,-2.527,-2.542,-2.5899,-2.6255,-2.6408,-2.7926,-2.8886,-2.9001,-3.0299,-3.1095,-3.119,-3.119,-3.119,-3.119,-3.119,-3.119,-3.119,-3.119,-3.1512,-0.745,-0.7348,-0.7182,-0.848,-0.8804,-0.8798,-0.8764,0.0,-0.9672,-0.9392,0.0,-1.0156,-0.9823,0.0,0.0,-0.8669,-0.8562,-0.8232,-0.7218,-0.6342,-0.4789,-0.2043,-0.0731,0.0634,0.2379,0.4306,0.5161,0.458,0.4364,0.3658,0.2393,0.2343,0.2286,0.223,0.2174,0.1842,0.1118,0.1118,0.0727,0.0,0.0,0.0,-0.0056,-0.1507,-0.2174,-0.2286,-0.3846,-0.4519,-0.4519,-0.457,-0.4948,-0.5597,-0.6421,-0.675,-0.6858,-0.6858,-0.7289,-0.783,-0.783,-0.8262,-0.8804,-0.8804,-0.9718,-1.0813,-1.0813,-1.1792,-1.2881,-1.2881,-1.2881,-1.2881,-1.2881,-1.3027,-1.3382,-1.4433,-1.4376,-1.4571,-1.6237,-1.6193,-1.6118,-1.726,-1.7856,-1.8393,-1.9081,-1.9647,-2.039,-2.1642,-2.2335,-2.2969,-2.364,-2.3714,-2.3744,-2.3819,-2.3834,-2.4073,-2.4642,-2.4761,-2.5274,-2.6346,-2.6605,-2.7227,-2.8361,-2.9688,-3.0658,-3.119,-3.119,-3.119,-3.119,-3.119,-3.119,-3.119,-3.119,-3.1241,-0.7557,-0.7777,-0.8049,-0.8646,-0.8804,-0.8804,-0.8804,-0.9309,-0.9879,-1.0182,0.0,0.0,0.0,0.0,0.0,0.0,-1.0869,-1.0698,-1.0065,-0.9014,-0.7281,-0.4534,-0.3199,-0.1816,0.0,0.1897,0.2826,0.2483,0.2458,0.2133,0.1618,0.117,0.0948,0.095,0.0951,0.0783,0.0448,0.0448,0.028,0.0,0.0,0.0,-0.0056,-0.1507,-0.2174,-0.2286,-0.3846,-0.4519,-0.4519,-0.4519,-0.468,-0.4948,-0.5281,-0.5878,-0.6588,-0.6588,-0.6804,-0.7074,-0.7074,-0.7557,-0.8315,-0.9099,-1.0012,-1.0864,-1.1266,-1.2089,-1.2881,-1.2881,-1.2881,-1.2881,-1.2881,-1.3152,-1.3647,-1.4525,-1.4778,-1.5141,-1.625,-1.6281,-1.6268,-1.6792,-1.7325,-1.7845,-1.838,-1.953,-2.0656,-2.1574,-2.1936,-2.2338,-2.2981,-2.3071,-2.3206,-2.3565,-2.3879,-2.4197,-2.4444,-2.5141,-2.5733,-2.6134,-2.725,-2.8526,-2.9922,-3.0533,-3.0918,-3.119,-3.119,-3.119,-3.119,-3.119,-3.119,-3.119,-3.119,-3.119,-0.7289,-0.7777,-0.8321,-0.8699,-0.8804,-0.8804,-0.8804,-0.9309,-1.0012,-1.0661,-1.11,0.0,0.0,0.0,-1.2918,-1.2381,0.0,-1.2414,-1.182,-1.0734,-0.9171,-0.6848,-0.5227,-0.3736,-0.2219,-0.0622,0.0315,0.0272,0.0596,0.0706,0.0551,0.0222,0.0,0.0,0.0,0.0,0.0,0.0,0.0,0.0,0.0,0.0,-0.0056,-0.134,-0.2009,-0.2286,-0.3624,-0.4294,-0.4519,-0.4519,-0.4519,-0.4519,-0.4519,-0.5117,-0.6046,-0.6046,-0.615,-0.6312,-0.6534,-0.7235,-0.815,-0.9197,-0.9961,-1.0661,-1.1316,-1.2039,-1.2657,-1.2822,-1.2881,-1.2881,-1.2881,-1.3248,-1.3695,-1.4329,-1.4778,-1.532,-1.6095,-1.6238,-1.6367,-1.6667,-1.7146,-1.7706,-1.8224,-1.9364,-2.0494,-2.1302,-2.1425,-2.1724,-2.2604,-2.2724,-2.299,-2.3734,-2.4158,-2.4471,-2.4592,-2.5425,-2.5954,-2.601,-2.766,-2.9144,-3.0226,-3.048,-3.0683,-3.0886,-3.0903,-3.1004,-3.119,-3.119,-3.119,-3.119,-3.119,-3.119,-0.6263,-0.6642,-0.702,-0.8427,-0.8804,-0.8804,-0.8804,-0.9309,-1.0012,-1.0661,-1.1299,-1.2003,-1.2745,-1.2996,-1.2918,-1.2381,-1.2804,0.0,0.0,-1.1389,-1.0903,-0.8952,-0.6799,-0.512,-0.4213,-0.2873,-0.2014,-0.1932,-0.0715,-0.0205,-0.0798,-0.033,0.0,0.0,0.0,0.0,0.0,0.0,0.0,0.0,0.0,0.0,0.0,-0.0783,-0.1507,-0.2232,-0.3067,-0.3846,-0.4519,-0.4519,-0.4519,-0.4519,-0.4519,-0.4515,-0.457,-0.457,-0.5003,-0.5651,-0.6367,-0.7563,-0.8752,-0.8804,-0.9263,-0.9961,-1.0618,-1.1316,-1.1972,-1.2715,-1.2881,-1.2881,-1.2881,-1.2929,-1.3055,-1.3684,-1.3815,-1.4179,-1.5365,-1.5632,-1.5971,-1.705,-1.7706,-1.8263,-1.8779,-1.8921,-1.9371,-2.0557,-2.0752,-2.1216,-2.2544,-2.2724,-2.3141,-2.423,-2.4389,-2.4632,-2.5144,-2.5198,-2.5443,-2.5977,-2.7173,-2.784,-2.7891,-2.8653,-2.9397,-3.0125,-3.0142,-3.0497,-3.119,-3.119,-3.119,-3.119,-3.119,-3.119,-0.6312,-0.6966,-0.7563,-0.854,-0.8804,-0.8804,-0.8804,-0.8956,-0.9465,-1.0559,-1.0965,-1.1475,-1.2666,-1.357,-1.397,-1.3445,-1.422,-1.4317,0.0,-1.1316,-1.02,-0.95,-0.7853,-0.6669,-0.6268,-0.4902,-0.3791,-0.3243,-0.2413,-0.1617,-0.0958,-0.0769,-0.0504,0.0,0.0,0.0,0.0,0.0,0.0,0.0,0.0,0.0,0.0,-0.0783,-0.1507,-0.2232,-0.301,-0.379,-0.4519,-0.4519,-0.4519,-0.4519,-0.4519,-0.4519,-0.4519,-0.4519,-0.4625,-0.5003,-0.6204,-0.7235,-0.8156,-0.8646,-0.9263,-0.9917,-1.0618,-1.1266,-1.1972,-1.2666,-1.2881,-1.2881,-1.2881,-1.32,-1.3647,-1.4236,-1.4687,-1.5231,-1.6008,-1.6194,-1.6398,-1.7146,-1.7747,-1.8263,-1.8817,-1.9207,-1.9568,-2.0004,-2.0034,-2.0363,-2.1261,-2.1591,-2.2156,-2.3178,-2.4099,-2.4804,-2.5173,-2.5819,-2.6497,-2.7157,-2.7567,-2.8061,-2.8569,-2.8839,-2.9146,-2.9364,-2.9854,-3.0226,-3.048,-3.0954,-3.119,-3.119,-3.119,-3.119,-0.6317,-0.6966,-0.7563,-0.8533,-0.8804,-0.8804,-0.8804,-0.8804,-0.9106,-1.0218,-1.061,-1.1174,-1.2304,-1.3532,-1.4222,-1.3651,-1.4282,-1.4213,0.0,-1.0726,-0.9716,-0.9707,-0.8815,-0.8137,-0.8036,-0.6613,-0.5365,-0.4546,-0.324,-0.2127,-0.1252,-0.0873,-0.0504,0.0,0.0,0.0,0.0,0.0,0.0,0.0,0.0,0.0,0.0,-0.0504,-0.1229,-0.2232,-0.2674,-0.3511,-0.4519,-0.4519,-0.4519,-0.4519,-0.4519,-0.4519,-0.4519,-0.4519,-0.4625,-0.5003,-0.5878,-0.6853,-0.7777,-0.8262,-0.889,-0.9614,-1.0517,-1.1116,-1.1674,-1.2618,-1.2881,-1.2881,-1.2881,-1.32,-1.36,-1.3978,-1.4687,-1.5377,-1.5788,-1.6207,-1.671,-1.7422,-1.7867,-1.8341,-1.9043,-1.9479,-1.969,-1.969,-1.969,-1.9929,-2.0617,-2.1042,-2.1698,-2.2716,-2.3795,-2.4654,-2.5268,-2.6165,-2.6894,-2.7385,-2.7418,-2.7638,-2.8146,-2.8163,-2.8416,-2.9011,-2.9465,-2.9973,-3.0497,-3.097,-3.119,-3.119,-3.119,-3.1291]}]]